[[{"header":{"parameterUnit":"m.s-1","parameterCategory":1,"la1":31.0,"la2":29.5877,"lo1":-88.7671,"lo2":-86.6584,"dy":0.0162,"dx":0.0185,"nx":115,"ny":88,"refTime":"2023-07-14T18:00:00:Z","depth":0,"parameterNumber":2,"parameterNumberName":"U-component_of_WINDS"},"data":[0.0,0.0,0.0,0.0,0.0,0.0,0.0,0.0,0.0,0.0,0.0,0.0,0.0,0.0,0.0,0.0,0.0,0.0,0.0,0.0,0.0,0.0,0.0,0.0,0.0,0.0,0.0,0.0,0.0,0.0,0.0,0.0,0.0,0.0,0.0,0.0,0.0,0.0,0.0,0.0,0.0,0.0,0.0,0.0,0.0,0.0,0.0,0.0,0.0,0.0,0.0,0.0,0.0,0.0,0.0,0.0,0.0,0.0,0.0,0.0,0.0,0.0,0.0,0.0,0.0,0.0,0.0,0.0,0.0,0.0,0.0,0.0,0.0,0.0,0.0,0.0,0.0,0.0,0.0,0.0,0.0,0.0,0.0,0.0,0.0,0.0,0.0,0.0,0.0,0.0,0.0,0.0,0.0,0.0,0.0,0.0,0.0,0.0,0.0,0.0,0.0,0.0,0.0,0.0,0.0,0.0,0.0,0.0,0.0,0.0,0.0,0.0,0.0,0.0,0.0,0.0,0.0,0.0,0.0,0.0,0.0,0.0,0.0,0.0,0.0,0.0,0.0,0.0,0.0,0.0,0.0,0.0,0.0,0.0,0.0,0.0,0.0,0.0,0.0,0.0,0.0,0.0,0.0,0.0,0.0,0.0,0.0,0.0,0.0,0.0,0.0,0.0,0.0,0.0,0.0,0.0,0.0,0.0,0.0,0.0,0.0,0.0,0.0,0.0,0.0,0.0,0.0,0.0,0.0,0.0,0.0,0.0,0.0,0.0,0.0,0.0,0.0,0.0,0.0,0.0,0.0,0.0,0.0,0.0,0.0,0.0,0.0,0.0,0.0,0.0,0.0,0.0,0.0,0.0,0.0,0.0,0.0,0.0,0.0,0.0,0.0,0.0,0.0,0.0,0.0,0.0,0.0,0.0,0.0,0.0,0.0,0.0,0.0,0.0,0.0,0.0,0.0,0.0,0.0,0.0,0.0,0.0,0.0,0.0,0.0,0.0,0.0,0.0,0.0,0.0,0.0,0.0,0.0,0.0,0.0,0.0,0.0,0.0,0.0,0.0,0.0,0.0,0.0,0.0,0.0,0.0,0.0,0.0,0.0,0.0,0.0,0.0,0.0,0.0,0.0,0.0,0.0,0.0,0.0,0.0,0.0,0.0,0.0,0.0,0.0,0.0,0.0,0.0,0.0,0.0,0.0,0.0,0.0,0.0,0.0,0.0,0.0,0.0,0.0,0.0,0.0,0.0,0.0,0.0,0.0,0.0,0.0,0.0,0.0,0.0,0.0,0.0,0.0,0.0,0.0,0.0,0.0,0.0,0.0,0.0,0.0,0.0,0.0,0.0,0.0,0.0,0.0,0.0,0.0,0.0,0.0,0.0,0.0,0.0,0.0,0.0,0.0,0.0,0.0,0.0,0.0,0.0,0.0,0.0,0.0,0.0,0.0,0.0,0.0,0.0,0.0,0.0,0.0,0.0,0.0,0.0,0.0,0.0,0.0,0.0,0.0,0.0,0.0,0.0,0.0,0.0,0.0,0.0,0.0,0.0,0.0,0.0,0.0,0.0,0.0,0.0,0.0,0.0,0.0,0.0,0.0,0.0,0.0,0.0,0.0,0.0,0.0,0.0,0.0,0.0,0.0,0.0,0.0,0.0,0.0,0.0,0.0,0.0,0.0,0.0,0.0,0.0,0.0,0.0,0.0,0.0,0.0,0.0,0.0,0.0,0.0,0.0,0.0,0.0,0.0,0.0,0.0,0.0,0.0,0.0,0.0,0.0,0.0,0.0,0.0,0.0,0.0,0.0,0.0,0.0,0.0,0.0,0.0,0.0,0.0,0.0,0.0,0.0,0.0,0.0,0.0,0.0,0.0,0.0,0.0,0.0,0.0,0.0,0.0,0.0,0.0,0.0,0.0,0.0,0.0,0.0,0.0,0.0,0.0,0.0,0.0,0.0,0.0,0.0,0.0,0.0,0.0,0.0,0.0,0.0,0.0,0.0,0.0,0.0,0.0,0.0,0.0,0.0,0.0,0.0,0.0,0.0,0.0,0.0,0.0,0.0,0.0,0.0,0.0,0.0,0.0,0.0,0.0,0.0,0.0,0.0,0.0,0.0,0.0,0.0,0.0,0.0,0.0,0.0,0.0,0.0,0.0,0.0,0.0,0.0,0.0,0.0,0.0,0.0,0.0,0.0,0.0,0.0,0.0,0.0,0.0,0.0,0.0,0.0,0.0,0.0,0.0,0.0,0.0,0.0,0.0,0.0,0.0,0.0,0.0,0.0,0.0,0.0,0.0,0.0,0.0,0.0,0.0,0.0,0.0,0.0,0.0,0.0,0.0,0.0,0.0,0.0,0.0,0.0,0.0,0.0,0.0,0.0,0.0,0.0,0.0,0.0,0.0,0.0,0.0,0.0,0.0,0.0,0.0,0.0,0.0,0.0,0.0,0.0,0.0,0.0,0.0,0.0,0.0,0.0,0.0,0.0,0.0,0.0,0.0,0.0,0.0,0.0,0.0,0.0,0.0,0.0,0.0,0.0,0.0,0.0,0.0,0.0,0.0,0.0,0.0,0.0,0.0,0.0,0.0,0.0,0.0,0.0,0.0,0.0,0.0,0.0,0.0,0.0,0.0,0.0,0.0,0.0,0.0,0.0,0.0,0.0,0.0,0.0,0.0,0.0,0.0,0.0,0.0,0.0,0.0,0.0,0.0,0.0,0.0,0.0,0.0,0.0,0.0,0.0,0.0,0.0,0.0,0.0,0.0,0.0,0.0,0.0,0.0,0.0,0.0,0.0,0.0,0.0,0.0,0.0,0.0,0.0,0.0,0.0,0.0,0.0,0.0,0.0,0.0,0.0,0.0,0.0,0.0,0.0,0.0,0.0,0.0,0.0,0.0,0.0,0.0,0.0,0.0,0.0,0.0,0.0,0.0,0.0,0.0,0.0,0.0,0.0,0.0,0.0,0.0,0.0,0.0,0.0,0.0,0.0,0.0,0.0,0.0,0.0,0.0,0.0,0.0,0.0,0.0,0.0,0.0,0.0,0.0,0.0,0.0,0.0,0.0,0.0,0.0,0.0,0.0,0.0,0.0,0.0,0.0,0.0,0.0,0.0,0.0,0.0,0.0,0.0,0.0,0.0,0.0,0.0,0.0,0.0,0.0,0.0,0.0,0.0,0.0,0.0,0.0,0.0,0.0,0.0,0.0,0.0,0.0,0.0,0.0,0.0,0.0,0.0,0.0,0.0,0.0,0.0,0.0,0.0,0.0,0.0,0.0,0.0,0.0,0.0,0.0,0.0,0.0,0.0,0.0,0.0,0.0,0.0,0.0,0.0,0.0,0.0,0.0,0.0,0.0,0.0,0.0,0.0,0.0,0.0,0.0,0.0,0.0,0.0,0.0,0.0,0.0,0.0,0.0,0.0,0.0,0.0,0.0,0.0,0.0,0.0,0.0,0.0,0.0,0.0,0.0,0.0,0.0,0.0,0.0,0.0,0.0,0.0,0.0,0.0,0.0,0.0,0.0,0.0,0.0,0.0,0.0,0.0,0.0,0.0,0.0,0.0,0.0,0.0,0.0,0.0,0.0,0.0,0.0,0.0,0.0,0.0,0.0,0.0,0.0,0.0,0.0,0.0,0.0,0.0,0.0,0.0,0.0,0.0,0.0,0.0,0.0,0.0,0.0,0.0,0.0,0.0,0.0,0.0,0.0,0.0,0.0,0.0,0.0,0.0,0.0,0.0,0.0,0.0,0.0,0.0,0.0,0.0,0.0,0.0,0.0,0.0,0.0,0.0,0.0,0.0,0.0,0.0,0.0,0.0,0.0,0.0,0.0,0.0,0.0,0.0,0.0,0.0,0.0,0.0,0.0,0.0,0.0,0.0,0.0,0.0,0.0,0.0,0.0,0.0,0.0,0.0,0.0,0.0,0.0,0.0,0.0,0.0,0.0,0.0,0.0,0.0,0.0,0.0,0.0,0.0,0.0,0.0,0.0,0.0,0.0,0.0,0.0,0.0,0.0,0.0,0.0,0.0,0.0,0.0,0.0,0.0,0.0,0.0,0.0,0.0,0.0,0.0,0.0,0.0,0.0,0.0,0.0,0.0,0.0,0.0,0.0,0.0,0.0,0.0,0.0,0.0,0.0,0.0,0.0,0.0,0.0,0.0,0.0,0.0,0.0,0.0,0.0,0.0,0.0,0.0,0.0,0.0,0.0,0.0,0.0,0.0,0.0,0.0,0.0,0.0,0.0,0.0,0.0,0.0,0.0,0.0,-3.0799,0.0,0.0,0.0,0.0,0.0,0.0,0.0,0.0,0.0,0.0,0.0,0.0,0.0,0.0,0.0,0.0,0.0,0.0,0.0,0.0,0.0,0.0,0.0,0.0,0.0,0.0,0.0,0.0,0.0,0.0,0.0,0.0,0.0,0.0,0.0,0.0,0.0,0.0,0.0,0.0,0.0,0.0,0.0,0.0,0.0,0.0,0.0,0.0,0.0,0.0,0.0,0.0,0.0,0.0,0.0,0.0,0.0,0.0,0.0,0.0,0.0,0.0,0.0,0.0,0.0,0.0,0.0,0.0,0.0,0.0,0.0,0.0,0.0,0.0,0.0,0.0,0.0,0.0,0.0,0.0,0.0,0.0,0.0,0.0,0.0,0.0,0.0,0.0,0.0,0.0,0.0,0.0,0.0,0.0,0.0,0.0,0.0,0.0,0.0,0.0,0.0,0.0,0.0,0.0,0.0,0.0,0.0,0.0,0.0,0.0,-3.2186,-3.2109,-3.1716,-3.1283,-3.0829,0.0,0.0,0.0,0.0,0.0,0.0,0.0,0.0,0.0,0.0,0.0,0.0,0.0,0.0,0.0,0.0,0.0,0.0,0.0,0.0,0.0,0.0,0.0,0.0,0.0,0.0,0.0,0.0,0.0,0.0,0.0,0.0,0.0,0.0,0.0,0.0,0.0,0.0,0.0,0.0,0.0,0.0,0.0,0.0,0.0,0.0,0.0,0.0,0.0,0.0,0.0,0.0,0.0,0.0,0.0,0.0,0.0,0.0,0.0,0.0,0.0,0.0,0.0,0.0,0.0,0.0,0.0,0.0,0.0,0.0,0.0,0.0,0.0,0.0,0.0,0.0,0.0,0.0,0.0,0.0,0.0,0.0,0.0,0.0,0.0,0.0,0.0,0.0,0.0,0.0,0.0,0.0,0.0,0.0,0.0,0.0,0.0,0.0,0.0,0.0,0.0,0.0,0.0,0.0,0.0,0.0,0.0,0.0,0.0,0.0,0.0,0.0,-3.2311,-3.1679,-3.0827,0.0,0.0,0.0,0.0,0.0,0.0,0.0,0.0,0.0,0.0,0.0,0.0,0.0,0.0,0.0,0.0,0.0,0.0,0.0,0.0,0.0,0.0,0.0,0.0,0.0,0.0,0.0,0.0,0.0,0.0,0.0,0.0,0.0,0.0,0.0,0.0,0.0,0.0,0.0,0.0,0.0,0.0,0.0,0.0,0.0,0.0,0.0,0.0,0.0,0.0,0.0,0.0,0.0,0.0,0.0,0.0,0.0,0.0,0.0,0.0,0.0,0.0,0.0,0.0,0.0,0.0,0.0,0.0,0.0,0.0,0.0,0.0,0.0,0.0,0.0,0.0,0.0,0.0,0.0,0.0,0.0,0.0,0.0,0.0,0.0,0.0,0.0,0.0,0.0,0.0,0.0,0.0,0.0,0.0,0.0,0.0,0.0,0.0,0.0,0.0,0.0,0.0,0.0,0.0,0.0,0.0,0.0,0.0,0.0,0.0,-3.3737,-3.4414,-3.2924,0.0,-3.0777,0.0,0.0,0.0,0.0,0.0,0.0,0.0,0.0,0.0,0.0,0.0,0.0,0.0,0.0,0.0,0.0,0.0,0.0,0.0,0.0,0.0,0.0,0.0,0.0,0.0,0.0,0.0,0.0,0.0,0.0,0.0,0.0,0.0,0.0,0.0,0.0,0.0,0.0,0.0,0.0,0.0,0.0,0.0,0.0,0.0,0.0,0.0,0.0,0.0,0.0,0.0,0.0,0.0,0.0,0.0,0.0,0.0,0.0,0.0,0.0,0.0,0.0,0.0,0.0,0.0,0.0,0.0,0.0,0.0,0.0,0.0,0.0,0.0,0.0,0.0,0.0,0.0,0.0,0.0,0.0,0.0,0.0,0.0,0.0,0.0,0.0,0.0,0.0,0.0,0.0,0.0,0.0,0.0,0.0,0.0,0.0,0.0,0.0,0.0,0.0,0.0,0.0,0.0,0.0,0.0,0.0,0.0,0.0,0.0,0.0,-3.4866,-3.47,-3.2976,-3.1853,0.0,0.0,0.0,0.0,0.0,0.0,0.0,0.0,0.0,0.0,0.0,0.0,0.0,0.0,0.0,0.0,0.0,0.0,0.0,0.0,0.0,0.0,0.0,0.0,0.0,0.0,0.0,0.0,0.0,0.0,0.0,0.0,0.0,0.0,0.0,0.0,0.0,0.0,0.0,0.0,0.0,0.0,0.0,0.0,0.0,0.0,0.0,0.0,0.0,0.0,0.0,0.0,0.0,0.0,0.0,0.0,0.0,0.0,0.0,0.0,0.0,0.0,0.0,0.0,0.0,0.0,0.0,0.0,0.0,0.0,0.0,0.0,0.0,0.0,0.0,0.0,0.0,0.0,0.0,0.0,0.0,0.0,0.0,0.0,0.0,0.0,0.0,0.0,0.0,0.0,0.0,0.0,0.0,0.0,0.0,0.0,0.0,0.0,0.0,0.0,0.0,0.0,0.0,0.0,0.0,0.0,0.0,0.0,0.0,0.0,-3.6004,-3.5564,-3.4667,-3.3166,-3.2243,-3.1967,0.0,0.0,0.0,0.0,0.0,0.0,0.0,0.0,0.0,0.0,0.0,0.0,0.0,0.0,0.0,0.0,0.0,0.0,0.0,0.0,0.0,0.0,0.0,0.0,0.0,0.0,0.0,0.0,0.0,0.0,0.0,0.0,0.0,0.0,0.0,0.0,0.0,0.0,0.0,0.0,0.0,0.0,0.0,0.0,0.0,0.0,0.0,0.0,0.0,0.0,0.0,0.0,0.0,0.0,0.0,0.0,0.0,0.0,0.0,0.0,0.0,0.0,0.0,0.0,0.0,0.0,0.0,0.0,0.0,0.0,0.0,0.0,0.0,0.0,0.0,0.0,0.0,0.0,0.0,0.0,0.0,0.0,0.0,0.0,0.0,0.0,0.0,0.0,0.0,0.0,0.0,0.0,0.0,0.0,0.0,0.0,0.0,0.0,0.0,0.0,0.0,0.0,0.0,0.0,0.0,0.0,0.0,0.0,-3.6005,-3.6017,-3.5571,-3.4645,-3.3713,-3.284,0.0,0.0,0.0,0.0,0.0,0.0,0.0,0.0,0.0,0.0,0.0,0.0,0.0,0.0,0.0,0.0,0.0,0.0,0.0,0.0,0.0,0.0,0.0,0.0,0.0,0.0,0.0,0.0,0.0,0.0,0.0,0.0,0.0,0.0,0.0,0.0,0.0,0.0,0.0,0.0,0.0,0.0,0.0,0.0,0.0,0.0,0.0,0.0,0.0,0.0,0.0,0.0,0.0,0.0,0.0,0.0,0.0,0.0,0.0,0.0,0.0,0.0,0.0,0.0,0.0,0.0,0.0,0.0,0.0,0.0,0.0,0.0,0.0,0.0,0.0,0.0,0.0,0.0,0.0,0.0,0.0,0.0,0.0,0.0,0.0,0.0,0.0,0.0,0.0,0.0,0.0,0.0,0.0,0.0,0.0,0.0,0.0,0.0,0.0,0.0,0.0,0.0,0.0,0.0,0.0,0.0,0.0,0.0,0.0,-3.601,-3.5949,-3.5771,-3.5396,-3.401,-3.304,0.0,0.0,0.0,0.0,0.0,0.0,0.0,0.0,0.0,0.0,0.0,0.0,0.0,0.0,0.0,0.0,0.0,0.0,0.0,0.0,0.0,0.0,0.0,0.0,0.0,0.0,0.0,0.0,0.0,0.0,0.0,0.0,0.0,0.0,0.0,0.0,0.0,0.0,0.0,0.0,0.0,0.0,0.0,0.0,0.0,0.0,0.0,0.0,0.0,0.0,0.0,0.0,0.0,0.0,0.0,0.0,0.0,0.0,0.0,0.0,0.0,0.0,0.0,0.0,0.0,0.0,0.0,0.0,0.0,0.0,0.0,0.0,0.0,0.0,0.0,0.0,0.0,0.0,0.0,0.0,0.0,0.0,0.0,0.0,0.0,0.0,0.0,0.0,0.0,0.0,0.0,0.0,0.0,0.0,0.0,0.0,0.0,0.0,0.0,0.0,0.0,0.0,0.0,0.0,0.0,0.0,0.0,0.0,0.0,-3.5972,0.0,-3.5888,-3.582,-3.4081,-3.3122,0.0,0.0,0.0,0.0,0.0,0.0,0.0,0.0,0.0,0.0,0.0,0.0,0.0,0.0,0.0,0.0,0.0,0.0,0.0,0.0,0.0,0.0,0.0,0.0,0.0,0.0,0.0,0.0,0.0,0.0,0.0,0.0,0.0,0.0,0.0,0.0,0.0,0.0,0.0,0.0,0.0,0.0,0.0,0.0,0.0,0.0,0.0,0.0,0.0,0.0,0.0,0.0,0.0,0.0,0.0,0.0,0.0,0.0,0.0,0.0,0.0,0.0,0.0,0.0,0.0,0.0,0.0,0.0,0.0,0.0,0.0,0.0,0.0,0.0,0.0,0.0,0.0,0.0,0.0,0.0,0.0,0.0,0.0,0.0,0.0,0.0,0.0,0.0,0.0,0.0,0.0,0.0,0.0,0.0,0.0,0.0,0.0,0.0,0.0,0.0,0.0,0.0,0.0,0.0,0.0,0.0,0.0,0.0,-3.597,-3.5909,-3.588,-3.5856,-3.5756,-3.4003,-3.3026,0.0,0.0,0.0,0.0,0.0,0.0,0.0,0.0,0.0,0.0,0.0,0.0,0.0,0.0,0.0,0.0,0.0,0.0,0.0,0.0,0.0,0.0,0.0,0.0,0.0,0.0,0.0,0.0,0.0,0.0,0.0,0.0,0.0,0.0,0.0,0.0,0.0,0.0,0.0,0.0,0.0,0.0,0.0,0.0,0.0,0.0,0.0,0.0,0.0,0.0,0.0,0.0,0.0,0.0,0.0,0.0,0.0,0.0,0.0,0.0,0.0,0.0,0.0,0.0,0.0,0.0,0.0,0.0,0.0,0.0,0.0,0.0,0.0,0.0,0.0,0.0,0.0,0.0,0.0,0.0,0.0,0.0,0.0,0.0,0.0,0.0,0.0,0.0,0.0,0.0,0.0,0.0,0.0,0.0,0.0,0.0,0.0,0.0,0.0,0.0,0.0,0.0,0.0,0.0,0.0,0.0,0.0,0.0,0.0,-3.5846,-3.5784,-3.5717,-3.564,-3.4461,-3.3536,0.0,0.0,0.0,0.0,0.0,0.0,0.0,0.0,0.0,0.0,0.0,0.0,0.0,0.0,0.0,0.0,0.0,0.0,0.0,0.0,0.0,0.0,0.0,0.0,0.0,0.0,0.0,0.0,0.0,0.0,0.0,0.0,0.0,0.0,0.0,0.0,0.0,0.0,0.0,0.0,0.0,0.0,0.0,0.0,0.0,0.0,0.0,0.0,0.0,0.0,0.0,0.0,0.0,0.0,0.0,0.0,0.0,0.0,0.0,0.0,0.0,0.0,0.0,0.0,0.0,0.0,0.0,0.0,0.0,0.0,0.0,0.0,0.0,0.0,0.0,0.0,0.0,0.0,0.0,0.0,0.0,0.0,0.0,0.0,0.0,0.0,0.0,0.0,0.0,0.0,0.0,0.0,0.0,0.0,0.0,0.0,0.0,0.0,0.0,0.0,0.0,0.0,0.0,0.0,0.0,0.0,0.0,0.0,0.0,-3.7114,-3.7089,-3.705,-3.6973,-3.5785,-3.4686,-3.3772,0.0,0.0,0.0,0.0,0.0,0.0,0.0,0.0,0.0,0.0,0.0,0.0,0.0,0.0,0.0,0.0,0.0,0.0,0.0,0.0,0.0,0.0,0.0,0.0,0.0,0.0,0.0,0.0,0.0,0.0,0.0,0.0,0.0,0.0,0.0,0.0,0.0,0.0,0.0,0.0,0.0,0.0,0.0,0.0,0.0,0.0,0.0,0.0,0.0,0.0,0.0,0.0,0.0,0.0,0.0,0.0,0.0,0.0,0.0,0.0,0.0,0.0,0.0,0.0,0.0,0.0,0.0,0.0,0.0,0.0,0.0,0.0,0.0,0.0,0.0,0.0,0.0,0.0,0.0,0.0,0.0,0.0,0.0,0.0,0.0,0.0,0.0,0.0,0.0,0.0,0.0,0.0,0.0,0.0,0.0,0.0,0.0,0.0,0.0,0.0,0.0,0.0,0.0,0.0,0.0,0.0,0.0,0.0,-3.9492,-3.9618,-3.9566,-3.9307,-3.7697,-3.6339,0.0,0.0,0.0,0.0,0.0,0.0,0.0,0.0,0.0,0.0,0.0,0.0,0.0,0.0,0.0,0.0,0.0,0.0,0.0,0.0,0.0,0.0,0.0,0.0,0.0,0.0,0.0,0.0,0.0,0.0,0.0,0.0,0.0,0.0,0.0,0.0,0.0,0.0,0.0,0.0,0.0,0.0,0.0,0.0,0.0,0.0,0.0,0.0,0.0,0.0,0.0,0.0,0.0,0.0,0.0,0.0,0.0,0.0,0.0,0.0,0.0,0.0,0.0,0.0,0.0,0.0,0.0,0.0,0.0,0.0,0.0,0.0,0.0,0.0,0.0,0.0,0.0,0.0,0.0,0.0,0.0,0.0,0.0,0.0,0.0,0.0,0.0,0.0,0.0,0.0,0.0,0.0,0.0,0.0,0.0,0.0,0.0,0.0,0.0,0.0,0.0,0.0,0.0,0.0,0.0,0.0,0.0,0.0,0.0,-4.1955,-4.2678,-4.208,-4.0189,-3.8993,-3.7689,0.0,0.0,0.0,0.0,0.0,0.0,0.0,0.0,0.0,0.0,0.0,0.0,0.0,0.0,0.0,0.0,0.0,0.0,0.0,0.0,0.0,0.0,0.0,0.0,0.0,0.0,0.0,0.0,0.0,0.0,0.0,0.0,0.0,0.0,0.0,0.0,0.0,0.0,0.0,0.0,0.0,0.0,0.0,0.0,0.0,0.0,0.0,0.0,0.0,0.0,0.0,0.0,0.0,0.0,0.0,0.0,0.0,0.0,0.0,0.0,0.0,0.0,0.0,0.0,0.0,0.0,0.0,0.0,0.0,0.0,0.0,0.0,0.0,0.0,0.0,0.0,0.0,0.0,0.0,0.0,0.0,0.0,0.0,0.0,0.0,0.0,0.0,0.0,0.0,0.0,0.0,0.0,0.0,0.0,0.0,0.0,0.0,0.0,0.0,0.0,0.0,0.0,0.0,0.0,0.0,0.0,0.0,0.0,-4.1232,-4.2904,-4.4124,-4.403,-4.2498,-4.0893,-3.9251,0.0,0.0,0.0,0.0,0.0,0.0,0.0,0.0,0.0,0.0,0.0,0.0,0.0,0.0,0.0,0.0,0.0,0.0,0.0,0.0,0.0,0.0,0.0,0.0,0.0,0.0,0.0,0.0,0.0,0.0,0.0,0.0,0.0,0.0,0.0,0.0,0.0,0.0,0.0,0.0,0.0,0.0,0.0,0.0,0.0,0.0,0.0,0.0,0.0,0.0,0.0,0.0,0.0,0.0,0.0,0.0,0.0,0.0,0.0,0.0,0.0,0.0,0.0,0.0,0.0,0.0,0.0,0.0,0.0,0.0,0.0,0.0,0.0,0.0,0.0,0.0,0.0,0.0,0.0,0.0,0.0,0.0,0.0,0.0,0.0,0.0,0.0,0.0,0.0,0.0,0.0,0.0,0.0,0.0,0.0,0.0,0.0,0.0,0.0,0.0,0.0,0.0,0.0,0.0,0.0,0.0,0.0,0.0,-4.2166,-4.2929,-4.4547,-4.5378,-4.5231,-4.2899,-4.0768,0.0,0.0,0.0,0.0,0.0,0.0,0.0,0.0,0.0,0.0,0.0,0.0,0.0,0.0,0.0,0.0,0.0,0.0,0.0,0.0,0.0,0.0,0.0,0.0,0.0,0.0,0.0,0.0,0.0,0.0,0.0,0.0,0.0,0.0,0.0,0.0,0.0,0.0,0.0,0.0,0.0,0.0,0.0,0.0,0.0,0.0,0.0,0.0,0.0,0.0,0.0,0.0,0.0,0.0,0.0,0.0,0.0,0.0,0.0,0.0,0.0,0.0,0.0,0.0,0.0,0.0,0.0,0.0,0.0,0.0,0.0,0.0,0.0,0.0,0.0,0.0,0.0,0.0,0.0,0.0,0.0,0.0,0.0,0.0,0.0,0.0,0.0,0.0,0.0,0.0,0.0,0.0,0.0,0.0,0.0,0.0,0.0,0.0,0.0,0.0,0.0,0.0,0.0,0.0,0.0,0.0,0.0,0.0,-4.24,-4.379,-4.4862,-4.5359,-4.5307,-4.3349,-4.1464,0.0,0.0,0.0,0.0,0.0,0.0,0.0,0.0,0.0,0.0,0.0,0.0,0.0,0.0,0.0,0.0,0.0,0.0,0.0,0.0,0.0,0.0,0.0,0.0,0.0,0.0,0.0,0.0,0.0,0.0,0.0,0.0,0.0,0.0,0.0,0.0,0.0,0.0,0.0,0.0,0.0,0.0,0.0,0.0,0.0,0.0,0.0,0.0,-3.7071,0.0,0.0,0.0,0.0,0.0,0.0,0.0,0.0,0.0,0.0,0.0,0.0,0.0,0.0,0.0,0.0,0.0,0.0,0.0,0.0,0.0,0.0,0.0,0.0,0.0,0.0,0.0,0.0,0.0,0.0,0.0,0.0,0.0,0.0,0.0,0.0,0.0,0.0,0.0,0.0,0.0,0.0,0.0,0.0,0.0,0.0,0.0,0.0,0.0,0.0,0.0,0.0,0.0,0.0,0.0,0.0,0.0,0.0,0.0,-4.2805,-4.4038,-4.4898,-4.5256,-4.5038,-4.3665,-4.2143,0.0,0.0,0.0,0.0,0.0,0.0,0.0,0.0,0.0,0.0,0.0,0.0,0.0,0.0,0.0,0.0,0.0,0.0,0.0,0.0,0.0,0.0,0.0,0.0,0.0,0.0,0.0,0.0,0.0,0.0,0.0,0.0,0.0,0.0,0.0,0.0,0.0,0.0,0.0,0.0,0.0,0.0,0.0,0.0,0.0,0.0,0.0,0.0,0.0,0.0,0.0,0.0,0.0,0.0,0.0,0.0,0.0,0.0,0.0,0.0,0.0,0.0,0.0,0.0,0.0,0.0,0.0,0.0,0.0,0.0,0.0,0.0,0.0,0.0,0.0,0.0,0.0,0.0,0.0,0.0,0.0,0.0,0.0,0.0,0.0,0.0,0.0,0.0,0.0,0.0,0.0,0.0,0.0,0.0,0.0,0.0,0.0,0.0,0.0,0.0,0.0,0.0,0.0,0.0,0.0,0.0,0.0,-4.1676,-4.3264,-4.4188,-4.4934,-4.5151,-4.48,-4.3888,-4.258,-4.0928,0.0,0.0,0.0,0.0,0.0,0.0,0.0,0.0,0.0,0.0,0.0,0.0,0.0,0.0,0.0,0.0,0.0,0.0,0.0,0.0,0.0,0.0,0.0,0.0,0.0,0.0,0.0,0.0,0.0,0.0,0.0,0.0,0.0,0.0,0.0,0.0,0.0,0.0,-3.6164,-3.676,0.0,0.0,0.0,0.0,0.0,0.0,0.0,0.0,-3.9374,0.0,0.0,0.0,0.0,0.0,0.0,0.0,0.0,0.0,0.0,0.0,0.0,0.0,0.0,0.0,0.0,0.0,0.0,0.0,0.0,0.0,0.0,0.0,0.0,0.0,0.0,0.0,0.0,0.0,0.0,0.0,0.0,0.0,0.0,0.0,0.0,0.0,0.0,0.0,0.0,0.0,0.0,0.0,0.0,0.0,0.0,0.0,0.0,0.0,0.0,0.0,0.0,0.0,0.0,0.0,0.0,-4.1084,-4.2211,-4.353,-4.5029,-4.5231,-4.5151,-4.4781,-4.378,-4.234,-4.0463,0.0,0.0,0.0,0.0,0.0,0.0,0.0,0.0,0.0,0.0,0.0,0.0,0.0,0.0,0.0,0.0,0.0,0.0,0.0,0.0,0.0,0.0,0.0,0.0,0.0,0.0,0.0,0.0,0.0,0.0,0.0,0.0,0.0,0.0,0.0,0.0,0.0,0.0,0.0,-3.7987,-3.8299,0.0,0.0,0.0,0.0,0.0,0.0,0.0,0.0,-4.1046,0.0,0.0,0.0,0.0,0.0,0.0,0.0,0.0,0.0,0.0,0.0,0.0,0.0,0.0,0.0,0.0,0.0,0.0,0.0,0.0,0.0,0.0,0.0,0.0,0.0,0.0,0.0,0.0,0.0,0.0,0.0,0.0,0.0,0.0,0.0,0.0,0.0,0.0,0.0,0.0,0.0,0.0,0.0,0.0,0.0,0.0,0.0,0.0,0.0,0.0,0.0,0.0,0.0,0.0,0.0,-4.1457,-4.2775,-4.3954,-4.5007,-4.5034,-4.4838,-4.4383,-4.3456,-4.2046,0.0,0.0,0.0,0.0,0.0,0.0,0.0,0.0,0.0,0.0,0.0,0.0,0.0,0.0,0.0,0.0,0.0,0.0,0.0,0.0,0.0,0.0,0.0,0.0,0.0,0.0,0.0,0.0,0.0,0.0,0.0,0.0,0.0,0.0,0.0,0.0,0.0,0.0,0.0,0.0,-3.9253,-3.9734,-4.0547,0.0,0.0,0.0,0.0,0.0,0.0,-4.1417,-4.1387,0.0,0.0,0.0,0.0,0.0,0.0,0.0,0.0,0.0,0.0,0.0,0.0,0.0,0.0,0.0,0.0,0.0,0.0,0.0,0.0,0.0,0.0,0.0,0.0,0.0,0.0,0.0,0.0,0.0,0.0,0.0,0.0,0.0,0.0,0.0,0.0,0.0,0.0,0.0,0.0,0.0,0.0,0.0,0.0,0.0,0.0,0.0,0.0,0.0,0.0,0.0,0.0,0.0,0.0,0.0,-4.1714,-4.3223,-4.4263,-4.4762,-4.4788,-4.4552,-4.3999,-4.2998,-4.1566,0.0,0.0,0.0,0.0,0.0,0.0,0.0,0.0,0.0,0.0,0.0,0.0,0.0,0.0,0.0,0.0,0.0,0.0,0.0,0.0,0.0,0.0,0.0,0.0,0.0,0.0,0.0,0.0,0.0,0.0,0.0,0.0,0.0,0.0,0.0,0.0,0.0,0.0,0.0,0.0,0.0,-4.1127,-4.192,-4.118,0.0,0.0,0.0,0.0,-4.1469,-4.1645,0.0,0.0,0.0,0.0,0.0,0.0,0.0,0.0,0.0,0.0,0.0,0.0,0.0,0.0,0.0,0.0,0.0,0.0,0.0,0.0,0.0,0.0,0.0,0.0,0.0,0.0,0.0,0.0,0.0,0.0,0.0,0.0,0.0,0.0,0.0,0.0,0.0,0.0,0.0,0.0,0.0,0.0,0.0,0.0,0.0,0.0,0.0,0.0,0.0,0.0,0.0,0.0,0.0,0.0,0.0,0.0,-4.2485,-4.35,-4.4271,-4.4775,-4.4788,-4.4552,-4.3983,-4.246,-4.0767,0.0,0.0,0.0,0.0,0.0,0.0,0.0,0.0,0.0,0.0,0.0,0.0,0.0,0.0,0.0,0.0,0.0,0.0,0.0,0.0,0.0,0.0,0.0,0.0,0.0,0.0,0.0,0.0,0.0,0.0,0.0,0.0,0.0,0.0,0.0,0.0,0.0,0.0,0.0,0.0,0.0,-4.1955,-4.2763,-4.2064,-4.1418,0.0,0.0,-4.2397,-4.2143,-4.269,0.0,0.0,0.0,0.0,0.0,0.0,0.0,0.0,0.0,0.0,0.0,0.0,0.0,0.0,0.0,0.0,0.0,0.0,0.0,0.0,0.0,0.0,0.0,0.0,0.0,0.0,0.0,0.0,0.0,0.0,0.0,0.0,0.0,0.0,0.0,0.0,0.0,0.0,0.0,0.0,0.0,0.0,0.0,0.0,0.0,0.0,0.0,0.0,0.0,0.0,0.0,0.0,0.0,0.0,0.0,-4.0516,-4.2637,-4.3703,-4.4348,-4.4553,-4.443,-4.4147,-4.3732,-4.211,-4.048,0.0,0.0,0.0,0.0,0.0,0.0,0.0,0.0,0.0,0.0,0.0,0.0,0.0,0.0,0.0,0.0,0.0,0.0,0.0,0.0,0.0,0.0,0.0,0.0,0.0,0.0,0.0,0.0,0.0,0.0,0.0,0.0,0.0,0.0,0.0,0.0,0.0,0.0,0.0,0.0,0.0,0.0,-4.2833,-4.2508,0.0,0.0,0.0,-4.2294,-4.1824,0.0,0.0,0.0,0.0,0.0,0.0,0.0,0.0,0.0,0.0,0.0,0.0,0.0,0.0,0.0,0.0,0.0,0.0,0.0,0.0,0.0,0.0,0.0,0.0,0.0,0.0,0.0,0.0,0.0,0.0,0.0,0.0,0.0,0.0,0.0,0.0,0.0,0.0,0.0,0.0,0.0,0.0,0.0,0.0,0.0,0.0,0.0,0.0,0.0,0.0,0.0,0.0,0.0,0.0,0.0,0.0,0.0,-4.2509,-4.3774,-4.4374,-4.4308,-4.4124,-4.3846,-4.3495,-4.2139,0.0,0.0,0.0,0.0,0.0,0.0,0.0,0.0,0.0,0.0,0.0,0.0,0.0,0.0,0.0,0.0,0.0,0.0,0.0,0.0,0.0,0.0,0.0,0.0,0.0,0.0,0.0,-3.5791,0.0,0.0,0.0,0.0,0.0,0.0,0.0,0.0,0.0,0.0,0.0,0.0,0.0,0.0,-4.2805,-4.2784,-4.2876,-4.2948,0.0,0.0,-4.2373,-4.1824,-4.2484,-4.253,0.0,0.0,0.0,0.0,0.0,0.0,0.0,0.0,0.0,0.0,0.0,0.0,0.0,0.0,0.0,0.0,0.0,0.0,0.0,0.0,0.0,0.0,0.0,0.0,0.0,0.0,0.0,0.0,0.0,0.0,0.0,0.0,0.0,0.0,0.0,0.0,0.0,0.0,0.0,0.0,0.0,0.0,0.0,0.0,0.0,0.0,0.0,0.0,0.0,0.0,0.0,0.0,0.0,0.0,0.0,-4.214,-4.363,-4.426,-4.4033,-4.402,-4.3846,-4.3513,-4.2653,-4.1111,0.0,0.0,0.0,0.0,0.0,0.0,0.0,0.0,0.0,0.0,0.0,0.0,0.0,0.0,0.0,0.0,0.0,0.0,0.0,0.0,0.0,0.0,0.0,0.0,0.0,0.0,0.0,0.0,0.0,0.0,0.0,0.0,0.0,0.0,0.0,0.0,0.0,0.0,0.0,0.0,0.0,-4.2642,-4.2704,-4.3238,-4.3635,0.0,0.0,-4.3365,-4.2704,-4.3292,-4.314,-4.1123,0.0,0.0,0.0,0.0,0.0,0.0,0.0,0.0,0.0,0.0,0.0,0.0,0.0,0.0,0.0,0.0,0.0,0.0,0.0,0.0,0.0,0.0,0.0,0.0,0.0,0.0,0.0,0.0,0.0,0.0,0.0,0.0,0.0,0.0,0.0,0.0,0.0,0.0,0.0,0.0,0.0,0.0,0.0,0.0,0.0,0.0,0.0,0.0,0.0,0.0,0.0,0.0,0.0,-4.029,-4.2019,-4.3219,-4.3889,-4.3989,-4.3798,-4.3632,-4.3496,-4.2708,-4.1405,0.0,0.0,0.0,0.0,0.0,0.0,0.0,0.0,0.0,0.0,0.0,0.0,0.0,0.0,0.0,0.0,0.0,0.0,0.0,0.0,0.0,0.0,0.0,0.0,0.0,0.0,0.0,0.0,-3.7953,-3.8413,-3.8385,0.0,0.0,0.0,0.0,0.0,0.0,0.0,0.0,0.0,0.0,-4.2704,-4.3191,-4.334,0.0,0.0,-4.3195,-4.2706,-4.2329,-4.2498,-4.2106,-4.049,-4.0075,0.0,0.0,0.0,0.0,0.0,0.0,0.0,0.0,0.0,0.0,0.0,0.0,0.0,0.0,0.0,0.0,0.0,0.0,0.0,0.0,0.0,0.0,0.0,0.0,0.0,0.0,0.0,0.0,0.0,0.0,0.0,0.0,0.0,0.0,0.0,0.0,0.0,0.0,0.0,0.0,0.0,0.0,0.0,0.0,0.0,0.0,0.0,0.0,0.0,0.0,0.0,0.0,-4.008,-4.1791,-4.2934,-4.3615,-4.3828,-4.3615,-4.3479,-4.3461,-4.2947,-4.1901,0.0,0.0,0.0,0.0,0.0,0.0,0.0,0.0,0.0,0.0,0.0,0.0,0.0,0.0,0.0,0.0,0.0,0.0,0.0,0.0,0.0,0.0,0.0,0.0,0.0,0.0,0.0,0.0,-3.8775,-3.9147,-3.879,0.0,0.0,0.0,0.0,0.0,0.0,0.0,0.0,0.0,0.0,-4.2846,-4.312,-4.3388,-4.3533,-4.344,-4.3066,-4.2643,-4.2174,-4.2028,-4.1554,-4.0294,0.0,0.0,0.0,0.0,0.0,0.0,0.0,0.0,0.0,0.0,0.0,0.0,0.0,0.0,0.0,0.0,0.0,0.0,0.0,0.0,0.0,0.0,0.0,0.0,0.0,0.0,0.0,0.0,0.0,0.0,-3.5538,0.0,0.0,0.0,0.0,0.0,0.0,0.0,0.0,0.0,0.0,0.0,0.0,0.0,0.0,0.0,0.0,0.0,0.0,0.0,0.0,0.0,0.0,-3.9822,-4.1311,-4.2754,-4.3496,-4.3513,-4.3496,-4.3479,-4.3479,-4.3461,-4.2708,-4.1095,0.0,0.0,0.0,0.0,0.0,0.0,0.0,0.0,0.0,0.0,0.0,0.0,0.0,0.0,0.0,0.0,0.0,0.0,0.0,0.0,0.0,0.0,0.0,0.0,0.0,0.0,-3.8794,-3.9594,-3.9685,0.0,0.0,0.0,0.0,0.0,0.0,0.0,0.0,0.0,0.0,-4.2366,-4.3062,-4.2266,-4.3388,-4.3942,-4.317,-4.352,-4.3545,-4.2476,-4.218,-4.1735,0.0,0.0,0.0,0.0,0.0,0.0,0.0,0.0,0.0,0.0,0.0,0.0,0.0,0.0,0.0,0.0,0.0,0.0,0.0,0.0,0.0,0.0,0.0,0.0,0.0,0.0,0.0,-3.843,-3.8373,0.0,0.0,0.0,0.0,0.0,0.0,0.0,0.0,0.0,0.0,0.0,-4.1777,-4.1239,0.0,0.0,0.0,0.0,0.0,0.0,0.0,0.0,0.0,0.0,0.0,0.0,-3.973,-4.1217,-4.2739,-4.3479,-4.3479,-4.3479,-4.3479,-4.3479,-4.3479,-4.2745,-4.1132,0.0,0.0,0.0,0.0,0.0,0.0,0.0,0.0,0.0,0.0,0.0,0.0,0.0,0.0,0.0,0.0,0.0,0.0,0.0,0.0,0.0,0.0,0.0,0.0,0.0,-3.8766,0.0,0.0,0.0,0.0,0.0,0.0,0.0,0.0,0.0,0.0,0.0,-4.1055,-4.1529,-4.1512,-4.1492,-4.1726,-4.2017,-4.2511,0.0,0.0,0.0,0.0,0.0,0.0,0.0,0.0,0.0,0.0,0.0,0.0,0.0,0.0,-3.9738,-3.936,-3.9705,-4.0054,-4.0072,0.0,0.0,0.0,0.0,0.0,0.0,0.0,0.0,0.0,0.0,0.0,0.0,0.0,0.0,0.0,0.0,-3.9565,0.0,0.0,0.0,0.0,0.0,0.0,0.0,0.0,-4.1854,-4.272,-4.3489,-4.2931,-4.2681,0.0,-4.1811,-4.0809,0.0,0.0,0.0,0.0,0.0,0.0,0.0,0.0,-3.9644,-4.1156,-4.2705,-4.3479,-4.3479,-4.3479,-4.3479,-4.3479,-4.3479,-4.3002,-4.1974,-4.012,-3.8634,0.0,0.0,0.0,0.0,0.0,0.0,0.0,0.0,0.0,0.0,0.0,0.0,0.0,0.0,0.0,0.0,0.0,0.0,0.0,0.0,0.0,0.0,0.0,-3.9409,0.0,0.0,0.0,0.0,0.0,0.0,0.0,0.0,0.0,-4.0555,-4.0811,-4.1157,-4.1619,-4.1384,-4.1096,-4.1026,0.0,0.0,0.0,0.0,0.0,0.0,0.0,-4.1524,-4.0999,-4.0908,-4.0908,-4.0908,-4.0691,-4.0492,-4.0492,0.0,0.0,-4.005,-4.034,-4.0704,-4.0704,-4.0704,-4.0704,-4.0669,-4.0704,-4.0669,0.0,0.0,0.0,0.0,0.0,0.0,0.0,0.0,-4.1865,-4.1885,0.0,-4.1816,0.0,0.0,0.0,0.0,0.0,-4.0989,0.0,0.0,-4.4335,-4.5105,-4.4355,-4.4316,-4.4335,-4.4297,-4.3547,-4.3126,-4.2949,-4.1288,0.0,0.0,0.0,0.0,0.0,0.0,-3.9595,-4.1148,-4.2708,-4.3479,-4.3479,-4.3479,-4.3479,-4.3479,-4.3479,-4.3461,-4.3404,-4.1167,-3.99,-3.9827,-3.682,0.0,0.0,0.0,0.0,0.0,0.0,0.0,0.0,0.0,0.0,0.0,0.0,0.0,0.0,0.0,0.0,0.0,0.0,0.0,0.0,-3.9509,0.0,0.0,0.0,0.0,0.0,0.0,0.0,0.0,0.0,0.0,-4.0241,-4.0803,-4.1256,-4.1292,0.0,0.0,0.0,0.0,-4.2787,-4.1189,-4.2123,-4.2777,-4.2123,-4.1869,-4.1741,-4.1741,0.0,0.0,-4.1741,-4.1107,-4.0619,-4.0583,-4.1252,-4.1488,-4.0763,-4.0655,-4.0673,-4.0655,-4.0691,-4.0601,-4.0583,-4.0781,-4.0727,-4.3152,0.0,0.0,0.0,0.0,-4.1947,-4.2716,-4.3585,-4.3585,-4.3585,-4.3566,-4.297,0.0,0.0,0.0,0.0,0.0,0.0,-4.2442,-4.3605,-4.4335,-4.4874,-4.5229,-4.5229,-4.5229,-4.5229,-4.497,-4.4874,-4.4818,-4.4135,-4.2237,-3.9235,0.0,0.0,0.0,0.0,-4.0357,-4.1919,-4.2965,-4.3479,-4.3479,-4.3479,-4.3479,-4.3479,-4.3479,-4.3479,-4.3496,-4.1735,-4.0506,-3.99,-3.7918,0.0,0.0,0.0,0.0,0.0,0.0,0.0,0.0,0.0,0.0,0.0,0.0,0.0,0.0,0.0,0.0,0.0,0.0,0.0,-3.9989,-4.0234,-4.0025,0.0,0.0,0.0,0.0,0.0,0.0,0.0,0.0,0.0,-4.0635,-4.0414,-4.0509,0.0,0.0,-4.0465,-4.0527,-4.1097,-4.1721,-4.2341,0.0,0.0,0.0,-4.2955,-4.2556,-4.2556,-4.2556,-4.2556,-4.2556,-4.2394,-4.2194,-4.2194,-4.2393,-4.2466,-4.2266,-4.2212,-4.2194,-4.2212,-4.2212,-4.2194,-4.2212,-4.2212,-4.2157,-4.5915,-4.4909,-4.4073,-4.3506,-4.3204,-4.3632,-4.4227,-4.4905,-4.485,-4.4797,-4.4786,-4.4316,-4.3605,-4.2739,-4.1912,0.0,0.0,0.0,-4.3528,-4.4825,-4.4816,-4.5086,-4.5575,-4.5594,-4.5594,-4.5594,-4.5594,-4.5531,-4.5438,-4.4847,-4.3426,-4.1177,0.0,0.0,-3.9424,-4.0034,-4.102,-4.2268,-4.3094,-4.3479,-4.3479,-4.3479,-4.3479,-4.3479,-4.3479,-4.3479,-4.3478,-4.1956,-4.0857,-4.0377,-3.8539,-3.7033,0.0,0.0,0.0,0.0,0.0,0.0,0.0,0.0,0.0,0.0,0.0,-3.5037,-3.5115,0.0,0.0,0.0,-3.8894,-3.9874,-4.0139,-4.0045,0.0,0.0,0.0,0.0,0.0,0.0,0.0,-3.9436,-4.054,-4.1161,-4.0671,-4.0336,-4.0437,-4.1224,-4.081,-4.0505,-4.065,0.0,-4.1814,-4.2449,-4.234,-4.252,-4.3462,-4.3227,-4.2919,-4.2919,-4.2919,-4.2919,-4.2919,-4.2919,-4.2919,-4.2919,-4.2919,-4.2919,-4.2919,-4.2919,-4.2919,-4.2919,-4.2919,-4.2919,-4.2919,-4.2768,-4.2575,-4.8925,-4.8708,-4.5467,-4.4468,-4.4978,-4.4849,-4.5196,-4.5773,-4.5632,-4.5594,-4.5594,-4.5594,-4.5152,-4.4355,-4.3624,0.0,-4.4393,-4.4412,-4.4825,-4.5594,-4.5594,-4.5594,-4.5594,-4.5594,-4.5594,-4.5594,-4.5596,-4.5457,-4.5152,-4.4167,-4.3498,-4.3147,-4.2296,-4.1285,-4.0283,-4.0868,-4.1589,-4.2396,-4.313,-4.3479,-4.3479,-4.3479,-4.3479,-4.3479,-4.3479,-4.3479,-4.3442,-4.1956,-4.1113,-4.1022,-3.8854,-3.7566,-3.7456,0.0,0.0,0.0,0.0,0.0,0.0,0.0,0.0,0.0,0.0,0.0,0.0,0.0,0.0,0.0,-3.9904,0.0,-3.9783,-3.9503,0.0,0.0,0.0,-4.0035,-4.0682,-4.0777,-4.076,-4.0688,0.0,0.0,-4.0601,0.0,-4.0981,-4.1687,-4.1723,-4.1451,-4.0782,-4.1959,-4.2629,-4.1995,-4.2429,-4.2901,-4.2955,-4.2918,-4.2919,-4.2919,-4.2919,-4.2919,-4.2919,-4.2919,-4.2919,-4.2919,-4.2919,-4.2919,-4.2919,-4.2919,-4.2919,-4.2919,-4.2863,-4.2843,-4.2806,-4.2458,-4.2095,-4.9257,-4.97,-4.827,-4.7329,-4.6775,-4.6625,-4.6286,-4.5793,-4.5651,-4.5594,-4.5594,-4.5594,-4.5498,-4.5267,-4.5094,-4.5114,-4.5306,-4.5306,-4.5402,-4.5594,-4.5594,-4.5594,-4.5594,-4.5594,-4.5594,-4.5586,-4.54,-4.5251,-4.5096,-4.4461,-4.4018,-4.3763,-4.3373,-4.2703,-4.1869,-4.1952,-4.2415,-4.3204,-4.3404,-4.3479,-4.3479,-4.3479,-4.3479,-4.3479,-4.3479,-4.3479,-4.3461,-4.1974,-4.1113,-4.1058,-3.9386,-3.8138,-3.7511,-3.6556,0.0,0.0,0.0,0.0,0.0,0.0,0.0,0.0,0.0,-3.5991,-3.5991,0.0,-3.8334,0.0,-4.0099,-4.1122,-4.1594,-4.1521,0.0,0.0,-4.0533,-4.0486,-4.0581,-4.1107,-4.1216,-4.0618,-4.1597,-4.2085,-4.1488,-4.1959,-4.2393,-4.2574,-4.2085,-4.1868,-4.2266,-4.2629,-4.2828,-4.2665,-4.2774,-4.2919,-4.2919,-4.2919,-4.2919,-4.2919,-4.2919,-4.2919,-4.2919,-4.2919,-4.2919,-4.2919,-4.2919,-4.2919,-4.2919,-4.2919,-4.2919,-4.2863,-4.2596,-4.2378,-4.2358,-4.1909,-4.1459,-5.0058,-5.0095,-4.9643,-4.8909,-4.804,-4.7849,-4.7264,-4.6429,-4.6262,-4.596,-4.5594,-4.5594,-4.5594,-4.5594,-4.5594,-4.5594,-4.5594,-4.5594,-4.5594,-4.5594,-4.5594,-4.5594,-4.5586,-4.5485,-4.541,-4.5362,-4.5096,-4.4872,-4.4688,-4.4323,-4.405,-4.382,-4.3647,-4.3327,-4.2923,-4.2835,-4.3057,-4.3479,-4.3479,-4.3479,-4.3479,-4.3479,-4.3332,-4.2965,-4.2965,-4.2616,-4.1936,-4.0689,-3.9848,-3.9478,-3.8303,-3.7422,-3.6978,-3.6174,-3.55,0.0,0.0,0.0,0.0,0.0,0.0,0.0,0.0,0.0,0.0,0.0,-3.9386,-3.9719,-4.091,-4.1664,-4.1686,-4.1603,-4.1499,-4.1302,-4.1197,-4.1252,-4.1542,-4.1959,-4.2067,-4.1633,-4.2357,-4.2756,-4.2303,-4.2629,-4.2919,-4.2919,-4.252,-4.2393,-4.281,-4.2919,-4.2919,-4.2919,-4.2919,-4.2919,-4.2919,-4.2919,-4.2919,-4.2919,-4.2919,-4.2919,-4.2919,-4.2919,-4.2919,-4.2919,-4.2919,-4.2919,-4.2919,-4.2919,-4.2844,-4.2518,-4.2118,-4.1909,-4.2038,-4.1525,-4.0914,-5.0918,-5.0175,-5.0132,-4.962,-4.8852,-4.8611,-4.8055,-4.7365,-4.7132,-4.6567,-4.5787,-4.5768,-4.571,-4.5594,-4.5594,-4.5594,-4.5594,-4.5594,-4.5594,-4.5594,-4.5549,-4.5559,-4.555,-4.5263,-4.5107,-4.5052,-4.4788,-4.4511,-4.4192,-4.4035,-4.3855,-4.3599,-4.3513,-4.346,-4.3349,-4.3332,-4.3404,-4.3479,-4.3423,-4.3349,-4.3368,-4.324,-4.2855,-4.2194,-4.2047,-4.1332,-3.9955,-3.9019,-3.823,-3.7529,-3.674,-3.634,-3.6413,-3.5646,-3.5224,0.0,-3.4559,0.0,0.0,0.0,0.0,0.0,0.0,0.0,0.0,-3.9182,-4.0377,-4.1168,-4.1882,-4.2014,-4.1272,-4.1151,-4.1375,-4.1978,-4.1923,-4.214,-4.2792,-4.2919,-4.2919,-4.2919,-4.2919,-4.2919,-4.2883,-4.2919,-4.2919,-4.2919,-4.2883,-4.2865,-4.2882,-4.2919,-4.2919,-4.2919,-4.2919,-4.2919,-4.2919,-4.2919,-4.2919,-4.2919,-4.2919,-4.2919,-4.2919,-4.2919,-4.2919,-4.29,-4.2825,-4.2787,-4.2806,-4.275,-4.2537,-4.2038,-4.1573,-4.137,-4.1573,-4.1053,-4.0407,-5.0898,-5.0112,-5.011,-4.9596,-4.8816,-4.8597,-4.8405,-4.8252,-4.7993,-4.7413,-4.6663,-4.6663,-4.6259,-4.5614,-4.5594,-4.5594,-4.5594,-4.5594,-4.5594,-4.5586,-4.5362,-4.5263,-4.5253,-4.4988,-4.4861,-4.4837,-4.4585,-4.436,-4.4192,-4.3958,-4.3734,-4.3513,-4.3515,-4.3149,-4.2561,0.0,0.0,0.0,-4.2855,-4.2525,-4.2506,-4.1901,-4.148,-4.1315,-4.0689,0.0,-3.9863,-3.8502,-3.7658,-3.7492,-3.6743,0.0,0.0,0.0,0.0,0.0,0.0,0.0,0.0,0.0,0.0,0.0,-3.7955,-3.8579,-3.9386,-4.0322,-4.1222,-4.1992,-4.2231,-4.2472,-4.2881,-4.283,-4.2796,-4.285,-4.2739,-4.2737,-4.2882,-4.2919,-4.2919,-4.2919,-4.2919,-4.2919,-4.2919,-4.2919,-4.2919,-4.2919,-4.2919,-4.2919,-4.2919,-4.2919,-4.2919,-4.2919,-4.2919,-4.2919,-4.2919,-4.2919,-4.2919,-4.2919,-4.2919,-4.2919,-4.2919,-4.2919,-4.2919,-4.29,-4.2577,-4.234,-4.2338,-4.2035,-4.1785,-4.1613,-4.1213,-4.0855,-4.072,-4.017,-3.9703,-5.0312,0.0,-4.9037,-4.8828,0.0,-4.8574,-4.8947,-4.9575,-4.8133,-4.7298,-4.6932,-4.7317,-4.7048,-4.624,-4.624,-4.6009,-4.5594,-4.5594,-4.5594,-4.5586,-4.5476,-4.5322,-4.5191,-4.4919,-4.4714,-4.4533,-4.4279,-4.4109,-4.3986,-4.3442,-4.3111,-4.2941,-4.2573,-4.2134,-4.1717,-4.1701,-4.1919,-4.2304,-4.1919,-4.1717,-4.1682,-4.1297,-4.0912,-4.0524,0.0,0.0,0.0,0.0,0.0,0.0,0.0,0.0,0.0,0.0,0.0,-3.6886,-3.6538,-3.6468,-3.6868,-3.7257,-3.801,-3.9203,-4.0396,-4.1056,-4.1075,-4.1827,-4.2451,-4.2837,-4.2858,-4.2972,-4.3268,-4.3215,-4.3105,-4.3012,-4.2938,-4.2919,-4.2919,-4.2919,-4.2919,-4.2919,-4.2919,-4.2919,-4.2919,-4.2919,-4.2919,-4.2919,-4.2919,-4.2919,-4.2919,-4.2919,-4.2919,-4.2919,-4.2919,-4.2919,-4.2919,-4.2919,-4.2919,-4.2919,-4.2919,-4.2919,-4.2919,-4.2919,-4.2919,-4.2863,-4.2518,-4.2216,-4.2157,-4.1825,-4.1415,-4.1122,-4.0861,-4.0563,-4.0162,-3.9816,-3.9563,-4.9902,-4.9042,-4.8355,-4.8298,-4.8716,-4.8565,-4.922,-5.0259,0.0,0.0,0.0,-4.8048,-4.7875,-4.7115,-4.7124,-4.6644,-4.5845,-4.5825,-4.574,-4.5586,-4.5559,-4.5371,-4.5118,-4.4849,-4.4578,-4.425,-4.3887,-4.3661,-4.3562,-4.2749,-4.2295,-4.2157,-4.1551,-4.1101,-4.091,-4.0875,-4.0875,-4.091,-4.1022,-4.1022,-4.0893,-4.0875,-4.0506,-3.9698,-3.9567,-3.8869,-3.7547,-3.7364,-3.6978,-3.634,-3.6285,-3.6376,-3.6505,-3.6505,-3.6578,-3.6707,-3.6725,-3.7,-3.7676,-3.8322,-3.9389,-4.0985,-4.258,-4.3204,-4.2543,-4.313,-4.3479,-4.3479,-4.3446,-4.334,-4.3214,-4.3142,-4.3049,-4.2919,-4.2919,-4.2919,-4.2919,-4.2919,-4.2919,-4.2919,-4.2919,-4.2919,-4.2919,-4.2919,-4.2919,-4.2919,-4.2919,-4.2919,-4.2919,-4.2919,-4.2919,-4.2919,-4.2919,-4.2919,-4.2919,-4.2919,-4.2919,-4.2919,-4.2919,-4.2919,-4.2919,-4.2919,-4.2919,-4.2919,-4.2476,-4.2115,-4.2032,-4.1587,-4.1099,-4.0618,-4.0497,-4.0368,-3.9893,-3.9729,-3.9651,-5.0722,-4.9916,-4.9797,-4.9379,-4.8767,-4.8569,-4.8495,-4.8575,-4.9682,-4.974,-4.9067,-4.9183,-4.8759,-4.7932,-4.7932,-4.7509,-4.6731,-4.6712,-4.6336,0.0,-4.5371,-4.5107,-4.4837,-4.4585,-4.4303,-4.3992,-4.328,-4.2922,-4.277,-4.2014,-4.1595,-4.1464,-4.1291,-4.0822,-4.0136,-4.0065,-4.0065,-4.01,-4.0747,-4.0763,-4.0084,-4.0065,-3.968,-3.8891,-3.8227,-3.7749,-3.7511,-3.6868,-3.6427,-3.6321,-3.6285,-3.6615,-3.7272,-3.7345,-3.7639,-3.8303,-3.8358,-3.8414,-3.8505,-3.8652,-3.9405,-4.0985,-4.258,-4.3442,-4.3332,-4.3441,-4.3479,-4.3479,-4.3428,-4.334,-4.3214,-4.3123,-4.3049,-4.2938,-4.2919,-4.2919,-4.2919,-4.2919,-4.2919,-4.2919,-4.2919,-4.2919,-4.2919,-4.2919,-4.2919,-4.2919,-4.2919,-4.2919,-4.2919,-4.2919,-4.2919,-4.2919,-4.2919,-4.2919,-4.2919,-4.2919,-4.2919,-4.2919,-4.2919,-4.29,-4.2844,-4.29,-4.2881,-4.2863,-4.218,-4.1678,-4.1591,-4.0879,-4.0434,-4.0204,-4.0204,-4.0121,-3.991,-3.9875,-3.9798,-5.0527,-5.0096,-4.9643,-4.9453,-4.9471,-4.9704,-4.9684,-4.9577,-5.0346,-5.0212,-4.949,-4.9894,-4.9606,-4.8836,-4.8817,-4.8336,-4.7548,-4.7567,-4.7105,-4.6327,-4.6186,-4.5722,-4.5,-4.4278,-4.3821,-4.3511,-4.2608,-4.2132,-4.2013,-4.129,-4.0819,-4.0692,-4.0631,-4.0385,-4.0059,-4.0483,-4.0688,-4.0604,-4.0944,-4.0928,-4.0561,-4.012,-3.9735,-3.935,-3.856,-3.8138,-3.8138,-3.779,-3.7606,-3.7606,-3.7606,-3.7771,-3.812,-3.8138,-3.8227,-3.8364,-3.858,-3.8611,-3.8403,-3.898,-3.9949,-4.1317,-4.2066,-4.2775,-4.3461,-4.3479,-4.3479,-4.3479,-4.3375,-4.3269,-4.3214,-4.3068,-4.2975,-4.2919,-4.2919,-4.2919,-4.2919,-4.2919,-4.2919,-4.2919,-4.2919,-4.2919,-4.2919,-4.2919,-4.2919,-4.2919,-4.2919,-4.2919,-4.2919,-4.2919,-4.2919,-4.2919,-4.2919,-4.2919,-4.2919,-4.2919,-4.2919,-4.2919,-4.2919,-4.2787,-4.2634,-4.2691,-4.2673,-4.2239,-4.1743,-4.1437,-4.1208,-4.0587,-4.0196,-4.0113,-4.0113,-4.0062,-4.0011,-3.9977,-3.9849,-5.0469,-5.039,-4.9742,-4.978,-5.03,-5.0718,-5.0863,-5.074,-5.0712,-5.0317,-4.9837,-5.0423,-5.0327,-4.974,-4.9683,-4.9202,-4.849,-4.8394,-4.7952,-4.7212,-4.6981,-4.6311,-4.5182,-4.414,-4.3402,-4.2852,-4.1894,-4.1365,-4.1252,-4.0494,-4.0154,-4.0196,-4.0322,-4.0403,-4.0403,-4.1253,-4.1628,-4.153,-4.1652,-4.1511,-4.1095,-4.0653,-4.0283,-3.9863,-3.9294,-3.8909,-3.8726,-3.8707,-3.8707,-3.8692,-3.8611,-3.8546,-3.8564,-3.8483,-3.8303,-3.8034,-3.8352,-3.8483,-3.8322,-3.9262,-4.0317,-4.1213,-4.1596,-4.2194,-4.3096,-4.3404,-4.3479,-4.3462,-4.3358,-4.3251,-4.3196,-4.305,-4.2938,-4.2919,-4.2919,-4.2919,-4.2919,-4.2919,-4.2919,-4.2919,-4.2919,-4.2919,-4.2919,-4.2919,-4.2919,-4.2919,-4.2919,-4.2919,-4.2919,-4.2919,-4.2919,-4.2919,-4.2919,-4.2919,-4.29,-4.2787,-4.2731,-4.2731,-4.2596,-4.238,-4.2177,-4.236,-4.234,-4.17,-4.1415,-4.1208,-4.0849,-4.0427,-4.0163,-4.0113,-4.0113,-4.0113,-4.0087,-4.0011,-3.9901,-5.1269,-5.1288,-5.1131,-5.1132,-5.1057,-5.1026,-5.094,-5.0855,-5.0749,-5.0693,-5.0558,-5.0673,-5.0654,-5.0596,-5.0558,-5.0077,-4.9298,-4.9279,-4.8798,-4.7923,-4.7231,-4.6311,-4.5145,-4.4234,-4.3232,-4.2051,-4.1171,-4.0689,-4.0481,-3.9672,-3.9579,-4.023,-4.0974,-4.1332,-4.1397,-4.21,-4.2472,-4.2474,-4.3178,-4.2748,-4.124,-4.1754,-4.1405,-3.9918,-3.9827,-3.9441,-3.8799,-3.8707,-3.8707,-3.8676,-3.8368,-3.8168,-3.8135,-3.7844,-3.7614,-3.7578,-3.7948,-3.8285,-3.8632,-3.9444,-3.9939,-4.0143,-4.1359,-4.2164,-4.2433,-4.3057,-4.3479,-4.3388,-4.3392,-4.3323,-4.3214,-4.3123,-4.3012,-4.2938,-4.2919,-4.2919,-4.2919,-4.2919,-4.2919,-4.2919,-4.281,-4.2901,-4.2737,-4.272,-4.2774,-4.2647,-4.2592,-4.2611,-4.2629,-4.2629,-4.2666,-4.2774,-4.2865,-4.2829,-4.2773,-4.2518,-4.2291,-4.2226,-4.1931,-4.1721,-4.17,-4.1656,-4.1547,-4.1343,-4.1139,-4.0879,-4.0707,-4.0434,-4.0138,-4.0113,-4.0113,-4.0113,-4.0113,-4.0087,-4.0011,-5.1387,-5.1386,-5.1386,-5.133,-5.1184,-5.105,-5.0978,-5.0898,-5.0748,-5.0683,-5.0683,-5.0683,-5.0683,-5.0683,-5.0683,-5.0481,-5.0173,-5.0173,-4.9394,-4.8105,-4.7278,-4.6118,-4.4623,-4.3111,-4.211,-4.1536,-4.0495,-3.9939,-3.9805,-3.9346,-3.9514,-4.0321,-4.1156,-4.1772,-4.2242,-4.3021,-4.3397,-4.3368,-4.3701,-4.3469,-4.2783,-4.2459,-4.2057,-4.1358,-4.0409,-3.9772,-3.9405,-3.8964,-3.8707,-3.8692,-3.853,-3.8467,-3.8467,-3.8285,-3.8101,-3.7896,-3.8017,-3.8168,-3.8352,-3.8873,-3.9307,-3.9515,-4.0119,-4.0752,-4.1521,-4.2081,-4.2302,-4.2217,-4.2861,-4.3376,-4.3286,-4.3196,-4.3086,-4.303,-4.2938,-4.2882,-4.2919,-4.2882,-4.2737,-4.2303,-4.2194,-4.1976,-4.1596,-4.147,-4.1488,-4.1488,-4.1488,-4.1542,-4.1488,-4.1488,-4.1488,-4.1488,-4.1488,-4.1723,-4.1993,-4.1778,-4.164,-4.1769,-4.1689,-4.1503,-4.1459,-4.1503,-4.1388,-4.0832,-4.0754,-4.0635,-4.0385,-4.0279,-4.0113,-4.0113,-4.0113,-4.0113,-4.0113,-4.0113,-4.0045,-5.1074,-5.1113,-5.1288,-5.1339,-5.1243,-5.1125,-5.1009,-5.0919,-5.0805,-5.074,-5.0693,-5.0683,-5.0683,-5.0683,-5.0683,-5.0683,-5.0673,-5.0462,-4.9683,-4.8375,-4.7163,-4.5759,-4.4203,-4.2306,-4.1256,-4.0851,-3.9981,-3.9477,-3.9407,-3.9503,-3.9788,-4.0453,-4.1404,-4.211,-4.25,-4.3262,-4.3528,-4.3262,-4.3262,-4.3233,-4.3042,-4.2463,-4.2193,-4.2271,-4.1229,-4.0391,-3.99,-3.935,-3.8909,-3.8726,-3.8596,-3.8549,-3.853,-3.8433,-3.8236,-3.7982,-3.793,-3.793,-3.793,-3.8219,-3.8507,-3.8794,-3.8923,-3.9443,-4.0324,-4.1071,-4.1324,-4.1286,-4.2412,-4.3141,-4.2577,-4.2304,-4.2136,-4.2098,-4.2003,-4.1927,-4.1853,-4.1909,-4.1619,-4.1134,-4.0967,-4.0846,-4.0362,-4.0291,-4.04,-4.0271,-4.0309,-4.0238,-4.02,-4.018,-4.018,-4.0146,-4.0019,-4.0218,-4.0959,-4.0796,-4.0772,-4.091,-4.0889,-4.0735,-4.1029,-4.1116,-4.1071,-4.0458,-4.0531,-4.0507,-4.0279,-4.0146,-4.0062,-4.0096,-4.0062,-4.0011,-4.0113,-4.0096,-4.0096,-5.0254,-5.0371,-5.1074,-5.1386,-5.1383,-5.1234,-5.1097,-5.0992,-5.0912,-5.0822,-5.0702,-5.0683,-5.0683,-5.0635,-5.0616,-5.0673,-5.0558,-4.9817,-4.9356,-4.8875,-4.673,-4.5171,-4.4192,-4.2345,-4.0872,-4.0081,-3.9731,-3.9383,-3.9193,-3.9895,-4.0346,-4.049,-4.1813,-4.2296,-4.1906,-4.2482,-4.2463,-4.1943,-4.1872,-4.175,-4.1659,-4.1505,-4.1725,-4.2251,-4.2235,-4.134,-4.0063,-3.9827,-3.9441,-3.8692,-3.8298,-3.8117,-3.8101,-3.7791,-3.7596,-3.756,-3.7542,-3.7542,-3.756,-3.7614,-3.7649,-3.7721,-3.8348,-3.8759,-3.9031,-4.0252,-4.0952,-4.1053,-4.1938,-4.2104,-4.08,-4.0558,-4.0157,-3.9946,-3.9696,-3.9673,-3.9614,-3.9899,-3.952,-3.9496,-3.9565,-3.9518,-3.9378,-3.9702,-3.966,-3.9524,-3.9672,-3.9755,-3.9434,-3.9363,-3.9365,-3.9226,-3.8905,-3.8636,-3.9622,-3.958,-3.9483,-3.9826,-3.9914,-3.9555,-3.9857,-4.0146,-4.0129,-4.0146,-4.0221,-4.0221,-4.0121,-4.0062,-3.9977,-3.9926,-3.9791,-3.9791,-3.9554,-3.9926,-3.9859,-4.9687,-5.0273,-5.1074,-5.1387,-5.1386,-5.1263,-5.1135,-5.1049,-5.0946,-5.083,-5.0702,-5.0693,-5.0375,-4.9885,-4.9856,-4.9875,-4.9779,-4.8971,-4.8298,-4.7625,-4.5701,-4.4316,-4.3385,-4.1673,-4.0593,-4.0109,-3.9805,-3.947,-3.9142,-3.9435,-3.9863,-4.0397,-4.094,-4.133,-4.159,-4.1869,-4.1869,-4.1627,-4.1564,-4.1534,-4.1512,-4.1425,-4.1496,-4.1649,-4.1096,-4.0297,-3.9184,-3.8634,-3.8117,-3.7569,-3.7406,-3.7458,-3.7684,-3.7596,-3.7505,-3.7505,-3.7505,-3.7505,-3.7505,-3.7505,-3.7505,-3.7541,-3.799,-3.8294,-3.8543,-3.9513,-4.0141,-3.9853,-4.013,-4.0021,-3.9552,-4.004,-4.0511,-3.9731,-3.9464,-3.9411,-3.9642,-3.9665,-3.9603,-3.9349,-3.8958,-3.8599,-3.8597,-3.8726,-3.8762,-3.8636,-3.8726,-3.8708,-3.8636,-3.8599,-3.8542,-3.8545,-3.8366,-3.8095,-3.7817,-3.8076,-3.8261,-3.8967,-3.9319,-3.9675,-4.0019,-3.9934,-3.9926,-3.9816,-3.9859,-3.9842,-3.974,-3.9445,-3.9445,-3.9326,-3.9225,-3.9022,-3.8684,-3.8988,-3.892,-4.9824,-5.0605,-5.1152,-5.1387,-5.1387,-5.1317,-5.1216,-5.1128,-5.1025,-5.0757,-5.0405,-5.0342,-4.9843,-4.9038,-4.8721,-4.8586,-4.8529,-4.7971,-4.7278,-4.6374,-4.4701,-4.3489,-4.2538,-4.1133,-4.033,-4.0177,-3.9867,-3.9482,-3.9137,-3.9101,-3.9398,-3.9937,-4.0234,-4.0494,-4.0791,-4.107,-4.1107,-4.0851,-4.0752,-4.0733,-4.0748,-4.0659,-4.0584,-4.0446,-3.9896,-3.9436,-3.9074,-3.8319,-3.7607,-3.715,-3.6864,-3.6937,-3.7443,-3.7517,-3.7557,-3.7667,-3.7703,-3.7632,-3.7505,-3.7395,-3.7284,-3.7284,-3.7414,-3.7523,-3.7595,-3.851,-3.8743,-3.8563,-3.8959,-3.8958,-3.8489,-3.9456,-4.0027,-3.9061,-3.8764,-3.8764,-3.894,-3.8903,-3.8768,-3.8489,-3.8079,-3.7811,-3.7774,-3.7793,-3.7739,-3.7613,-3.7577,-3.7541,-3.7394,-3.7357,-3.7357,-3.7357,-3.7278,-3.6989,-3.6768,-3.6806,-3.7173,-3.7842,-3.8334,-3.8995,-3.9566,-3.9559,-3.9528,-3.9469,-3.9411,-3.9394,-3.9225,-3.892,-3.8734,-3.8616,-3.8514,-3.8345,-3.8142,-3.8024,-3.8041,-5.0625,-5.123,-5.1387,-5.1387,-5.1387,-5.1387,-5.132,-5.1121,-5.1093,-5.0494,-4.9671,-4.9584,-4.9045,-4.8121,-4.7489,-4.7009,-4.6855,-4.675,-4.6336,-4.547,-4.3855,-4.2681,-4.1857,-4.0799,-4.0232,-4.0167,-3.9736,-3.9383,-3.9137,-3.9137,-3.9198,-3.9319,-3.9937,-3.9937,-3.9175,-3.9993,-3.9993,-3.9491,-3.9347,-3.9245,-3.9026,-3.9197,-3.9209,-3.9076,-3.8929,-3.9148,-3.9748,-3.8943,-3.8046,-3.7356,-3.6626,-3.6655,-3.7128,-3.7228,-3.7544,-3.7713,-3.7928,-3.779,-3.7451,-3.7094,-3.69,-3.688,-3.6597,-3.6574,-3.6742,-3.7283,-3.7707,-3.781,-3.8447,-3.8746,-3.7833,-3.8058,-3.8123,-3.7424,-3.7283,-3.7185,-3.7156,-3.7029,-3.6954,-3.7068,-3.7054,-3.6939,-3.6919,-3.7036,-3.6995,-3.6719,-3.6597,-3.6516,-3.6329,-3.6249,-3.5832,-3.5854,-3.6228,-3.6437,-3.6028,-3.569,-3.6152,-3.6655,-3.7029,-3.7549,-3.8279,-3.8514,-3.8606,-3.8548,-3.8582,-3.8565,-3.8531,-3.8227,-3.7973,-3.7838,-3.7753,-3.7584,-3.7358,-3.7222,-3.7432,-5.0351,-5.0644,-5.1172,-5.1387,-5.1387,-5.1387,-5.1028,-5.0403,-5.0382,-4.9772,-4.896,-4.8787,-4.8234,-4.7469,-4.699,-4.6247,-4.5163,-4.5105,-4.4951,-4.4432,-4.2989,-4.2077,-4.1646,-4.0836,-4.0339,-4.0167,-3.987,-3.9578,-3.9395,-3.9363,-3.9298,-3.9198,-3.9361,-3.9361,-3.912,-3.9361,-3.9324,-3.9157,-3.9045,-3.905,-3.9045,-3.8979,-3.8935,-3.8968,-3.891,-3.9014,-3.9131,-3.7857,-3.6927,-3.6416,-3.5637,-3.532,-3.55,-3.535,-3.5506,-3.6041,-3.6108,-3.6313,-3.6629,-3.658,-3.6498,-3.6516,-3.6618,-3.6736,-3.6759,-3.7187,-3.75,-3.7501,-3.7848,-3.7831,-3.7614,-3.76,-3.7399,-3.6615,-3.6392,-3.6457,-3.6661,-3.6783,-3.688,-3.69,-3.69,-3.69,-3.69,-3.69,-3.6821,-3.6698,-3.662,-3.6536,-3.6495,-3.6308,-3.6498,-3.6498,-3.6474,-3.6241,-3.6049,-3.5915,-3.611,-3.6322,-3.6469,-3.662,-3.7246,-3.7543,-3.7611,-3.7645,-3.7679,-3.7702,-3.7669,-3.7516,-3.7229,-3.6941,-3.6755,-3.6569,-3.6377,-3.6417,-3.6518,-5.0623,-5.0703,-5.1191,-5.1211,-5.0976,-5.0957,-5.0427,-4.967,-4.9589,-4.9033,-4.8226,-4.8034,-4.7474,-4.6622,-4.6159,-4.5368,-4.4303,-4.3709,-4.3374,-4.3258,-4.2385,-4.1662,-4.1316,-4.0796,-4.0319,-4.0053,-3.9872,-3.963,-3.9344,-3.935,-3.9253,-3.911,-3.9101,-3.9101,-3.9101,-3.9101,-3.9101,-3.9101,-3.9045,-3.9045,-3.9073,-3.9017,-3.8993,-3.9021,-3.8964,-3.895,-3.8872,-3.7373,-3.6366,-3.5984,-3.508,-3.4492,-3.4514,-3.4464,-3.4622,-3.5124,-3.5278,-3.5434,-3.585,-3.6192,-3.6339,-3.6416,-3.6839,-3.7132,-3.717,-3.7414,-3.7505,-3.7505,-3.7523,-3.7505,-3.7505,-3.7505,-3.7227,-3.6776,-3.6638,-3.6557,-3.6698,-3.6838,-3.7034,-3.7094,-3.7133,-3.7114,-3.7132,-3.6976,-3.6858,-3.6739,-3.6519,-3.6416,-3.6416,-3.6354,-3.6433,-3.6516,-3.6433,-3.6305,-3.6284,-3.6199,-3.6152,-3.6163,-3.6146,-3.626,-3.658,-3.6648,-3.6698,-3.6648,-3.6664,-3.6631,-3.6597,-3.6535,-3.6315,-3.6045,-3.5808,-3.5757,-3.5639,-3.5368,-3.5334,-5.1296,-5.1328,-5.1308,-5.082,-5.0176,-5.0137,-4.9609,-4.8906,-4.8808,-4.8275,-4.7479,-4.7285,-4.6761,-4.5782,-4.5114,-4.4508,-4.4055,-4.2725,-4.1978,-4.1873,-4.1604,-4.1277,-4.0689,-4.0554,-4.0311,-3.9974,-3.9872,-3.9606,-3.9279,-3.9251,-3.9115,-3.9101,-3.9101,-3.9101,-3.9101,-3.9101,-3.9101,-3.9101,-3.9101,-3.9101,-3.9101,-3.9101,-3.9101,-3.9101,-3.905,-3.9036,-3.8855,-3.7502,-3.6504,-3.6159,-3.4739,-3.4101,-3.4253,-3.4422,-3.463,-3.5128,-3.5164,-3.5099,-3.5294,-3.5651,-3.6041,-3.6076,-3.6536,-3.729,-3.6965,-3.6821,-3.6859,-3.6912,-3.6984,-3.7128,-3.7163,-3.718,-3.716,-3.7359,-3.7113,-3.7073,-3.7013,-3.6954,-3.6917,-3.717,-3.7377,-3.7395,-3.719,-3.6939,-3.6638,-3.6388,-3.6023,-3.5827,-3.5783,-3.5827,-3.5689,-3.5827,-3.6114,-3.6241,-3.6199,-3.6284,-3.6216,-3.6204,-3.6103,-3.6055,-3.6034,-3.6005,-3.6022,-3.5938,-3.5785,-3.5701,-3.56,-3.5571,-3.5419,-3.5148,-3.503,-3.503,-3.4844,-3.4556,-3.4353,-5.0931,-5.0394,-5.0487,-5.0019,-4.9316,-4.9238,-4.875,-4.7988,-4.793,-4.7441,-4.6732,-4.6532,-4.6274,-4.5846,-4.4927,-4.4175,-4.3312,-4.2333,-4.1443,-4.092,-4.0854,-4.0746,-4.0535,-4.0496,-4.043,-4.0266,-4.012,-3.9922,-3.9618,-3.9446,-3.9285,-3.9101,-3.9101,-3.9101,-3.9101,-3.9082,-3.9101,-3.9101,-3.9082,-3.9045,-3.9027,-3.9027,-3.9101,-3.9101,-3.9036,-3.9036,-3.8934,-3.7546,-3.6029,-3.4878,-3.4242,-3.3812,-3.3756,-3.3679,-3.3859,-3.425,-3.416,-3.42,-3.4586,-3.4736,-3.4727,-3.4704,-3.512,-3.4983,-3.4983,-3.502,-3.5,-3.5,-3.5,-3.5322,-3.5719,-3.59,-3.6088,-3.6551,-3.6812,-3.677,-3.643,-3.6212,-3.6174,-3.6241,-3.6228,-3.6395,-3.6536,-3.6371,-3.6135,-3.6174,-3.5915,-3.5616,-3.5616,-3.5616,-3.5616,-3.5616,-3.5805,-3.6002,-3.6135,-3.6241,-3.6284,-3.628,-3.6131,-3.5924,-3.5812,-3.565,-3.5684,-3.5667,-3.5363,-3.5211,-3.4962,-3.4776,-3.4523,-3.4332,-3.4167,-3.4117,-3.3931,-3.3672,-3.3643,-5.0223,-4.9505,-4.9607,-4.9141,-4.8398,-4.8359,-4.7851,-4.7168,-4.7051,-4.6797,-4.6289,-4.5807,-4.5601,-4.5397,-4.4146,-4.3244,-4.2621,-4.1752,-4.1058,-4.0673,-4.0543,-4.0516,-4.0496,-4.0496,-4.0457,-4.0364,-4.026,-4.0011,-3.9713,-3.9556,-3.9363,-3.9137,-3.9101,-3.9101,-3.9064,-3.8729,-3.8599,-3.8507,-3.8302,-3.8079,-3.8079,-3.8079,-3.8093,-3.8172,-3.8339,-3.8469,-3.8005,-3.7182,-3.5959,-3.4658,-3.399,-3.3592,-3.3139,-3.3047,-3.3093,-3.331,-3.302,-3.3053,-3.3419,-3.3656,-3.3865,-3.399,-3.4204,-3.4601,-3.48,-3.4782,-3.4782,-3.4889,-3.4907,-3.5137,-3.533,-3.5562,-3.5859,-3.6273,-3.6582,-3.657,-3.6122,-3.6058,-3.6058,-3.6062,-3.6045,-3.6028,-3.6326,-3.6071,-3.598,-3.5937,-3.58,-3.5644,-3.5616,-3.56,-3.5537,-3.548,-3.563,-3.5874,-3.5855,-3.587,-3.5718,-3.577,-3.5364,-3.5271,-3.521,-3.503,-3.4923,-3.4856,-3.4771,-3.4602,-3.4269,-3.4015,-3.3931,-3.3728,-3.344,-3.3203,-3.3068,-3.2933,-3.2882,-4.9325,-4.8662,-4.8726,-4.8261,-4.7539,-4.7461,-4.707,-4.6406,-4.6211,-4.6133,-4.5898,-4.5165,-4.4781,-4.4635,-4.3148,-4.218,-4.2094,-4.1222,-4.0788,-4.0576,-4.0539,-4.0523,-4.0496,-4.0496,-4.0433,-4.0304,-4.0213,-4.0001,-3.9679,-3.951,-3.9227,-3.8915,-3.8867,-3.8813,-3.8502,-3.8074,-3.7801,-3.7671,-3.7243,-3.7002,-3.7002,-3.6996,-3.7034,-3.7095,-3.7503,-3.7355,-3.6885,-3.6432,-3.584,-3.4458,-3.4,-3.3477,-3.2786,-3.283,-3.2782,-3.2657,-3.2576,-3.2371,-3.2213,-3.302,-3.3336,-3.3459,-3.4216,-3.5033,-3.4952,-3.4878,-3.4878,-3.4828,-3.5687,-3.5367,-3.5439,-3.5799,-3.5979,-3.6061,-3.6411,-3.6398,-3.6194,-3.6172,-3.6385,-3.6574,-3.6495,-3.6498,-3.6457,-3.6412,-3.6284,-3.6256,-3.5912,-3.5501,-3.529,-3.5011,-3.5055,-3.5137,-3.5395,-3.5782,-3.5645,-3.5469,-3.5206,-3.499,-3.4328,-3.4071,-3.4177,-3.4049,-3.3947,-3.3914,-3.4044,-3.3863,-3.3406,-3.3271,-3.3237,-3.2966,-3.2577,-3.2459,-3.2357,-3.2239,-3.2138,-4.8329,-4.7626,-4.776,-4.7337,-4.6641,-4.6582,-4.6465,-4.623,-4.5547,-4.5273,-4.5078,-4.4336,-4.3938,-4.38,-4.272,-4.2214,-4.1947,-4.1156,-4.0725,-4.0595,-4.058,-4.0539,-4.0485,-4.04,-4.0415,-4.0332,-4.025,-4.012,-3.985,-3.9072,-3.869,-3.8421,-3.7866,-3.7399,-3.727,-3.7182,-3.6946,-3.6922,-3.6705,-3.6569,-3.6519,-3.6538,-3.6569,-3.6643,-3.6835,-3.6532,-3.5937,-3.577,-3.5177,-3.4256,-3.3844,-3.3721,-3.3616,-3.3518,-3.3447,-3.3415,-3.324,-3.2965,-3.2749,-3.263,-3.2564,-3.2686,-3.2914,-3.3048,-3.3375,-3.3512,-3.3494,-3.344,-3.3521,-3.3964,-3.4383,-3.4996,-3.5251,-3.5294,-3.5244,-3.5153,-3.519,-3.6145,-3.6632,-3.6639,-3.67,-3.6983,-3.6929,-3.6707,-3.6586,-3.6541,-3.6003,-3.5415,-3.4945,-3.447,-3.4534,-3.4631,-3.4677,-3.4974,-3.5102,-3.4772,-3.4306,-3.3985,-3.3369,-3.2949,-3.3034,-3.3173,-3.3085,-3.3254,-3.3491,-3.3136,-3.2594,-3.2513,-3.2459,-3.2087,-3.1816,-3.1782,-3.1715,-3.1562,-3.1546,-4.7441,-4.6764,-4.685,-4.667,-4.6269,-4.5879,-4.5683,-4.5508,-4.4766,-4.4375,-4.4199,-4.3476,-4.3086,-4.2959,-4.2169,-4.1681,-4.1512,-4.1068,-4.0705,-4.0504,-4.0241,-3.9954,-3.9811,-3.9592,-3.9488,-3.9827,-3.9832,-3.9557,-3.8927,-3.8393,-3.7859,-3.7681,-3.7086,-3.6926,-3.6601,-3.6346,-3.6147,-3.6012,-3.5714,-3.5529,-3.5516,-3.5516,-3.5795,-3.6067,-3.6142,-3.59,-3.5566,-3.551,-3.4952,-3.4238,-3.3887,-3.3775,-3.3757,-3.362,-3.3592,-3.3606,-3.3433,-3.3199,-3.2892,-3.257,-3.2318,-3.2301,-3.2179,-3.2283,-3.247,-3.2569,-3.2553,-3.2602,-3.2771,-3.3045,-3.3385,-3.3688,-3.405,-3.4305,-3.4323,-3.4394,-3.4725,-3.5355,-3.5752,-3.5538,-3.5451,-3.5508,-3.5619,-3.6022,-3.5671,-3.5106,-3.4959,-3.4428,-3.4339,-3.3964,-3.4007,-3.4052,-3.3929,-3.4043,-3.4332,-3.4038,-3.3339,-3.2891,-3.2366,-3.2066,-3.1985,-3.2138,-3.2273,-3.2442,-3.256,-3.2256,-3.1799,-3.1769,-3.1802,-3.1596,-3.1427,-3.1258,-3.1224,-3.1343,-3.136,-4.6635,-4.6068,-4.6016,-4.6018,-4.5936,-4.5176,-4.4805,-4.4687,-4.3867,-4.3496,-4.334,-4.2598,-4.2226,-4.2051,-4.1515,-4.1153,-4.1011,-4.0625,-4.0343,-4.019,-3.9471,-3.9165,-3.8938,-3.8623,-3.8392,-3.8911,-3.9012,-3.8569,-3.7976,-3.7366,-3.7174,-3.6859,-3.6501,-3.6168,-3.6068,-3.5683,-3.5293,-3.5213,-3.4754,-3.4439,-3.442,-3.4401,-3.4736,-3.5157,-3.5306,-3.5287,-3.5175,-3.5126,-3.4884,-3.4241,-3.3985,-3.3734,-3.3508,-3.3335,-3.3321,-3.3364,-3.3321,-3.3142,-3.2954,-3.2603,-3.2335,-3.2352,-3.2162,-3.2231,-3.252,-3.2716,-3.2732,-3.2765,-3.2925,-3.3063,-3.297,-3.3227,-3.3339,-3.35,-3.3794,-3.405,-3.4288,-3.4153,-3.4112,-3.443,-3.4815,-3.5,-3.4723,-3.4758,-3.4202,-3.3794,-3.3705,-3.3613,-3.3567,-3.3352,-3.3308,-3.3193,-3.3002,-3.2795,-3.3041,-3.3416,-3.2689,-3.2307,-3.1684,-3.1533,-3.1365,-3.1512,-3.1715,-3.1495,-3.1444,-3.1326,-3.1343,-3.141,-3.136,-3.119,-3.119,-3.119,-3.119,-3.119,-3.119,-4.604,-4.5959,-4.5305,-4.5058,-4.5001,-4.4256,-4.3926,-4.3769,-4.2988,-4.2617,-4.2519,-4.1797,-4.1465,-4.1348,-4.1308,-4.1113,-4.0683,-4.0075,-3.965,-3.9457,-3.874,-3.8281,-3.8149,-3.7861,-3.763,-3.743,-3.7738,-3.792,-3.7629,-3.7214,-3.6563,-3.6168,-3.5622,-3.5171,-3.4882,-3.4506,-3.4556,-3.4599,-3.4327,-3.4216,-3.4216,-3.4234,-3.4271,-3.455,-3.4569,-3.455,-3.4494,-3.4457,-3.4327,-3.4216,-3.4148,-3.408,-3.3967,-3.3784,-3.3784,-3.3837,-3.3675,-3.3422,-3.3121,-3.2681,-3.2551,-3.2635,-3.2601,-3.2874,-3.3273,-3.3419,-3.3196,-3.3288,-3.3346,-3.3522,-3.3638,-3.3332,-3.3559,-3.3655,-3.3442,-3.3407,-3.3424,-3.3325,-3.3407,-3.3924,-3.4372,-3.4624,-3.4233,-3.4018,-3.3929,-3.3661,-3.3483,-3.3358,-3.3264,-3.2786,-3.2316,-3.2159,-3.1965,-3.1777,-3.1686,-3.215,-3.2138,-3.1985,-3.1608,-3.1475,-3.1325,-3.1247,-3.119,-3.119,-3.119,-3.1224,-3.1224,-3.119,-3.119,-3.119,-3.119,-3.1173,-3.119,-3.119,-3.119,-4.5221,-4.5249,-4.4468,-4.4148,-4.4078,-4.3379,-4.3027,-4.2891,-4.2148,-4.1777,-4.166,-4.1367,-4.1191,-4.1074,-4.0664,-4.0254,-3.9619,-3.9181,-3.8847,-3.8614,-3.79,-3.7416,-3.7266,-3.6997,-3.6521,-3.6276,-3.6519,-3.6776,-3.6666,-3.6182,-3.5881,-3.5612,-3.5106,-3.4732,-3.4495,-3.4483,-3.4335,-3.4264,-3.4216,-3.4216,-3.4216,-3.4216,-3.4216,-3.4216,-3.4216,-3.4216,-3.4216,-3.4216,-3.4216,-3.4216,-3.4216,-3.4216,-3.4161,-3.4111,-3.4049,-3.4099,-3.3947,-3.3775,-3.3514,-3.3174,-3.3042,-3.3075,-3.2968,-3.2968,-3.3199,-3.3214,-3.324,-3.306,-3.2811,-3.2763,-3.2682,-3.2858,-3.2763,-3.2731,-3.2666,-3.2634,-3.2536,-3.2402,-3.2879,-3.3459,-3.3563,-3.3662,-3.3628,-3.3542,-3.3716,-3.3576,-3.3298,-3.3107,-3.2932,-3.2546,-3.2003,-3.2214,-3.2266,-3.2197,-3.195,-3.2003,-3.2109,-3.1877,-3.1674,-3.1526,-3.1418,-3.1382,-3.1278,-3.1193,-3.1173,-3.1017,-3.1173,-3.1157,-3.1173,-3.1123,-3.1055,-3.1004,-3.114,-3.119,-3.1021,-4.4376,-4.4339,-4.3549,-4.3275,-4.3191,-4.2475,-4.2129,-4.2012,-4.1504,-4.125,-4.1172,-4.1016,-4.0898,-4.0703,-4.0019,-3.9208,-3.8397,-3.8237,-3.8021,-3.7798,-3.7019,-3.6569,-3.6344,-3.5971,-3.5618,-3.57,-3.5655,-3.5488,-3.5678,-3.553,-3.5304,-3.5208,-3.502,-3.4782,-3.4615,-3.4473,-3.4393,-3.4288,-3.4216,-3.4216,-3.4216,-3.4216,-3.4216,-3.4216,-3.4216,-3.4216,-3.4216,-3.4216,-3.4216,-3.4216,-3.4216,-3.4216,-3.4216,-3.4216,-3.4173,-3.4105,-3.4042,-3.3978,-3.381,-3.3458,-3.3151,-3.3211,-3.2999,-3.2908,-3.2923,-3.2954,-3.2797,-3.242,-3.2369,-3.2266,-3.2351,-3.2249,-3.2283,-3.2283,-3.2369,-3.2283,-3.2469,-3.2536,-3.2634,-3.2897,-3.2797,-3.2825,-3.2923,-3.2755,-3.2844,-3.2862,-3.2564,-3.2564,-3.2458,-3.2615,-3.2403,-3.2765,-3.2925,-3.2972,-3.2765,-3.2436,-3.2402,-3.2196,-3.2003,-3.1841,-3.1702,-3.1598,-3.1379,-3.102,-3.0711,-3.0579,-3.0855,-3.0903,-3.0632,-3.0514,-3.0683,-3.0615,-3.0345,-3.0311,-3.026,-4.3447,-4.3382,-4.2586,-4.2295,-4.2259,-4.1608,-4.1302,-4.1308,-4.1191,-4.1191,-4.0937,-4.0391,-4.0039,-3.9766,-3.9121,-3.8646,-3.8207,-3.7603,-3.7187,-3.6993,-3.6278,-3.5886,-3.5784,-3.5707,-3.5554,-3.5522,-3.5502,-3.5495,-3.5488,-3.546,-3.5361,-3.5218,-3.5037,-3.4792,-3.4647,-3.4454,-3.4233,-3.4209,-3.4216,-3.4216,-3.4216,-3.4216,-3.4216,-3.4216,-3.4216,-3.4216,-3.4216,-3.4216,-3.4216,-3.4216,-3.4216,-3.4216,-3.4216,-3.4216,-3.4216,-3.4124,-3.3985,-3.3788,-3.3652,-3.3339,-3.3136,-3.3225,-3.2988,-3.288,-3.3019,-3.3052,-3.2941,-3.2797,-3.2876,-3.2829,-3.2682,-3.3121,-3.3258,-3.3169,-3.2999,-3.3199,-3.3302,-3.2731,-3.2827,-3.2952,-3.3045,-3.2619,-3.2423,-3.2143,-3.1927,-3.1928,-3.1947,-3.2037,-3.2214,-3.2554,-3.2569,-3.286,-3.3096,-3.3142,-3.3081,-3.2813,-3.2681,-3.2485,-3.2107,-3.1917,-3.1638,-3.1342,-3.1046,-3.0716,-3.0335,-2.9968,-2.9972,-2.9944,-2.9822,-2.982,-2.989,-2.9602,-2.923,-2.9297,-2.9568,-4.2144,-4.2486,-4.1731,-4.1466,-4.1484,-4.1209,-4.085,-4.0527,-4.0469,-4.0176,-3.9746,-3.9355,-3.8926,-3.8457,-3.7946,-3.7508,-3.704,-3.6614,-3.6352,-3.6327,-3.5863,-3.5643,-3.5639,-3.5602,-3.5565,-3.5508,-3.556,-3.5554,-3.5541,-3.5463,-3.5439,-3.5315,-3.5157,-3.4963,-3.4572,-3.4494,-3.4351,-3.4257,-3.4216,-3.4216,-3.4216,-3.4197,-3.4179,-3.4179,-3.416,-3.4141,-3.416,-3.4216,-3.4216,-3.4216,-3.4216,-3.4216,-3.4216,-3.4216,-3.4216,-3.4179,-3.4111,-3.4005,-3.3923,-3.3652,-3.357,-3.3588,-3.3518,-3.356,-3.3564,-3.335,-3.3202,-3.3169,-3.3047,-3.2954,-3.286,-3.306,-3.3093,-3.3154,-3.3317,-3.3332,-3.3375,-3.3258,-3.3029,-3.3166,-3.324,-3.2842,-3.2602,-3.2715,-3.2619,-3.2486,-3.2553,-3.2651,-3.286,-3.3169,-3.3029,-3.2795,-3.3001,-3.3139,-3.3063,-3.2908,-3.2883,-3.2602,-3.1731,-3.1529,-3.1252,-3.0974,-3.0588,-3.016,-2.9695,-2.9382,-2.9153,-2.9202,-2.9285,-2.9182,-2.901,-2.8825,-2.8672,-2.8908,-2.9128,-4.1016,-4.1325,-4.1006,-4.079,-4.0662,-4.0723,-4.0274,-3.9588,-3.957,-3.9219,-3.8672,-3.8379,-3.7793,-3.7129,-3.691,-3.6631,-3.6001,-3.5853,-3.5791,-3.5749,-3.571,-3.5684,-3.5644,-3.5626,-3.5485,-3.5282,-3.5146,-3.498,-3.4821,-3.4828,-3.4796,-3.5148,-3.481,-3.4516,-3.4263,-3.3929,-3.3679,-3.3508,-3.3434,-3.3447,-3.3466,-3.3503,-3.3503,-3.3528,-3.3603,-3.3689,-3.3863,-3.3863,-3.3863,-3.4216,-3.4216,-3.4216,-3.4216,-3.4216,-3.4216,-3.4197,-3.4161,-3.4161,-3.4124,-3.4018,-3.4086,-3.4023,-3.3915,-3.3657,-3.3657,-3.3472,-3.3284,-3.3196,-3.3139,-3.297,-3.2858,-3.2952,-3.3105,-3.3154,-3.3139,-3.3078,-3.306,-3.3214,-3.3317,-3.3419,-3.3447,-3.3299,-3.3211,-3.3522,-3.3465,-3.3199,-3.3184,-3.3214,-3.3332,-3.3508,-3.339,-3.306,-3.316,-3.3248,-3.3051,-3.2991,-3.3,-3.2532,-3.1655,-3.1206,-3.0979,-3.046,-2.9933,-2.9493,-2.9076,-2.8562,-2.8202,-2.851,-2.8745,-2.8371,-2.8099,-2.8268,-2.8318,-2.8503,-2.8468,-4.0282,-3.9733,-4.0461,-4.0327,-3.9691,-3.976,-3.9333,-3.8616,-3.865,-3.8594,-3.8242,-3.7734,-3.6934,-3.6348,-3.623,-3.6152,-3.5996,-3.5937,-3.5887,-3.5836,-3.5739,-3.5593,-3.548,-3.5345,-3.5113,-3.45,-3.4384,-3.3975,-3.3469,-3.3662,-3.3876,-3.4224,-3.4052,-3.3409,-3.3042,-3.2929,-3.2769,-3.2597,-3.2459,-3.2292,-3.2262,-3.2214,-3.2184,-3.2147,-3.2098,-3.2295,-3.3027,-3.3083,-3.3287,-3.3863,-3.3974,-3.403,-3.3974,-3.4141,-3.4179,-3.4216,-3.4216,-3.4216,-3.4173,-3.4049,-3.3881,-3.3762,-3.3662,-3.3556,-3.3574,-3.3302,-3.309,-3.3148,-3.3273,-3.3169,-3.3169,-3.3258,-3.339,-3.3375,-3.3375,-3.3465,-3.3494,-3.355,-3.3666,-3.3707,-3.3634,-3.3522,-3.3508,-3.3707,-3.3536,-3.3229,-3.3124,-3.3154,-3.3229,-3.3379,-3.3508,-3.3415,-3.3487,-3.3409,-3.311,-3.279,-3.2083,-3.1658,-3.1031,-3.0835,-3.0765,-3.013,-2.9213,-2.9033,-2.8638,-2.7933,-2.7502,-2.8053,-2.8212,-2.7466,-2.7231,-2.7572,-2.7606,-2.7606,-2.7453,-3.9432,-3.8755,-3.9063,-3.9046,-3.8803,-3.8832,-3.8361,-3.7734,-3.7658,-3.7363,-3.6965,-3.6621,-3.6328,-3.6074,-3.6016,-3.6016,-3.6016,-3.5976,-3.589,-3.568,-3.5412,-3.5064,-3.4855,-3.446,-3.3921,-3.3634,-3.3541,-3.3473,-3.3172,-3.2872,-3.2728,-3.2929,-3.2993,-3.2998,-3.263,-3.2273,-3.22,-3.2166,-3.2048,-3.1971,-3.1958,-3.1857,-3.1801,-3.1801,-3.1801,-3.1924,-3.2221,-3.2258,-3.2462,-3.2767,-3.3213,-3.3392,-3.3559,-3.3844,-3.403,-3.4086,-3.4067,-3.4123,-3.416,-3.4062,-3.4049,-3.4018,-3.3923,-3.3818,-3.3738,-3.3725,-3.3671,-3.3657,-3.3606,-3.3504,-3.3536,-3.3638,-3.3707,-3.3662,-3.3694,-3.378,-3.3807,-3.3807,-3.3807,-3.3762,-3.378,-3.3721,-3.3753,-3.3793,-3.3541,-3.3262,-3.3154,-3.3124,-3.3229,-3.3208,-3.3312,-3.3121,-3.3077,-3.2908,-3.2595,-3.1859,-3.1032,-3.0707,-3.0395,-3.0226,-3.003,-2.9219,-2.8492,-2.8368,-2.8386,-2.8002,-2.7836,-2.7976,-2.7794,-2.7315,-2.7106,-2.7094,-2.701,-2.6909,-2.6859,-3.8531,-3.781,-3.7796,-3.7807,-3.788,-3.7892,-3.7452,-3.6778,-3.6707,-3.6445,-3.5896,-3.5951,-3.5995,-3.5937,-3.5664,-3.5586,-3.543,-3.5254,-3.5156,-3.4873,-3.4486,-3.4242,-3.396,-3.3614,-3.3262,-3.2879,-3.2701,-3.2643,-3.2174,-3.2314,-3.2,-3.1751,-3.1823,-3.1917,-3.1855,-3.1809,-3.1705,-3.1678,-3.1577,-3.1487,-3.1393,-3.1269,-3.1128,-3.1088,-3.103,-3.1198,-3.1332,-3.1459,-3.1645,-3.1998,-3.2351,-3.2611,-3.2823,-3.3101,-3.3429,-3.3566,-3.3714,-3.3838,-3.3875,-3.4116,-3.4179,-3.4161,-3.4173,-3.4161,-3.4204,-3.4136,-3.3967,-3.3967,-3.3928,-3.3895,-3.3847,-3.3847,-3.3802,-3.373,-3.3734,-3.3807,-3.3807,-3.3807,-3.3807,-3.3807,-3.3788,-3.3678,-3.3146,-3.3091,-3.3218,-3.3166,-3.348,-3.34,-3.3364,-3.3271,-3.3035,-3.2748,-3.2361,-3.2147,-3.1851,-3.1088,-3.0408,-3.021,-2.9863,-2.9395,-2.8995,-2.8398,-2.8237,-2.8389,-2.838,-2.8179,-2.8105,-2.8081,-2.7774,-2.7373,-2.7231,-2.712,-2.7024,-2.699,-2.6958,-3.7617,-3.6871,-3.6832,-3.6876,-3.6925,-3.7002,-3.6552,-3.5943,-3.5915,-3.5926,-3.5864,-3.5836,-3.5813,-3.5684,-3.5059,-3.4746,-3.459,-3.4023,-3.373,-3.375,-3.3584,-3.3452,-3.3298,-3.3032,-3.246,-3.2057,-3.1872,-3.154,-3.0902,-3.1101,-3.0868,-3.083,-3.096,-3.0874,-3.0439,-3.0216,-3.0176,-3.0252,-3.0266,-3.0277,-3.0262,-3.0217,-3.0141,-3.0086,-3.0048,-3.0267,-3.0528,-3.0615,-3.0838,-3.131,-3.1626,-3.1812,-3.1886,-3.2054,-3.2184,-3.2154,-3.2723,-3.2983,-3.3045,-3.3733,-3.3974,-3.416,-3.4216,-3.4216,-3.4185,-3.4148,-3.4099,-3.4074,-3.4036,-3.3972,-3.3939,-3.3913,-3.3855,-3.3842,-3.3847,-3.37,-3.3695,-3.3558,-3.3485,-3.3154,-3.3366,-3.344,-3.2669,-3.2265,-3.2614,-3.296,-3.3555,-3.3638,-3.33,-3.299,-3.2564,-3.2208,-3.174,-3.1438,-3.1097,-3.0361,-2.9816,-2.9616,-2.9417,-2.9083,-2.8884,-2.8667,-2.8576,-2.8563,-2.8482,-2.8417,-2.8255,-2.8106,-2.7768,-2.7491,-2.7369,-2.726,-2.7151,-2.7086,-2.712,-3.6723,-3.5952,-3.5971,-3.6015,-3.6026,-3.6057,-3.5871,-3.5679,-3.5693,-3.5735,-3.5638,-3.5301,-3.5038,-3.4796,-3.4277,-3.3848,-3.3769,-3.3711,-3.3379,-3.3281,-3.2851,-3.2609,-3.2441,-3.2038,-3.1562,-3.1207,-3.1035,-3.1024,-3.0673,-3.0604,-3.0602,-3.0617,-3.0593,-3.0559,-3.0509,-3.0369,-3.0352,-3.0273,-3.0133,-2.9958,-2.9872,-2.9751,-2.9662,-2.9598,-2.958,-2.97,-2.9897,-2.9934,-3.0116,-3.0448,-3.0708,-3.0995,-3.1136,-3.1292,-3.1682,-3.1738,-3.2165,-3.2184,-3.2221,-3.2574,-3.315,-3.3696,-3.4123,-3.4104,-3.4179,-3.4185,-3.4148,-3.4124,-3.4086,-3.4036,-3.4004,-3.3954,-3.3928,-3.3947,-3.3873,-3.3522,-3.3362,-3.3108,-3.2893,-3.2298,-3.2193,-3.2272,-3.1801,-3.1342,-3.1562,-3.1696,-3.2118,-3.2375,-3.2177,-3.2043,-3.1763,-3.1524,-3.1151,-3.0809,-3.0363,-2.9813,-2.9466,-2.932,-2.9229,-2.9052,-2.8906,-2.8834,-2.8815,-2.8791,-2.8743,-2.8663,-2.8482,-2.8268,-2.7929,-2.7657,-2.7669,-2.7535,-2.7386,-2.7355,-2.7369,-3.5926,-3.5415,-3.5435,-3.5521,-3.556,-3.5584,-3.546,-3.5212,-3.518,-3.5096,-3.473,-3.4289,-3.4138,-3.3923,-3.3372,-3.2968,-3.2949,-3.2617,-3.25,-3.2461,-3.2031,-3.1758,-3.1479,-3.1172,-3.1053,-3.0732,-3.0684,-3.0659,-3.063,-3.0614,-3.0619,-3.0607,-3.0617,-3.0593,-3.0559,-3.0515,-3.0471,-3.0406,-3.0304,-3.0215,-3.0121,-2.9992,-2.9864,-2.9809,-2.9751,-2.9692,-2.9541,-2.9464,-2.9433,-2.9617,-2.9876,-3.0227,-3.0413,-3.0626,-3.0987,-3.0976,-3.1273,-3.1459,-3.1756,-3.1868,-3.25,-3.3083,-3.3547,-3.377,-3.3893,-3.3993,-3.4148,-3.4148,-3.4062,-3.4025,-3.3956,-3.3907,-3.3598,-3.3598,-3.3253,-3.289,-3.2638,-3.2379,-3.2207,-3.1605,-3.1372,-3.1293,-3.1011,-3.0631,-3.0448,-3.0497,-3.0577,-3.0864,-3.1158,-3.1066,-3.0974,-3.0779,-3.0448,-3.0063,-2.9751,-2.944,-2.9153,-2.9012,-2.8987,-2.8987,-2.8975,-2.8917,-2.8964,-2.8987,-2.8893,-2.8791,-2.8688,-2.8469,-2.8246,-2.8179,-2.8201,-2.8,-2.7674,-2.7539,-2.7491,-3.5201,-3.5182,-3.5171,-3.5255,-3.5423,-3.5335,-3.4934,-3.4273,-3.4279,-3.3907,-3.3277,-3.3285,-3.3223,-3.3155,-3.2442,-3.2103,-3.2051,-3.1406,-3.1269,-3.1152,-3.1191,-3.1055,-3.1055,-3.0957,-3.0859,-3.0807,-3.0773,-3.0728,-3.0687,-3.0633,-3.0618,-3.061,-3.0607,-3.0602,-3.0593,-3.0588,-3.055,-3.0465,-3.0439,-3.0364,-3.0273,-3.0327,-3.0196,-3.0102,-3.0,-2.9867,-2.975,-2.9635,-2.9589,-2.9588,-2.9587,-2.9528,-2.9488,-2.9429,-2.9438,-2.9659,-3.0294,-3.0827,-3.1273,-3.1329,-3.144,-3.1794,-3.2425,-3.276,-3.3094,-3.3392,-3.351,-3.3609,-3.3572,-3.374,-3.3827,-3.3321,-3.2846,-3.2581,-3.2224,-3.1935,-3.1713,-3.1554,-3.1468,-3.1253,-3.1149,-3.0916,-3.0328,-2.9899,-2.9796,-2.9729,-2.9865,-3.014,-3.0361,-3.0265,-3.0173,-3.0081,-2.9732,-2.9262,-2.9023,-2.9078,-2.906,-2.8987,-2.8987,-2.8987,-2.8987,-2.8987,-2.8987,-2.8975,-2.8964,-2.8881,-2.8718,-2.8718,-2.8731,-2.8651,-2.8386,-2.8188,-2.7789,-2.7557,-2.7465,-3.5072,-3.5125,-3.4522,-3.4392,-3.4462,-3.3936,-3.3568,-3.3456,-3.3443,-3.3286,-3.3103,-3.2508,-3.2315,-3.2305,-3.1553,-3.1321,-3.1172,-3.1055,-3.0976,-3.0918,-3.0918,-3.0918,-3.0918,-3.0918,-3.0898,-3.0856,-3.0829,-3.0799,-3.0739,-3.0684,-3.0623,-3.0603,-3.0613,-3.0625,-3.0607,-3.0617,-3.0525,-3.0451,-3.046,-3.0403,-3.0327,-3.0303,-3.0254,-3.0209,-3.0143,-3.0011,-2.9916,-2.988,-2.9851,-2.9826,-2.9826,-2.9826,-2.9845,-2.9828,-2.9813,-2.9636,-2.9791,-2.9872,-3.0047,-3.0113,-3.0227,-3.0453,-3.0982,-3.1589,-3.1998,-3.2422,-3.2646,-3.285,-3.2887,-3.295,-3.2848,-3.2442,-3.2145,-3.1881,-3.1536,-3.1228,-3.1017,-3.0854,-3.075,-3.0491,-3.0406,-3.0253,-2.9677,-2.9562,-2.9459,-2.9245,-2.927,-2.9565,-2.9697,-2.9651,-2.9597,-2.9524,-2.9372,-2.9042,-2.8987,-2.9023,-2.9005,-2.8987,-2.8987,-2.8987,-2.8987,-2.8987,-2.8987,-2.8964,-2.8929,-2.8815,-2.8694,-2.8718,-2.8749,-2.8451,-2.8197,-2.8093,-2.7926,-2.7745,-2.7557,-3.4699,-3.4511,-3.4006,-3.3578,-3.3147,-3.266,-3.2324,-3.2125,-3.2386,-3.2422,-3.2014,-3.1549,-3.1379,-3.1396,-3.1018,-3.0838,-3.0898,-3.0937,-3.0918,-3.0918,-3.0918,-3.0918,-3.0918,-3.0918,-3.0918,-3.0879,-3.0859,-3.0834,-3.0804,-3.0735,-3.0667,-3.0655,-3.0644,-3.063,-3.0614,-3.0602,-3.0549,-3.0496,-3.043,-3.0361,-3.0315,-3.0279,-3.031,-3.0273,-3.0228,-3.0157,-3.0112,-3.011,-3.0047,-3.0018,-3.003,-2.9996,-3.0007,-2.9992,-2.9969,-2.9803,-2.9754,-2.9748,-2.9814,-2.9748,-2.9645,-2.9701,-3.0048,-3.0489,-3.1133,-3.1647,-3.1942,-3.2179,-3.2075,-3.1949,-3.1745,-3.1552,-3.144,-3.1299,-3.0946,-3.0593,-3.0384,-3.0174,-2.9895,-2.9588,-2.9481,-2.9424,-2.9299,-2.9251,-2.9229,-2.9197,-2.9186,-2.9278,-2.9374,-2.9329,-2.9294,-2.9258,-2.9157,-2.8987,-2.8987,-2.8998,-2.8998,-2.8998,-2.8987,-2.8987,-2.8987,-2.8987,-2.8987,-2.894,-2.8875,-2.8803,-2.8779,-2.8688,-2.8633,-2.8412,-2.8321,-2.8295,-2.8215,-2.8037,-2.7858,-3.4086,-3.3515,-3.3449,-3.268,-3.1661,-3.159,-3.1166,-3.0516,-3.1297,-3.1215,-3.0684,-3.0535,-3.0658,-3.0798,-3.0703,-3.0728,-3.0799,-3.0859,-3.0879,-3.0898,-3.0898,-3.0898,-3.0918,-3.0918,-3.0918,-3.0918,-3.0898,-3.0879,-3.0879,-3.0805,-3.0732,-3.0715,-3.0699,-3.067,-3.063,-3.0626,-3.0614,-3.0591,-3.0585,-3.0563,-3.0564,-3.0583,-3.0598,-3.053,-3.043,-3.0306,-3.0302,-3.0222,-3.0124,-3.011,-3.0103,-3.0077,-3.0096,-3.0066,-3.0044,-2.9992,-2.9915,-2.9867,-2.9842,-2.9826,-2.9861,-2.9869,-2.9921,-3.0053,-3.0534,-3.0941,-3.1251,-3.1345,-3.1251,-3.1221,-3.1059,-3.0852,-3.0721,-3.0627,-3.0384,-3.0159,-3.0048,-2.9926,-2.9842,-2.9617,-2.957,-2.9493,-2.9474,-2.9483,-2.9434,-2.932,-2.9286,-2.9296,-2.924,-2.9178,-2.9145,-2.9123,-2.9078,-2.9055,-2.9062,-2.9074,-2.9021,-2.901,-2.901,-2.8987,-2.8987,-2.8987,-2.8987,-2.8952,-2.8929,-2.8952,-2.8929,-2.8839,-2.8773,-2.8791,-2.87,-2.8639,-2.8525,-2.8365,-2.8134,-3.3106,-3.2662,-3.2313,-3.1499,-3.056,-3.0637,-3.0522,-3.0209,-3.0534,-3.0662,-3.0509,-3.0496,-3.053,-3.0579,-3.0623,-3.0678,-3.0724,-3.0795,-3.0826,-3.084,-3.0859,-3.0898,-3.0918,-3.0918,-3.0918,-3.0918,-3.0918,-3.0918,-3.0898,-3.0832,-3.0799,-3.077,-3.0734,-3.0701,-3.0661,-3.0659,-3.0655,-3.0635,-3.0655,-3.0641,-3.0607,-3.0617,-3.0593,-3.0593,-3.0515,-3.051,-3.05,-3.0495,-3.0455,-3.046,-3.046,-3.0455,-3.0455,-3.0316,-3.0254,-3.0209,-3.0095,-3.0025,-3.0003,-3.0022,-3.0015,-2.9985,-2.9969,-2.9931,-3.0054,-3.0307,-3.0471,-3.0519,-3.0512,-3.0505,-3.044,-3.0243,-3.0092,-2.9998,-2.9912,-2.9837,-2.9761,-2.9796,-2.982,-2.9803,-2.9777,-2.9742,-2.9716,-2.9681,-2.9644,-2.9589,-2.9551,-2.9503,-2.9411,-2.9339,-2.9278,-2.9246,-2.9189,-2.9156,-2.9152,-2.913,-2.9108,-2.9067,-2.9067,-2.9033,-2.8998,-2.8998,-2.901,-2.8998,-2.8975,-2.8987,-2.8987,-2.8964,-2.8952,-2.8964,-2.894,-2.8815,-2.8827,-2.8713,-2.8451,-3.2158,-3.1637,-3.1123,-3.0553,-3.0109,-3.0182,-3.0196,-3.0143,-3.0311,-3.0421,-3.0442,-3.0455,-3.0487,-3.0561,-3.0583,-3.0618,-3.0661,-3.0733,-3.0744,-3.0762,-3.081,-3.0877,-3.0898,-3.0898,-3.0918,-3.0918,-3.0918,-3.0898,-3.0898,-3.0878,-3.0853,-3.083,-3.0794,-3.0749,-3.0715,-3.0672,-3.067,-3.0642,-3.0668,-3.0656,-3.0625,-3.0615,-3.0606,-3.0601,-3.0617,-3.0617,-3.0617,-3.0617,-3.0598,-3.0593,-3.0583,-3.0583,-3.0569,-3.0499,-3.0453,-3.0386,-3.0309,-3.0216,-3.0222,-3.0209,-3.0202,-3.017,-3.0177,-3.0215,-3.0222,-3.0444,-3.0285,-3.03,-3.0181,-3.0158,-3.0139,-3.0007,-2.9979,-2.9931,-2.9929,-2.9899,-2.9878,-2.9902,-2.9939,-2.9969,-2.9915,-2.9845,-2.982,-2.982,-2.9786,-2.9786,-2.9742,-2.9725,-2.9626,-2.954,-2.9463,-2.9384,-2.9351,-2.9243,-2.9186,-2.9175,-2.9175,-2.9163,-2.9145,-2.9123,-2.91,-2.9055,-2.9051,-2.9033,-2.9021,-2.8987,-2.8987,-2.901,-2.8987,-2.8975,-2.8975,-2.8964,-2.8987,-2.8987,-2.8761,-3.1262,-3.0603,-3.0122,-2.9905,-2.9875,-3.0044,-3.0075,-3.0109,-3.0305,-3.0404,-3.039,-3.04,-3.0428,-3.0486,-3.0544,-3.0572,-3.0603,-3.0659,-3.068,-3.0706,-3.0744,-3.0803,-3.0834,-3.0859,-3.0879,-3.0898,-3.0918,-3.0918,-3.0918,-3.0898,-3.0898,-3.0879,-3.0853,-3.0795,-3.0724,-3.0672,-3.0673,-3.0678,-3.0688,-3.0656,-3.0634,-3.0611,-3.0613,-3.0621,-3.0617,-3.0617,-3.0617,-3.0617,-3.0617,-3.0617,-3.0617,-3.0617,-3.0617,-3.0579,-3.0583,-3.0535,-3.0481,-3.046,-3.0465,-3.0449,-3.0469,-3.0479,-3.049,-3.0479,-3.0469,-3.0352,-3.0221,-3.0121,-3.0011,-2.9988,-2.9996,-2.9988,-2.9988,-2.9981,-2.9996,-3.0004,-3.0026,-3.003,-3.0073,-3.0129,-3.0078,-2.9981,-2.9973,-2.9965,-2.995,-2.9942,-2.9926,-2.991,-2.9869,-2.9769,-2.9681,-2.9617,-2.9551,-2.9434,-2.9299,-2.9254,-2.9294,-2.9257,-2.9249,-2.9214,-2.9189,-2.9134,-2.91,-2.91,-2.9078,-2.9067,-2.9044,-2.9055,-2.9033,-2.901,-2.901,-2.9021,-2.8987,-2.8987,-2.8987,-3.0423,-2.9823,-2.9857,-2.9811,-2.9715,-2.9958,-3.0044,-3.0004,-3.0267,-3.0404,-3.0404,-3.039,-3.0414,-3.0428,-3.049,-3.0515,-3.054,-3.0586,-3.0611,-3.0644,-3.0656,-3.0702,-3.075,-3.0786,-3.0815,-3.0859,-3.0879,-3.0898,-3.0859,-3.0879,-3.0898,-3.0879,-3.0879,-3.0857,-3.0856,-3.0807,-3.0774,-3.0778,-3.0776,-3.0771,-3.07,-3.0678,-3.061,-3.0617,-3.0617,-3.0617,-3.0617,-3.0617,-3.0617,-3.0617,-3.0617,-3.0617,-3.0617,-3.0617,-3.0617,-3.0617,-3.0564,-3.0564,-3.0559,-3.0559,-3.0569,-3.055,-3.0515,-3.046,-3.0428,-3.0346,-3.0254,-3.026,-3.0196,-3.0286,-3.0292,-3.026,-3.0254,-3.0248,-3.0267,-3.026,-3.0267,-3.0273,-3.0292,-3.0305,-3.0286,-3.0247,-3.0247,-3.0227,-3.0174,-3.0154,-3.0092,-3.0071,-2.9996,-2.995,-2.991,-2.9817,-2.975,-2.9681,-2.957,-2.9443,-2.9412,-2.9394,-2.9375,-2.9394,-2.9341,-2.9211,-2.9178,-2.9214,-2.9192,-2.9178,-2.9156,-2.9112,-2.91,-2.9089,-2.9078,-2.9055,-2.9021,-2.8998,-2.9028]},{"header":{"parameterUnit":"m.s-1","parameterCategory":1,"la1":31.0,"la2":29.5877,"lo1":-88.7671,"lo2":-86.6584,"dy":0.0162,"dx":0.0185,"nx":115,"ny":88,"refTime":"2023-07-14T18:00:00:Z","depth":0,"parameterNumber":3,"parameterNumberName":"V-component_of_WINDS"},"data":[0.0,0.0,0.0,0.0,0.0,0.0,0.0,0.0,0.0,0.0,0.0,0.0,0.0,0.0,0.0,0.0,0.0,0.0,0.0,0.0,0.0,0.0,0.0,0.0,0.0,0.0,0.0,0.0,0.0,0.0,0.0,0.0,0.0,0.0,0.0,0.0,0.0,0.0,0.0,0.0,0.0,0.0,0.0,0.0,0.0,0.0,0.0,0.0,0.0,0.0,0.0,0.0,0.0,0.0,0.0,0.0,0.0,0.0,0.0,0.0,0.0,0.0,0.0,0.0,0.0,0.0,0.0,0.0,0.0,0.0,0.0,0.0,0.0,0.0,0.0,0.0,0.0,0.0,0.0,0.0,0.0,0.0,0.0,0.0,0.0,0.0,0.0,0.0,0.0,0.0,0.0,0.0,0.0,0.0,0.0,0.0,0.0,0.0,0.0,0.0,0.0,0.0,0.0,0.0,0.0,0.0,0.0,0.0,0.0,0.0,0.0,0.0,0.0,0.0,0.0,0.0,0.0,0.0,0.0,0.0,0.0,0.0,0.0,0.0,0.0,0.0,0.0,0.0,0.0,0.0,0.0,0.0,0.0,0.0,0.0,0.0,0.0,0.0,0.0,0.0,0.0,0.0,0.0,0.0,0.0,0.0,0.0,0.0,0.0,0.0,0.0,0.0,0.0,0.0,0.0,0.0,0.0,0.0,0.0,0.0,0.0,0.0,0.0,0.0,0.0,0.0,0.0,0.0,0.0,0.0,0.0,0.0,0.0,0.0,0.0,0.0,0.0,0.0,0.0,0.0,0.0,0.0,0.0,0.0,0.0,0.0,0.0,0.0,0.0,0.0,0.0,0.0,0.0,0.0,0.0,0.0,0.0,0.0,0.0,0.0,0.0,0.0,0.0,0.0,0.0,0.0,0.0,0.0,0.0,0.0,0.0,0.0,0.0,0.0,0.0,0.0,0.0,0.0,0.0,0.0,0.0,0.0,0.0,0.0,0.0,0.0,0.0,0.0,0.0,0.0,0.0,0.0,0.0,0.0,0.0,0.0,0.0,0.0,0.0,0.0,0.0,0.0,0.0,0.0,0.0,0.0,0.0,0.0,0.0,0.0,0.0,0.0,0.0,0.0,0.0,0.0,0.0,0.0,0.0,0.0,0.0,0.0,0.0,0.0,0.0,0.0,0.0,0.0,0.0,0.0,0.0,0.0,0.0,0.0,0.0,0.0,0.0,0.0,0.0,0.0,0.0,0.0,0.0,0.0,0.0,0.0,0.0,0.0,0.0,0.0,0.0,0.0,0.0,0.0,0.0,0.0,0.0,0.0,0.0,0.0,0.0,0.0,0.0,0.0,0.0,0.0,0.0,0.0,0.0,0.0,0.0,0.0,0.0,0.0,0.0,0.0,0.0,0.0,0.0,0.0,0.0,0.0,0.0,0.0,0.0,0.0,0.0,0.0,0.0,0.0,0.0,0.0,0.0,0.0,0.0,0.0,0.0,0.0,0.0,0.0,0.0,0.0,0.0,0.0,0.0,0.0,0.0,0.0,0.0,0.0,0.0,0.0,0.0,0.0,0.0,0.0,0.0,0.0,0.0,0.0,0.0,0.0,0.0,0.0,0.0,0.0,0.0,0.0,0.0,0.0,0.0,0.0,0.0,0.0,0.0,0.0,0.0,0.0,0.0,0.0,0.0,0.0,0.0,0.0,0.0,0.0,0.0,0.0,0.0,0.0,0.0,0.0,0.0,0.0,0.0,0.0,0.0,0.0,0.0,0.0,0.0,0.0,0.0,0.0,0.0,0.0,0.0,0.0,0.0,0.0,0.0,0.0,0.0,0.0,0.0,0.0,0.0,0.0,0.0,0.0,0.0,0.0,0.0,0.0,0.0,0.0,0.0,0.0,0.0,0.0,0.0,0.0,0.0,0.0,0.0,0.0,0.0,0.0,0.0,0.0,0.0,0.0,0.0,0.0,0.0,0.0,0.0,0.0,0.0,0.0,0.0,0.0,0.0,0.0,0.0,0.0,0.0,0.0,0.0,0.0,0.0,0.0,0.0,0.0,0.0,0.0,0.0,0.0,0.0,0.0,0.0,0.0,0.0,0.0,0.0,0.0,0.0,0.0,0.0,0.0,0.0,0.0,0.0,0.0,0.0,0.0,0.0,0.0,0.0,0.0,0.0,0.0,0.0,0.0,0.0,0.0,0.0,0.0,0.0,0.0,0.0,0.0,0.0,0.0,0.0,0.0,0.0,0.0,0.0,0.0,0.0,0.0,0.0,0.0,0.0,0.0,0.0,0.0,0.0,0.0,0.0,0.0,0.0,0.0,0.0,0.0,0.0,0.0,0.0,0.0,0.0,0.0,0.0,0.0,0.0,0.0,0.0,0.0,0.0,0.0,0.0,0.0,0.0,0.0,0.0,0.0,0.0,0.0,0.0,0.0,0.0,0.0,0.0,0.0,0.0,0.0,0.0,0.0,0.0,0.0,0.0,0.0,0.0,0.0,0.0,0.0,0.0,0.0,0.0,0.0,0.0,0.0,0.0,0.0,0.0,0.0,0.0,0.0,0.0,0.0,0.0,0.0,0.0,0.0,0.0,0.0,0.0,0.0,0.0,0.0,0.0,0.0,0.0,0.0,0.0,0.0,0.0,0.0,0.0,0.0,0.0,0.0,0.0,0.0,0.0,0.0,0.0,0.0,0.0,0.0,0.0,0.0,0.0,0.0,0.0,0.0,0.0,0.0,0.0,0.0,0.0,0.0,0.0,0.0,0.0,0.0,0.0,0.0,0.0,0.0,0.0,0.0,0.0,0.0,0.0,0.0,0.0,0.0,0.0,0.0,0.0,0.0,0.0,0.0,0.0,0.0,0.0,0.0,0.0,0.0,0.0,0.0,0.0,0.0,0.0,0.0,0.0,0.0,0.0,0.0,0.0,0.0,0.0,0.0,0.0,0.0,0.0,0.0,0.0,0.0,0.0,0.0,0.0,0.0,0.0,0.0,0.0,0.0,0.0,0.0,0.0,0.0,0.0,0.0,0.0,0.0,0.0,0.0,0.0,0.0,0.0,0.0,0.0,0.0,0.0,0.0,0.0,0.0,0.0,0.0,0.0,0.0,0.0,0.0,0.0,0.0,0.0,0.0,0.0,0.0,0.0,0.0,0.0,0.0,0.0,0.0,0.0,0.0,0.0,0.0,0.0,0.0,0.0,0.0,0.0,0.0,0.0,0.0,0.0,0.0,0.0,0.0,0.0,0.0,0.0,0.0,0.0,0.0,0.0,0.0,0.0,0.0,0.0,0.0,0.0,0.0,0.0,0.0,0.0,0.0,0.0,0.0,0.0,0.0,0.0,0.0,0.0,0.0,0.0,0.0,0.0,0.0,0.0,0.0,0.0,0.0,0.0,0.0,0.0,0.0,0.0,0.0,0.0,0.0,0.0,0.0,0.0,0.0,0.0,0.0,0.0,0.0,0.0,0.0,0.0,0.0,0.0,0.0,0.0,0.0,0.0,0.0,0.0,0.0,0.0,0.0,0.0,0.0,0.0,0.0,0.0,0.0,0.0,0.0,0.0,0.0,0.0,0.0,0.0,0.0,0.0,0.0,0.0,0.0,0.0,0.0,0.0,0.0,0.0,0.0,0.0,0.0,0.0,0.0,0.0,0.0,0.0,0.0,0.0,0.0,0.0,0.0,0.0,0.0,0.0,0.0,0.0,0.0,0.0,0.0,0.0,0.0,0.0,0.0,0.0,0.0,0.0,0.0,0.0,0.0,0.0,0.0,0.0,0.0,0.0,0.0,0.0,0.0,0.0,0.0,0.0,0.0,0.0,0.0,0.0,0.0,0.0,0.0,0.0,0.0,0.0,0.0,0.0,0.0,0.0,0.0,0.0,0.0,0.0,0.0,0.0,0.0,0.0,0.0,0.0,0.0,0.0,0.0,0.0,0.0,0.0,0.0,0.0,0.0,0.0,0.0,0.0,0.0,0.0,0.0,0.0,0.0,0.0,0.0,0.0,0.0,0.0,0.0,0.0,0.0,0.0,0.0,0.0,0.0,0.0,0.0,0.0,0.0,0.0,0.0,0.0,0.0,0.0,0.0,0.0,0.0,0.0,0.0,0.0,0.0,0.0,0.0,0.0,0.0,0.0,0.0,0.0,0.0,0.0,0.0,0.0,0.0,0.0,0.0,0.0,0.0,0.0,0.0,0.0,0.0,0.0,0.0,0.0,0.0,0.0,0.0,0.0,0.0,0.0,0.0,0.0,0.0,0.0,0.0,0.0,0.0,-0.0336,0.0,0.0,0.0,0.0,0.0,0.0,0.0,0.0,0.0,0.0,0.0,0.0,0.0,0.0,0.0,0.0,0.0,0.0,0.0,0.0,0.0,0.0,0.0,0.0,0.0,0.0,0.0,0.0,0.0,0.0,0.0,0.0,0.0,0.0,0.0,0.0,0.0,0.0,0.0,0.0,0.0,0.0,0.0,0.0,0.0,0.0,0.0,0.0,0.0,0.0,0.0,0.0,0.0,0.0,0.0,0.0,0.0,0.0,0.0,0.0,0.0,0.0,0.0,0.0,0.0,0.0,0.0,0.0,0.0,0.0,0.0,0.0,0.0,0.0,0.0,0.0,0.0,0.0,0.0,0.0,0.0,0.0,0.0,0.0,0.0,0.0,0.0,0.0,0.0,0.0,0.0,0.0,0.0,0.0,0.0,0.0,0.0,0.0,0.0,0.0,0.0,0.0,0.0,0.0,0.0,0.0,0.0,0.0,0.0,0.0,0.0281,-0.021,-0.0415,-0.0614,-0.0807,0.0,0.0,0.0,0.0,0.0,0.0,0.0,0.0,0.0,0.0,0.0,0.0,0.0,0.0,0.0,0.0,0.0,0.0,0.0,0.0,0.0,0.0,0.0,0.0,0.0,0.0,0.0,0.0,0.0,0.0,0.0,0.0,0.0,0.0,0.0,0.0,0.0,0.0,0.0,0.0,0.0,0.0,0.0,0.0,0.0,0.0,0.0,0.0,0.0,0.0,0.0,0.0,0.0,0.0,0.0,0.0,0.0,0.0,0.0,0.0,0.0,0.0,0.0,0.0,0.0,0.0,0.0,0.0,0.0,0.0,0.0,0.0,0.0,0.0,0.0,0.0,0.0,0.0,0.0,0.0,0.0,0.0,0.0,0.0,0.0,0.0,0.0,0.0,0.0,0.0,0.0,0.0,0.0,0.0,0.0,0.0,0.0,0.0,0.0,0.0,0.0,0.0,0.0,0.0,0.0,0.0,0.0,0.0,0.0,0.0,0.0,0.0,-0.0917,-0.1141,-0.1413,0.0,0.0,0.0,0.0,0.0,0.0,0.0,0.0,0.0,0.0,0.0,0.0,0.0,0.0,0.0,0.0,0.0,0.0,0.0,0.0,0.0,0.0,0.0,0.0,0.0,0.0,0.0,0.0,0.0,0.0,0.0,0.0,0.0,0.0,0.0,0.0,0.0,0.0,0.0,0.0,0.0,0.0,0.0,0.0,0.0,0.0,0.0,0.0,0.0,0.0,0.0,0.0,0.0,0.0,0.0,0.0,0.0,0.0,0.0,0.0,0.0,0.0,0.0,0.0,0.0,0.0,0.0,0.0,0.0,0.0,0.0,0.0,0.0,0.0,0.0,0.0,0.0,0.0,0.0,0.0,0.0,0.0,0.0,0.0,0.0,0.0,0.0,0.0,0.0,0.0,0.0,0.0,0.0,0.0,0.0,0.0,0.0,0.0,0.0,0.0,0.0,0.0,0.0,0.0,0.0,0.0,0.0,0.0,0.0,0.0,-0.092,-0.1164,-0.1294,0.0,-0.2253,0.0,0.0,0.0,0.0,0.0,0.0,0.0,0.0,0.0,0.0,0.0,0.0,0.0,0.0,0.0,0.0,0.0,0.0,0.0,0.0,0.0,0.0,0.0,0.0,0.0,0.0,0.0,0.0,0.0,0.0,0.0,0.0,0.0,0.0,0.0,0.0,0.0,0.0,0.0,0.0,0.0,0.0,0.0,0.0,0.0,0.0,0.0,0.0,0.0,0.0,0.0,0.0,0.0,0.0,0.0,0.0,0.0,0.0,0.0,0.0,0.0,0.0,0.0,0.0,0.0,0.0,0.0,0.0,0.0,0.0,0.0,0.0,0.0,0.0,0.0,0.0,0.0,0.0,0.0,0.0,0.0,0.0,0.0,0.0,0.0,0.0,0.0,0.0,0.0,0.0,0.0,0.0,0.0,0.0,0.0,0.0,0.0,0.0,0.0,0.0,0.0,0.0,0.0,0.0,0.0,0.0,0.0,0.0,0.0,0.0,-0.1065,-0.1363,-0.1836,-0.2262,0.0,0.0,0.0,0.0,0.0,0.0,0.0,0.0,0.0,0.0,0.0,0.0,0.0,0.0,0.0,0.0,0.0,0.0,0.0,0.0,0.0,0.0,0.0,0.0,0.0,0.0,0.0,0.0,0.0,0.0,0.0,0.0,0.0,0.0,0.0,0.0,0.0,0.0,0.0,0.0,0.0,0.0,0.0,0.0,0.0,0.0,0.0,0.0,0.0,0.0,0.0,0.0,0.0,0.0,0.0,0.0,0.0,0.0,0.0,0.0,0.0,0.0,0.0,0.0,0.0,0.0,0.0,0.0,0.0,0.0,0.0,0.0,0.0,0.0,0.0,0.0,0.0,0.0,0.0,0.0,0.0,0.0,0.0,0.0,0.0,0.0,0.0,0.0,0.0,0.0,0.0,0.0,0.0,0.0,0.0,0.0,0.0,0.0,0.0,0.0,0.0,0.0,0.0,0.0,0.0,0.0,0.0,0.0,0.0,0.0,-0.0904,-0.1242,-0.1665,-0.2247,-0.2785,-0.3219,0.0,0.0,0.0,0.0,0.0,0.0,0.0,0.0,0.0,0.0,0.0,0.0,0.0,0.0,0.0,0.0,0.0,0.0,0.0,0.0,0.0,0.0,0.0,0.0,0.0,0.0,0.0,0.0,0.0,0.0,0.0,0.0,0.0,0.0,0.0,0.0,0.0,0.0,0.0,0.0,0.0,0.0,0.0,0.0,0.0,0.0,0.0,0.0,0.0,0.0,0.0,0.0,0.0,0.0,0.0,0.0,0.0,0.0,0.0,0.0,0.0,0.0,0.0,0.0,0.0,0.0,0.0,0.0,0.0,0.0,0.0,0.0,0.0,0.0,0.0,0.0,0.0,0.0,0.0,0.0,0.0,0.0,0.0,0.0,0.0,0.0,0.0,0.0,0.0,0.0,0.0,0.0,0.0,0.0,0.0,0.0,0.0,0.0,0.0,0.0,0.0,0.0,0.0,0.0,0.0,0.0,0.0,0.0,-0.0864,-0.114,-0.1553,-0.2081,-0.2542,-0.3126,0.0,0.0,0.0,0.0,0.0,0.0,0.0,0.0,0.0,0.0,0.0,0.0,0.0,0.0,0.0,0.0,0.0,0.0,0.0,0.0,0.0,0.0,0.0,0.0,0.0,0.0,0.0,0.0,0.0,0.0,0.0,0.0,0.0,0.0,0.0,0.0,0.0,0.0,0.0,0.0,0.0,0.0,0.0,0.0,0.0,0.0,0.0,0.0,0.0,0.0,0.0,0.0,0.0,0.0,0.0,0.0,0.0,0.0,0.0,0.0,0.0,0.0,0.0,0.0,0.0,0.0,0.0,0.0,0.0,0.0,0.0,0.0,0.0,0.0,0.0,0.0,0.0,0.0,0.0,0.0,0.0,0.0,0.0,0.0,0.0,0.0,0.0,0.0,0.0,0.0,0.0,0.0,0.0,0.0,0.0,0.0,0.0,0.0,0.0,0.0,0.0,0.0,0.0,0.0,0.0,0.0,0.0,0.0,0.0,-0.1336,-0.1845,-0.2227,-0.2553,-0.32,-0.3837,0.0,0.0,0.0,0.0,0.0,0.0,0.0,0.0,0.0,0.0,0.0,0.0,0.0,0.0,0.0,0.0,0.0,0.0,0.0,0.0,0.0,0.0,0.0,0.0,0.0,0.0,0.0,0.0,0.0,0.0,0.0,0.0,0.0,0.0,0.0,0.0,0.0,0.0,0.0,0.0,0.0,0.0,0.0,0.0,0.0,0.0,0.0,0.0,0.0,0.0,0.0,0.0,0.0,0.0,0.0,0.0,0.0,0.0,0.0,0.0,0.0,0.0,0.0,0.0,0.0,0.0,0.0,0.0,0.0,0.0,0.0,0.0,0.0,0.0,0.0,0.0,0.0,0.0,0.0,0.0,0.0,0.0,0.0,0.0,0.0,0.0,0.0,0.0,0.0,0.0,0.0,0.0,0.0,0.0,0.0,0.0,0.0,0.0,0.0,0.0,0.0,0.0,0.0,0.0,0.0,0.0,0.0,0.0,0.0,-0.1767,0.0,-0.2785,-0.3134,-0.3845,-0.4434,0.0,0.0,0.0,0.0,0.0,0.0,0.0,0.0,0.0,0.0,0.0,0.0,0.0,0.0,0.0,0.0,0.0,0.0,0.0,0.0,0.0,0.0,0.0,0.0,0.0,0.0,0.0,0.0,0.0,0.0,0.0,0.0,0.0,0.0,0.0,0.0,0.0,0.0,0.0,0.0,0.0,0.0,0.0,0.0,0.0,0.0,0.0,0.0,0.0,0.0,0.0,0.0,0.0,0.0,0.0,0.0,0.0,0.0,0.0,0.0,0.0,0.0,0.0,0.0,0.0,0.0,0.0,0.0,0.0,0.0,0.0,0.0,0.0,0.0,0.0,0.0,0.0,0.0,0.0,0.0,0.0,0.0,0.0,0.0,0.0,0.0,0.0,0.0,0.0,0.0,0.0,0.0,0.0,0.0,0.0,0.0,0.0,0.0,0.0,0.0,0.0,0.0,0.0,0.0,0.0,0.0,0.0,0.0,-0.1806,-0.2196,-0.2627,-0.3176,-0.3798,-0.4477,-0.4973,0.0,0.0,0.0,0.0,0.0,0.0,0.0,0.0,0.0,0.0,0.0,0.0,0.0,0.0,0.0,0.0,0.0,0.0,0.0,0.0,0.0,0.0,0.0,0.0,0.0,0.0,0.0,0.0,0.0,0.0,0.0,0.0,0.0,0.0,0.0,0.0,0.0,0.0,0.0,0.0,0.0,0.0,0.0,0.0,0.0,0.0,0.0,0.0,0.0,0.0,0.0,0.0,0.0,0.0,0.0,0.0,0.0,0.0,0.0,0.0,0.0,0.0,0.0,0.0,0.0,0.0,0.0,0.0,0.0,0.0,0.0,0.0,0.0,0.0,0.0,0.0,0.0,0.0,0.0,0.0,0.0,0.0,0.0,0.0,0.0,0.0,0.0,0.0,0.0,0.0,0.0,0.0,0.0,0.0,0.0,0.0,0.0,0.0,0.0,0.0,0.0,0.0,0.0,0.0,0.0,0.0,0.0,0.0,0.0,-0.2821,-0.3524,-0.4148,-0.4613,-0.515,-0.5499,0.0,0.0,0.0,0.0,0.0,0.0,0.0,0.0,0.0,0.0,0.0,0.0,0.0,0.0,0.0,0.0,0.0,0.0,0.0,0.0,0.0,0.0,0.0,0.0,0.0,0.0,0.0,0.0,0.0,0.0,0.0,0.0,0.0,0.0,0.0,0.0,0.0,0.0,0.0,0.0,0.0,0.0,0.0,0.0,0.0,0.0,0.0,0.0,0.0,0.0,0.0,0.0,0.0,0.0,0.0,0.0,0.0,0.0,0.0,0.0,0.0,0.0,0.0,0.0,0.0,0.0,0.0,0.0,0.0,0.0,0.0,0.0,0.0,0.0,0.0,0.0,0.0,0.0,0.0,0.0,0.0,0.0,0.0,0.0,0.0,0.0,0.0,0.0,0.0,0.0,0.0,0.0,0.0,0.0,0.0,0.0,0.0,0.0,0.0,0.0,0.0,0.0,0.0,0.0,0.0,0.0,0.0,0.0,0.0,-0.4311,-0.4677,-0.5125,-0.5649,-0.5908,-0.6194,-0.6412,0.0,0.0,0.0,0.0,0.0,0.0,0.0,0.0,0.0,0.0,0.0,0.0,0.0,0.0,0.0,0.0,0.0,0.0,0.0,0.0,0.0,0.0,0.0,0.0,0.0,0.0,0.0,0.0,0.0,0.0,0.0,0.0,0.0,0.0,0.0,0.0,0.0,0.0,0.0,0.0,0.0,0.0,0.0,0.0,0.0,0.0,0.0,0.0,0.0,0.0,0.0,0.0,0.0,0.0,0.0,0.0,0.0,0.0,0.0,0.0,0.0,0.0,0.0,0.0,0.0,0.0,0.0,0.0,0.0,0.0,0.0,0.0,0.0,0.0,0.0,0.0,0.0,0.0,0.0,0.0,0.0,0.0,0.0,0.0,0.0,0.0,0.0,0.0,0.0,0.0,0.0,0.0,0.0,0.0,0.0,0.0,0.0,0.0,0.0,0.0,0.0,0.0,0.0,0.0,0.0,0.0,0.0,0.0,-0.6476,-0.6054,-0.6134,-0.6754,-0.6774,-0.7023,0.0,0.0,0.0,0.0,0.0,0.0,0.0,0.0,0.0,0.0,0.0,0.0,0.0,0.0,0.0,0.0,0.0,0.0,0.0,0.0,0.0,0.0,0.0,0.0,0.0,0.0,0.0,0.0,0.0,0.0,0.0,0.0,0.0,0.0,0.0,0.0,0.0,0.0,0.0,0.0,0.0,0.0,0.0,0.0,0.0,0.0,0.0,0.0,0.0,0.0,0.0,0.0,0.0,0.0,0.0,0.0,0.0,0.0,0.0,0.0,0.0,0.0,0.0,0.0,0.0,0.0,0.0,0.0,0.0,0.0,0.0,0.0,0.0,0.0,0.0,0.0,0.0,0.0,0.0,0.0,0.0,0.0,0.0,0.0,0.0,0.0,0.0,0.0,0.0,0.0,0.0,0.0,0.0,0.0,0.0,0.0,0.0,0.0,0.0,0.0,0.0,0.0,0.0,0.0,0.0,0.0,0.0,0.0,0.0,-0.7256,-0.7429,-0.7562,-0.7585,-0.78,-0.7839,0.0,0.0,0.0,0.0,0.0,0.0,0.0,0.0,0.0,0.0,0.0,0.0,0.0,0.0,0.0,0.0,0.0,0.0,0.0,0.0,0.0,0.0,0.0,0.0,0.0,0.0,0.0,0.0,0.0,0.0,0.0,0.0,0.0,0.0,0.0,0.0,0.0,0.0,0.0,0.0,0.0,0.0,0.0,0.0,0.0,0.0,0.0,0.0,0.0,0.0,0.0,0.0,0.0,0.0,0.0,0.0,0.0,0.0,0.0,0.0,0.0,0.0,0.0,0.0,0.0,0.0,0.0,0.0,0.0,0.0,0.0,0.0,0.0,0.0,0.0,0.0,0.0,0.0,0.0,0.0,0.0,0.0,0.0,0.0,0.0,0.0,0.0,0.0,0.0,0.0,0.0,0.0,0.0,0.0,0.0,0.0,0.0,0.0,0.0,0.0,0.0,0.0,0.0,0.0,0.0,0.0,0.0,0.0,-0.7085,-0.8049,-0.8427,-0.8608,-0.8598,-0.8552,-0.8477,0.0,0.0,0.0,0.0,0.0,0.0,0.0,0.0,0.0,0.0,0.0,0.0,0.0,0.0,0.0,0.0,0.0,0.0,0.0,0.0,0.0,0.0,0.0,0.0,0.0,0.0,0.0,0.0,0.0,0.0,0.0,0.0,0.0,0.0,0.0,0.0,0.0,0.0,0.0,0.0,0.0,0.0,0.0,0.0,0.0,0.0,0.0,0.0,0.0,0.0,0.0,0.0,0.0,0.0,0.0,0.0,0.0,0.0,0.0,0.0,0.0,0.0,0.0,0.0,0.0,0.0,0.0,0.0,0.0,0.0,0.0,0.0,0.0,0.0,0.0,0.0,0.0,0.0,0.0,0.0,0.0,0.0,0.0,0.0,0.0,0.0,0.0,0.0,0.0,0.0,0.0,0.0,0.0,0.0,0.0,0.0,0.0,0.0,0.0,0.0,0.0,0.0,0.0,0.0,0.0,0.0,0.0,0.0,-0.7958,-0.8734,-0.9013,-0.9335,-0.9562,-0.9167,-0.9038,0.0,0.0,0.0,0.0,0.0,0.0,0.0,0.0,0.0,0.0,0.0,0.0,0.0,0.0,0.0,0.0,0.0,0.0,0.0,0.0,0.0,0.0,0.0,0.0,0.0,0.0,0.0,0.0,0.0,0.0,0.0,0.0,0.0,0.0,0.0,0.0,0.0,0.0,0.0,0.0,0.0,0.0,0.0,0.0,0.0,0.0,0.0,0.0,0.0,0.0,0.0,0.0,0.0,0.0,0.0,0.0,0.0,0.0,0.0,0.0,0.0,0.0,0.0,0.0,0.0,0.0,0.0,0.0,0.0,0.0,0.0,0.0,0.0,0.0,0.0,0.0,0.0,0.0,0.0,0.0,0.0,0.0,0.0,0.0,0.0,0.0,0.0,0.0,0.0,0.0,0.0,0.0,0.0,0.0,0.0,0.0,0.0,0.0,0.0,0.0,0.0,0.0,0.0,0.0,0.0,0.0,0.0,0.0,-0.829,-0.8909,-0.9127,-0.9331,-0.9579,-0.9759,-0.9763,0.0,0.0,0.0,0.0,0.0,0.0,0.0,0.0,0.0,0.0,0.0,0.0,0.0,0.0,0.0,0.0,0.0,0.0,0.0,0.0,0.0,0.0,0.0,0.0,0.0,0.0,0.0,0.0,0.0,0.0,0.0,0.0,0.0,0.0,0.0,0.0,0.0,0.0,0.0,0.0,0.0,0.0,0.0,0.0,0.0,0.0,0.0,0.0,-0.7837,0.0,0.0,0.0,0.0,0.0,0.0,0.0,0.0,0.0,0.0,0.0,0.0,0.0,0.0,0.0,0.0,0.0,0.0,0.0,0.0,0.0,0.0,0.0,0.0,0.0,0.0,0.0,0.0,0.0,0.0,0.0,0.0,0.0,0.0,0.0,0.0,0.0,0.0,0.0,0.0,0.0,0.0,0.0,0.0,0.0,0.0,0.0,0.0,0.0,0.0,0.0,0.0,0.0,0.0,0.0,0.0,0.0,0.0,0.0,-0.866,-0.916,-0.9339,-0.9723,-1.0346,-1.0634,-1.0605,0.0,0.0,0.0,0.0,0.0,0.0,0.0,0.0,0.0,0.0,0.0,0.0,0.0,0.0,0.0,0.0,0.0,0.0,0.0,0.0,0.0,0.0,0.0,0.0,0.0,0.0,0.0,0.0,0.0,0.0,0.0,0.0,0.0,0.0,0.0,0.0,0.0,0.0,0.0,0.0,0.0,0.0,0.0,0.0,0.0,0.0,0.0,0.0,0.0,0.0,0.0,0.0,0.0,0.0,0.0,0.0,0.0,0.0,0.0,0.0,0.0,0.0,0.0,0.0,0.0,0.0,0.0,0.0,0.0,0.0,0.0,0.0,0.0,0.0,0.0,0.0,0.0,0.0,0.0,0.0,0.0,0.0,0.0,0.0,0.0,0.0,0.0,0.0,0.0,0.0,0.0,0.0,0.0,0.0,0.0,0.0,0.0,0.0,0.0,0.0,0.0,0.0,0.0,0.0,0.0,0.0,0.0,-0.8526,-0.895,-0.9393,-0.9551,-1.0113,-1.117,-1.1504,-1.1559,-1.1158,0.0,0.0,0.0,0.0,0.0,0.0,0.0,0.0,0.0,0.0,0.0,0.0,0.0,0.0,0.0,0.0,0.0,0.0,0.0,0.0,0.0,0.0,0.0,0.0,0.0,0.0,0.0,0.0,0.0,0.0,0.0,0.0,0.0,0.0,0.0,0.0,0.0,0.0,-0.3841,-0.431,0.0,0.0,0.0,0.0,0.0,0.0,0.0,0.0,-0.8369,0.0,0.0,0.0,0.0,0.0,0.0,0.0,0.0,0.0,0.0,0.0,0.0,0.0,0.0,0.0,0.0,0.0,0.0,0.0,0.0,0.0,0.0,0.0,0.0,0.0,0.0,0.0,0.0,0.0,0.0,0.0,0.0,0.0,0.0,0.0,0.0,0.0,0.0,0.0,0.0,0.0,0.0,0.0,0.0,0.0,0.0,0.0,0.0,0.0,0.0,0.0,0.0,0.0,0.0,0.0,0.0,-0.8686,-0.8924,-0.9203,-0.9571,-0.9562,-1.0113,-1.1165,-1.1833,-1.2341,-1.2612,0.0,0.0,0.0,0.0,0.0,0.0,0.0,0.0,0.0,0.0,0.0,0.0,0.0,0.0,0.0,0.0,0.0,0.0,0.0,0.0,0.0,0.0,0.0,0.0,0.0,0.0,0.0,0.0,0.0,0.0,0.0,0.0,0.0,0.0,0.0,0.0,0.0,0.0,0.0,-0.458,-0.5212,0.0,0.0,0.0,0.0,0.0,0.0,0.0,0.0,-0.8678,0.0,0.0,0.0,0.0,0.0,0.0,0.0,0.0,0.0,0.0,0.0,0.0,0.0,0.0,0.0,0.0,0.0,0.0,0.0,0.0,0.0,0.0,0.0,0.0,0.0,0.0,0.0,0.0,0.0,0.0,0.0,0.0,0.0,0.0,0.0,0.0,0.0,0.0,0.0,0.0,0.0,0.0,0.0,0.0,0.0,0.0,0.0,0.0,0.0,0.0,0.0,0.0,0.0,0.0,0.0,-0.8812,-0.9092,-0.9644,-1.0391,-1.0449,-1.1179,-1.2727,-1.2975,-1.3307,0.0,0.0,0.0,0.0,0.0,0.0,0.0,0.0,0.0,0.0,0.0,0.0,0.0,0.0,0.0,0.0,0.0,0.0,0.0,0.0,0.0,0.0,0.0,0.0,0.0,0.0,0.0,0.0,0.0,0.0,0.0,0.0,0.0,0.0,0.0,0.0,0.0,0.0,0.0,0.0,-0.5299,-0.6071,-0.6558,0.0,0.0,0.0,0.0,0.0,0.0,-0.9087,-0.9223,0.0,0.0,0.0,0.0,0.0,0.0,0.0,0.0,0.0,0.0,0.0,0.0,0.0,0.0,0.0,0.0,0.0,0.0,0.0,0.0,0.0,0.0,0.0,0.0,0.0,0.0,0.0,0.0,0.0,0.0,0.0,0.0,0.0,0.0,0.0,0.0,0.0,0.0,0.0,0.0,0.0,0.0,0.0,0.0,0.0,0.0,0.0,0.0,0.0,0.0,0.0,0.0,0.0,0.0,0.0,-0.8914,-0.9237,-0.9965,-1.1161,-1.1219,-1.2198,-1.419,-1.3919,-1.3958,0.0,0.0,0.0,0.0,0.0,0.0,0.0,0.0,0.0,0.0,0.0,0.0,0.0,0.0,0.0,0.0,0.0,0.0,0.0,0.0,0.0,0.0,0.0,0.0,0.0,0.0,0.0,0.0,0.0,0.0,0.0,0.0,0.0,0.0,0.0,0.0,0.0,0.0,0.0,0.0,0.0,-0.6882,-0.7344,-0.7911,0.0,0.0,0.0,0.0,-0.9479,-0.9758,0.0,0.0,0.0,0.0,0.0,0.0,0.0,0.0,0.0,0.0,0.0,0.0,0.0,0.0,0.0,0.0,0.0,0.0,0.0,0.0,0.0,0.0,0.0,0.0,0.0,0.0,0.0,0.0,0.0,0.0,0.0,0.0,0.0,0.0,0.0,0.0,0.0,0.0,0.0,0.0,0.0,0.0,0.0,0.0,0.0,0.0,0.0,0.0,0.0,0.0,0.0,0.0,0.0,0.0,0.0,0.0,-0.9322,-0.9345,-1.0018,-1.1112,-1.1219,-1.2198,-1.4238,-1.3745,-1.364,0.0,0.0,0.0,0.0,0.0,0.0,0.0,0.0,0.0,0.0,0.0,0.0,0.0,0.0,0.0,0.0,0.0,0.0,0.0,0.0,0.0,0.0,0.0,0.0,0.0,0.0,0.0,0.0,0.0,0.0,0.0,0.0,0.0,0.0,0.0,0.0,0.0,0.0,0.0,0.0,0.0,-0.7256,-0.7733,-0.8176,-0.8615,0.0,0.0,-0.9448,-1.0605,-1.0991,0.0,0.0,0.0,0.0,0.0,0.0,0.0,0.0,0.0,0.0,0.0,0.0,0.0,0.0,0.0,0.0,0.0,0.0,0.0,0.0,0.0,0.0,0.0,0.0,0.0,0.0,0.0,0.0,0.0,0.0,0.0,0.0,0.0,0.0,0.0,0.0,0.0,0.0,0.0,0.0,0.0,0.0,0.0,0.0,0.0,0.0,0.0,0.0,0.0,0.0,0.0,0.0,0.0,0.0,0.0,-0.9354,-0.9452,-1.0644,-1.1521,-1.2042,-1.2635,-1.3655,-1.5112,-1.4603,-1.4235,0.0,0.0,0.0,0.0,0.0,0.0,0.0,0.0,0.0,0.0,0.0,0.0,0.0,0.0,0.0,0.0,0.0,0.0,0.0,0.0,0.0,0.0,0.0,0.0,0.0,0.0,0.0,0.0,0.0,0.0,0.0,0.0,0.0,0.0,0.0,0.0,0.0,0.0,0.0,0.0,0.0,0.0,-0.852,-0.8842,0.0,0.0,0.0,-1.0154,-1.0186,0.0,0.0,0.0,0.0,0.0,0.0,0.0,0.0,0.0,0.0,0.0,0.0,0.0,0.0,0.0,0.0,0.0,0.0,0.0,0.0,0.0,0.0,0.0,0.0,0.0,0.0,0.0,0.0,0.0,0.0,0.0,0.0,0.0,0.0,0.0,0.0,0.0,0.0,0.0,0.0,0.0,0.0,0.0,0.0,0.0,0.0,0.0,0.0,0.0,0.0,0.0,0.0,0.0,0.0,0.0,0.0,0.0,-1.001,-1.1781,-1.2829,-1.3125,-1.3859,-1.4777,-1.5724,-1.5337,0.0,0.0,0.0,0.0,0.0,0.0,0.0,0.0,0.0,0.0,0.0,0.0,0.0,0.0,0.0,0.0,0.0,0.0,0.0,0.0,0.0,0.0,0.0,0.0,0.0,0.0,0.0,-0.7567,0.0,0.0,0.0,0.0,0.0,0.0,0.0,0.0,0.0,0.0,0.0,0.0,0.0,0.0,-0.8855,-0.9143,-0.9456,-0.9669,0.0,0.0,-1.0811,-1.0671,-1.2333,-1.3461,0.0,0.0,0.0,0.0,0.0,0.0,0.0,0.0,0.0,0.0,0.0,0.0,0.0,0.0,0.0,0.0,0.0,0.0,0.0,0.0,0.0,0.0,0.0,0.0,0.0,0.0,0.0,0.0,0.0,0.0,0.0,0.0,0.0,0.0,0.0,0.0,0.0,0.0,0.0,0.0,0.0,0.0,0.0,0.0,0.0,0.0,0.0,0.0,0.0,0.0,0.0,0.0,0.0,0.0,0.0,-1.1538,-1.2305,-1.3216,-1.4148,-1.425,-1.4777,-1.573,-1.5524,-1.4963,0.0,0.0,0.0,0.0,0.0,0.0,0.0,0.0,0.0,0.0,0.0,0.0,0.0,0.0,0.0,0.0,0.0,0.0,0.0,0.0,0.0,0.0,0.0,0.0,0.0,0.0,0.0,0.0,0.0,0.0,0.0,0.0,0.0,0.0,0.0,0.0,0.0,0.0,0.0,0.0,0.0,-0.9698,-0.9418,-0.9982,-1.0426,0.0,0.0,-1.1265,-1.3362,-1.3962,-1.4487,-1.5273,0.0,0.0,0.0,0.0,0.0,0.0,0.0,0.0,0.0,0.0,0.0,0.0,0.0,0.0,0.0,0.0,0.0,0.0,0.0,0.0,0.0,0.0,0.0,0.0,0.0,0.0,0.0,0.0,0.0,0.0,0.0,0.0,0.0,0.0,0.0,0.0,0.0,0.0,0.0,0.0,0.0,0.0,0.0,0.0,0.0,0.0,0.0,0.0,0.0,0.0,0.0,0.0,0.0,-1.1553,-1.19,-1.3679,-1.4526,-1.4346,-1.4921,-1.5397,-1.5778,-1.5545,-1.507,0.0,0.0,0.0,0.0,0.0,0.0,0.0,0.0,0.0,0.0,0.0,0.0,0.0,0.0,0.0,0.0,0.0,0.0,0.0,0.0,0.0,0.0,0.0,0.0,0.0,0.0,0.0,0.0,-0.8197,-0.8472,-0.8774,0.0,0.0,0.0,0.0,0.0,0.0,0.0,0.0,0.0,0.0,-1.0203,-1.0519,-1.1208,0.0,0.0,-1.2335,-1.3159,-1.279,-1.4374,-1.5429,-1.4787,-1.5283,0.0,0.0,0.0,0.0,0.0,0.0,0.0,0.0,0.0,0.0,0.0,0.0,0.0,0.0,0.0,0.0,0.0,0.0,0.0,0.0,0.0,0.0,0.0,0.0,0.0,0.0,0.0,0.0,0.0,0.0,0.0,0.0,0.0,0.0,0.0,0.0,0.0,0.0,0.0,0.0,0.0,0.0,0.0,0.0,0.0,0.0,0.0,0.0,0.0,0.0,0.0,0.0,-1.2397,-1.2677,-1.4731,-1.5445,-1.4771,-1.5445,-1.5825,-1.5818,-1.5631,-1.5251,0.0,0.0,0.0,0.0,0.0,0.0,0.0,0.0,0.0,0.0,0.0,0.0,0.0,0.0,0.0,0.0,0.0,0.0,0.0,0.0,0.0,0.0,0.0,0.0,0.0,0.0,0.0,0.0,-0.8552,-0.8948,-0.9357,0.0,0.0,0.0,0.0,0.0,0.0,0.0,0.0,0.0,0.0,-1.0931,-1.1353,-1.2083,-1.2432,-1.1894,-1.3579,-1.4372,-1.3095,-1.478,-1.5899,-1.4865,0.0,0.0,0.0,0.0,0.0,0.0,0.0,0.0,0.0,0.0,0.0,0.0,0.0,0.0,0.0,0.0,0.0,0.0,0.0,0.0,0.0,0.0,0.0,0.0,0.0,0.0,0.0,0.0,0.0,0.0,-0.6306,0.0,0.0,0.0,0.0,0.0,0.0,0.0,0.0,0.0,0.0,0.0,0.0,0.0,0.0,0.0,0.0,0.0,0.0,0.0,0.0,0.0,0.0,-1.3324,-1.4224,-1.5245,-1.5778,-1.573,-1.5778,-1.5825,-1.5825,-1.5818,-1.5545,-1.5008,0.0,0.0,0.0,0.0,0.0,0.0,0.0,0.0,0.0,0.0,0.0,0.0,0.0,0.0,0.0,0.0,0.0,0.0,0.0,0.0,0.0,0.0,0.0,0.0,0.0,0.0,-0.8556,-0.9005,-0.939,0.0,0.0,0.0,0.0,0.0,0.0,0.0,0.0,0.0,0.0,-1.16,-1.1942,-1.1672,-1.2441,-1.3121,-1.3044,-1.3826,-1.457,-1.5094,-1.5509,-1.5864,0.0,0.0,0.0,0.0,0.0,0.0,0.0,0.0,0.0,0.0,0.0,0.0,0.0,0.0,0.0,0.0,0.0,0.0,0.0,0.0,0.0,0.0,0.0,0.0,0.0,0.0,0.0,-0.6776,-0.6766,0.0,0.0,0.0,0.0,0.0,0.0,0.0,0.0,0.0,0.0,0.0,-0.7366,-0.7272,0.0,0.0,0.0,0.0,0.0,0.0,0.0,0.0,0.0,0.0,0.0,0.0,-1.3535,-1.4495,-1.5345,-1.5825,-1.5825,-1.5825,-1.5825,-1.5825,-1.5825,-1.5558,-1.5022,0.0,0.0,0.0,0.0,0.0,0.0,0.0,0.0,0.0,0.0,0.0,0.0,0.0,0.0,0.0,0.0,0.0,0.0,0.0,0.0,0.0,0.0,0.0,0.0,0.0,-0.8772,0.0,0.0,0.0,0.0,0.0,0.0,0.0,0.0,0.0,0.0,0.0,-1.1579,-1.1908,-1.2247,-1.2587,-1.2757,-1.3652,-1.4275,0.0,0.0,0.0,0.0,0.0,0.0,0.0,0.0,0.0,0.0,0.0,0.0,0.0,0.0,-1.5453,-1.4912,-1.4993,-1.5175,-1.5182,0.0,0.0,0.0,0.0,0.0,0.0,0.0,0.0,0.0,0.0,0.0,0.0,0.0,0.0,0.0,0.0,-0.6976,0.0,0.0,0.0,0.0,0.0,0.0,0.0,0.0,-0.738,-0.7533,-0.7668,-0.757,-0.7526,0.0,-0.7514,-0.7563,0.0,0.0,0.0,0.0,0.0,0.0,0.0,0.0,-1.3844,-1.4726,-1.5438,-1.5825,-1.5825,-1.5825,-1.5825,-1.5825,-1.5825,-1.5651,-1.5277,-1.4603,-1.4062,0.0,0.0,0.0,0.0,0.0,0.0,0.0,0.0,0.0,0.0,0.0,0.0,0.0,0.0,0.0,0.0,0.0,0.0,0.0,0.0,0.0,0.0,0.0,-0.937,0.0,0.0,0.0,0.0,0.0,0.0,0.0,0.0,0.0,-1.2447,-1.2477,-1.2681,-1.2973,-1.3197,-1.3452,-1.3727,0.0,0.0,0.0,0.0,0.0,0.0,0.0,-1.6829,-1.6617,-1.658,-1.658,-1.658,-1.6492,-1.6411,-1.6411,0.0,0.0,-1.5726,-1.5789,-1.5931,-1.5931,-1.5931,-1.5931,-1.5969,-1.5931,-1.5969,0.0,0.0,0.0,0.0,0.0,0.0,0.0,0.0,-0.7429,-0.7433,0.0,-0.7373,0.0,0.0,0.0,0.0,0.0,-0.7227,0.0,0.0,-0.7818,-0.7953,-0.7821,-0.7814,-0.7818,-0.7811,-0.7678,-0.7701,-0.7912,-0.8072,0.0,0.0,0.0,0.0,0.0,0.0,-1.4216,-1.4977,-1.5545,-1.5825,-1.5825,-1.5825,-1.5825,-1.5825,-1.5825,-1.5818,-1.5744,-1.4983,-1.4522,-1.4496,-1.3447,0.0,0.0,0.0,0.0,0.0,0.0,0.0,0.0,0.0,0.0,0.0,0.0,0.0,0.0,0.0,0.0,0.0,0.0,0.0,0.0,-0.9622,0.0,0.0,0.0,0.0,0.0,0.0,0.0,0.0,0.0,0.0,-1.3611,-1.39,-1.4205,-1.4218,0.0,0.0,0.0,0.0,-1.5785,-1.576,-1.6434,-1.6904,-1.6593,-1.6757,-1.6917,-1.6917,0.0,0.0,-1.6917,-1.6661,-1.6463,-1.6448,-1.6719,-1.6815,-1.6469,-1.6426,-1.6433,-1.6426,-1.644,-1.6455,-1.6448,-1.6425,-1.6455,-0.1036,0.0,0.0,0.0,0.0,-0.5336,-0.6336,-0.7685,-0.7685,-0.7685,-0.7682,-0.7577,0.0,0.0,0.0,0.0,0.0,0.0,-0.7531,-0.7689,-0.7818,-0.7913,-0.7924,-0.7924,-0.7924,-0.7924,-0.7929,-0.7913,-0.8004,-0.8779,-0.9267,-0.951,0.0,0.0,0.0,0.0,-1.4639,-1.5257,-1.5638,-1.5825,-1.5825,-1.5825,-1.5825,-1.5825,-1.5825,-1.5825,-1.5778,-1.519,-1.4743,-1.4522,-1.3801,0.0,0.0,0.0,0.0,0.0,0.0,0.0,0.0,0.0,0.0,0.0,0.0,0.0,0.0,0.0,0.0,0.0,0.0,0.0,-1.1184,-1.1537,-1.1903,0.0,0.0,0.0,0.0,0.0,0.0,0.0,0.0,0.0,-1.5294,-1.471,-1.4445,0.0,0.0,-1.5079,-1.5304,-1.5673,-1.612,-1.6572,0.0,0.0,0.0,-1.7301,-1.7194,-1.7194,-1.7194,-1.7194,-1.7194,-1.7074,-1.7047,-1.7047,-1.7128,-1.7157,-1.7077,-1.7055,-1.7047,-1.7055,-1.7055,-1.7047,-1.7055,-1.7055,-1.7139,-0.0551,-0.1078,-0.1587,-0.2756,-0.4303,-0.5068,-0.6117,-0.7263,-0.7707,-0.7899,-0.7847,-0.7814,-0.7689,-0.7536,-0.739,0.0,0.0,0.0,-0.7675,-0.7853,-0.7902,-0.795,-0.7985,-0.7988,-0.7988,-0.7988,-0.7988,-0.8233,-0.8627,-0.9584,-1.0376,-1.0985,0.0,0.0,-1.3527,-1.4324,-1.493,-1.5384,-1.5685,-1.5825,-1.5825,-1.5825,-1.5825,-1.5825,-1.5825,-1.5825,-1.5771,-1.5271,-1.4921,-1.4696,-1.3979,-1.3433,0.0,0.0,0.0,0.0,0.0,0.0,0.0,0.0,0.0,0.0,0.0,-1.2752,-1.2651,0.0,0.0,0.0,-1.2263,-1.2001,-1.1794,-1.2243,0.0,0.0,0.0,0.0,0.0,0.0,0.0,-1.504,-1.5867,-1.637,-1.6175,-1.5585,-1.532,-1.567,-1.5768,-1.5904,-1.5961,0.0,-1.6629,-1.6936,-1.6999,-1.7179,-1.756,-1.741,-1.7286,-1.7286,-1.7286,-1.7286,-1.7286,-1.7286,-1.7286,-1.7286,-1.7286,-1.7286,-1.7286,-1.7286,-1.7286,-1.7286,-1.7286,-1.7286,-1.7286,-1.7606,-1.8017,-0.016,-0.0531,-0.1389,-0.2379,-0.354,-0.4912,-0.58,-0.6484,-0.7534,-0.7988,-0.7988,-0.7988,-0.7911,-0.7821,-0.7692,0.0,-0.7828,-0.7831,-0.7853,-0.7988,-0.7988,-0.7988,-0.7988,-0.7988,-0.7988,-0.7988,-0.8091,-0.863,-0.9649,-1.0553,-1.1604,-1.2781,-1.283,-1.3315,-1.4265,-1.4774,-1.5137,-1.5431,-1.5698,-1.5825,-1.5825,-1.5825,-1.5825,-1.5825,-1.5825,-1.5825,-1.5812,-1.5271,-1.5015,-1.4981,-1.4142,-1.3626,-1.3586,0.0,0.0,0.0,0.0,0.0,0.0,0.0,0.0,0.0,0.0,0.0,0.0,0.0,0.0,0.0,-1.3014,0.0,-1.169,-1.2408,0.0,0.0,0.0,-1.5168,-1.5718,-1.596,-1.6056,-1.6027,0.0,0.0,-1.6455,0.0,-1.6557,-1.6895,-1.691,-1.68,-1.6529,-1.6899,-1.7223,-1.6967,-1.7143,-1.7279,-1.7355,-1.734,-1.7286,-1.7286,-1.7286,-1.7286,-1.7286,-1.7286,-1.7286,-1.7286,-1.7286,-1.7286,-1.7286,-1.7286,-1.7286,-1.7286,-1.7372,-1.7473,-1.7512,-1.8241,-1.9018,-0.0322,-0.0813,-0.1053,-0.1808,-0.3066,-0.4438,-0.5581,-0.6487,-0.7537,-0.7988,-0.7988,-0.7988,-0.7971,-0.7931,-0.7901,-0.7904,-0.7938,-0.7938,-0.7955,-0.7988,-0.7988,-0.7988,-0.7988,-0.7988,-0.7988,-0.8038,-0.8825,-0.9464,-0.9998,-1.1706,-1.2934,-1.3641,-1.4407,-1.486,-1.4878,-1.5166,-1.5438,-1.5725,-1.5744,-1.5825,-1.5825,-1.5825,-1.5825,-1.5825,-1.5825,-1.5825,-1.5818,-1.5277,-1.5015,-1.4995,-1.4335,-1.3881,-1.3606,-1.326,0.0,0.0,0.0,0.0,0.0,0.0,0.0,0.0,0.0,-1.31,-1.31,0.0,-1.3858,0.0,-1.42,-1.4411,-1.4423,-1.4805,0.0,0.0,-1.5508,-1.5846,-1.619,-1.6504,-1.66,-1.6308,-1.6753,-1.7004,-1.6815,-1.6952,-1.7128,-1.7201,-1.7004,-1.6916,-1.7077,-1.7169,-1.7304,-1.7238,-1.7228,-1.7286,-1.7286,-1.7286,-1.7286,-1.7286,-1.7286,-1.7286,-1.7286,-1.7286,-1.7286,-1.7286,-1.7286,-1.7286,-1.7286,-1.7286,-1.7286,-1.7372,-1.7917,-1.8427,-1.8473,-1.9376,-2.0277,-0.0218,-0.0546,-0.0758,-0.1281,-0.2097,-0.4134,-0.5281,-0.5855,-0.7431,-0.8052,-0.7988,-0.7988,-0.7988,-0.7988,-0.7988,-0.7988,-0.7988,-0.7988,-0.7988,-0.7988,-0.7988,-0.7988,-0.8038,-0.8482,-0.8775,-0.892,-0.9998,-1.0877,-1.1609,-1.2866,-1.3836,-1.4609,-1.5296,-1.5556,-1.5411,-1.5538,-1.5671,-1.5825,-1.5825,-1.5825,-1.5825,-1.5825,-1.5772,-1.5638,-1.5638,-1.5511,-1.5212,-1.481,-1.4553,-1.4369,-1.3941,-1.3621,-1.3413,-1.3166,-1.2965,0.0,0.0,0.0,0.0,0.0,0.0,0.0,0.0,0.0,0.0,0.0,-1.4335,-1.4506,-1.489,-1.5216,-1.5327,-1.5606,-1.5826,-1.601,-1.628,-1.651,-1.6784,-1.6952,-1.6996,-1.6821,-1.7113,-1.722,-1.7091,-1.7223,-1.7286,-1.7286,-1.7179,-1.7128,-1.7242,-1.7286,-1.7286,-1.7286,-1.7286,-1.7286,-1.7286,-1.7286,-1.7286,-1.7286,-1.7286,-1.7286,-1.7286,-1.7286,-1.7286,-1.7286,-1.7286,-1.7286,-1.7286,-1.7286,-1.7419,-1.8102,-1.8918,-1.9376,-1.9047,-2.0141,-2.1355,-0.0056,-0.0164,-0.0656,-0.092,-0.1226,-0.3932,-0.5051,-0.5083,-0.7307,-0.8211,-0.8022,-0.8019,-0.8008,-0.7988,-0.7988,-0.7988,-0.7988,-0.7988,-0.7988,-0.7988,-0.8134,-0.8187,-0.8237,-0.9312,-0.9948,-1.0194,-1.1219,-1.2344,-1.3511,-1.3884,-1.4567,-1.5493,-1.573,-1.5764,-1.5724,-1.5772,-1.5744,-1.5825,-1.5751,-1.5724,-1.5731,-1.5738,-1.5598,-1.5357,-1.5304,-1.5044,-1.4543,-1.4202,-1.3915,-1.3613,-1.3327,-1.3227,-1.3253,-1.3018,-1.2864,0.0,-1.2579,0.0,0.0,0.0,0.0,0.0,0.0,0.0,0.0,-1.4213,-1.4696,-1.5035,-1.5244,-1.5396,-1.5431,-1.5642,-1.6038,-1.6483,-1.6779,-1.7026,-1.7235,-1.7286,-1.7286,-1.7286,-1.7286,-1.7286,-1.7271,-1.7286,-1.7286,-1.7286,-1.7271,-1.7264,-1.7326,-1.7286,-1.7286,-1.7286,-1.7286,-1.7286,-1.7286,-1.7286,-1.7286,-1.7286,-1.7286,-1.7286,-1.7286,-1.7286,-1.7286,-1.7333,-1.7466,-1.7559,-1.7512,-1.7598,-1.8056,-1.9047,-1.9997,-2.0458,-1.9997,-2.1087,-2.234,-0.0278,-0.0711,-0.082,-0.1136,-0.1758,-0.4092,-0.5088,-0.5231,-0.7494,-0.836,-0.8228,-0.8228,-0.8157,-0.7992,-0.7988,-0.7988,-0.7988,-0.7988,-0.7988,-0.8038,-0.892,-0.9312,-0.9361,-1.0386,-1.0925,-1.1023,-1.1999,-1.2877,-1.3511,-1.4442,-1.5166,-1.573,-1.5784,-1.5705,-1.5491,0.0,0.0,0.0,-1.5598,-1.5478,-1.5471,-1.5251,-1.5149,-1.5089,-1.481,0.0,-1.4509,-1.3966,-1.366,-1.36,-1.3373,0.0,0.0,0.0,0.0,0.0,0.0,0.0,0.0,0.0,0.0,0.0,-1.3814,-1.4041,-1.4335,-1.4676,-1.5003,-1.5284,-1.5371,-1.5564,-1.5979,-1.628,-1.6535,-1.6879,-1.7105,-1.7267,-1.7326,-1.7286,-1.7286,-1.7286,-1.7286,-1.7286,-1.7286,-1.7286,-1.7286,-1.7286,-1.7286,-1.7286,-1.7286,-1.7286,-1.7286,-1.7286,-1.7286,-1.7286,-1.7286,-1.7286,-1.7286,-1.7286,-1.7286,-1.7286,-1.7286,-1.7286,-1.7286,-1.7333,-1.7963,-1.8465,-1.8519,-1.9101,-1.9596,-1.996,-2.0773,-2.1552,-2.1765,-2.2843,-2.3797,-0.0165,0.0,-0.0749,-0.1385,0.0,-0.4357,-0.5523,-0.6197,-0.7731,-0.834,-0.8275,-0.8343,-0.8296,-0.8153,-0.8153,-0.8113,-0.7988,-0.7988,-0.7988,-0.8038,-0.8531,-0.9118,-0.9657,-1.0681,-1.1512,-1.2193,-1.3221,-1.3908,-1.4292,-1.4694,-1.5055,-1.5417,-1.5285,-1.518,-1.5184,-1.5229,-1.5257,-1.5398,-1.5257,-1.5184,-1.5223,-1.5082,-1.4941,-1.475,0.0,0.0,0.0,0.0,0.0,0.0,0.0,0.0,0.0,0.0,0.0,-1.338,-1.3253,-1.3273,-1.3373,-1.3561,-1.3834,-1.4269,-1.4703,-1.4943,-1.495,-1.5224,-1.5451,-1.5591,-1.5705,-1.596,-1.6339,-1.6643,-1.6871,-1.7106,-1.7239,-1.7286,-1.7286,-1.7286,-1.7286,-1.7286,-1.7286,-1.7286,-1.7286,-1.7286,-1.7286,-1.7286,-1.7286,-1.7286,-1.7286,-1.7286,-1.7286,-1.7286,-1.7286,-1.7286,-1.7286,-1.7286,-1.7286,-1.7286,-1.7286,-1.7286,-1.7286,-1.7286,-1.7286,-1.7372,-1.8102,-1.8796,-1.888,-1.9559,-2.0367,-2.0953,-2.1498,-2.2138,-2.2896,-2.357,-2.4067,-0.0054,-0.0214,-0.0633,-0.1476,-0.266,-0.4462,-0.6043,-0.7399,0.0,0.0,0.0,-0.8472,-0.8442,-0.8361,-0.8309,-0.8225,-0.8032,-0.8029,-0.8065,-0.8038,-0.8187,-0.8871,-0.9899,-1.0974,-1.2101,-1.3318,-1.4154,-1.4715,-1.4946,-1.4667,-1.4667,-1.4825,-1.4663,-1.4706,-1.489,-1.4928,-1.4928,-1.489,-1.4981,-1.4981,-1.4934,-1.4928,-1.4743,-1.4449,-1.4352,-1.4099,-1.362,-1.3553,-1.3413,-1.3227,-1.3206,-1.324,-1.3287,-1.3287,-1.3313,-1.336,-1.3367,-1.3467,-1.3666,-1.3948,-1.4385,-1.4968,-1.5498,-1.5725,-1.5484,-1.5698,-1.5825,-1.5825,-1.6028,-1.6312,-1.6588,-1.6831,-1.7066,-1.7286,-1.7286,-1.7286,-1.7286,-1.7286,-1.7286,-1.7286,-1.7286,-1.7286,-1.7286,-1.7286,-1.7286,-1.7286,-1.7286,-1.7286,-1.7286,-1.7286,-1.7286,-1.7286,-1.7286,-1.7286,-1.7286,-1.7286,-1.7286,-1.7286,-1.7286,-1.7286,-1.7286,-1.7286,-1.7286,-1.7286,-1.8249,-1.8972,-1.9155,-2.0059,-2.0998,-2.1996,-2.2217,-2.2492,-2.344,-2.3754,-2.3884,-0.0277,-0.0762,-0.0869,-0.1239,-0.2023,-0.4196,-0.6331,-0.8292,-0.8649,-0.8771,-0.8652,-0.8672,-0.8598,-0.8452,-0.8452,-0.8377,-0.8292,-0.8289,-0.817,0.0,-0.8973,-0.9948,-1.1023,-1.1999,-1.3071,-1.4082,-1.4063,-1.4154,-1.4363,-1.416,-1.4119,-1.4379,-1.452,-1.4556,-1.4559,-1.4583,-1.4583,-1.4546,-1.4881,-1.4836,-1.4589,-1.4583,-1.4442,-1.4155,-1.3866,-1.3693,-1.3606,-1.3373,-1.3214,-1.322,-1.3206,-1.3327,-1.352,-1.3547,-1.3653,-1.3941,-1.3961,-1.3981,-1.4015,-1.4068,-1.4342,-1.4968,-1.5498,-1.5812,-1.5772,-1.5758,-1.5825,-1.5825,-1.6021,-1.6312,-1.6588,-1.6824,-1.7066,-1.7239,-1.7286,-1.7286,-1.7286,-1.7286,-1.7286,-1.7286,-1.7286,-1.7286,-1.7286,-1.7286,-1.7286,-1.7286,-1.7286,-1.7286,-1.7286,-1.7286,-1.7286,-1.7286,-1.7286,-1.7286,-1.7286,-1.7286,-1.7286,-1.7286,-1.7286,-1.7333,-1.7419,-1.7333,-1.738,-1.7372,-1.878,-1.9824,-2.0005,-2.1507,-2.2413,-2.2862,-2.2862,-2.3047,-2.345,-2.3547,-2.3677,-0.0165,-0.0437,-0.0758,-0.1403,-0.243,-0.506,-0.7148,-0.8686,-0.8821,-0.8797,-0.8726,-0.8798,-0.8747,-0.8611,-0.8608,-0.8523,-0.8384,-0.8387,-0.8306,-0.8221,-0.8664,-0.9406,-1.0337,-1.1245,-1.2204,-1.3199,-1.3537,-1.374,-1.3854,-1.3615,-1.3608,-1.3862,-1.404,-1.4152,-1.4137,-1.4286,-1.4408,-1.4528,-1.4852,-1.4897,-1.4763,-1.4603,-1.4462,-1.4322,-1.4035,-1.3881,-1.3881,-1.3754,-1.3687,-1.3687,-1.3687,-1.3748,-1.3874,-1.3881,-1.415,-1.4727,-1.4377,-1.4292,-1.479,-1.4477,-1.4787,-1.5808,-1.62,-1.6206,-1.5818,-1.5825,-1.5825,-1.5825,-1.6163,-1.6447,-1.6588,-1.6911,-1.72,-1.7286,-1.7286,-1.7286,-1.7286,-1.7286,-1.7286,-1.7286,-1.7286,-1.7286,-1.7286,-1.7286,-1.7286,-1.7286,-1.7286,-1.7286,-1.7286,-1.7286,-1.7286,-1.7286,-1.7286,-1.7286,-1.7286,-1.7286,-1.7286,-1.7286,-1.7286,-1.7559,-1.7878,-1.7792,-1.7785,-1.8696,-1.9687,-2.0322,-2.0827,-2.2094,-2.2916,-2.3101,-2.3101,-2.3188,-2.3276,-2.3373,-2.359,-0.0055,-0.0165,-0.0597,-0.1575,-0.3021,-0.5499,-0.7318,-0.8491,-0.8771,-0.8872,-0.8788,-0.8834,-0.8817,-0.8771,-0.876,-0.8676,-0.855,-0.8533,-0.8455,-0.8378,-0.8337,-0.874,-0.9604,-1.0241,-1.1124,-1.2186,-1.2808,-1.3191,-1.3354,-1.3157,-1.3192,-1.3498,-1.3737,-1.3862,-1.3862,-1.4154,-1.4384,-1.4605,-1.4903,-1.5006,-1.5008,-1.4796,-1.4612,-1.4509,-1.4302,-1.4162,-1.4095,-1.4088,-1.4088,-1.413,-1.4292,-1.4412,-1.4419,-1.458,-1.4992,-1.556,-1.4866,-1.458,-1.4999,-1.4728,-1.4974,-1.6079,-1.6438,-1.6303,-1.5792,-1.5744,-1.5825,-1.5872,-1.6211,-1.6494,-1.6636,-1.6958,-1.7239,-1.7286,-1.7286,-1.7286,-1.7286,-1.7286,-1.7286,-1.7286,-1.7286,-1.7286,-1.7286,-1.7286,-1.7286,-1.7286,-1.7286,-1.7286,-1.7286,-1.7286,-1.7286,-1.7286,-1.7286,-1.7286,-1.7333,-1.7559,-1.7645,-1.7645,-1.7917,-1.8373,-1.8834,-1.8419,-1.8465,-1.9778,-2.0367,-2.0827,-2.1606,-2.2467,-2.3013,-2.3101,-2.3101,-2.3101,-2.3144,-2.3276,-2.3503,-0.0168,-0.0336,-0.0446,-0.1451,-0.3123,-0.4576,-0.5973,-0.7374,-0.8436,-0.8881,-0.8858,-0.8878,-0.8875,-0.8865,-0.8858,-0.8774,-0.8693,-0.8689,-0.8604,-0.8504,-0.8381,-0.874,-0.9493,-0.9554,-1.0429,-1.186,-1.1952,-1.2343,-1.3007,-1.2842,-1.3003,-1.3461,-1.3759,-1.398,-1.4153,-1.4393,-1.4572,-1.4625,-1.492,-1.5085,-1.501,-1.5197,-1.507,-1.4529,-1.4496,-1.4355,-1.4122,-1.4088,-1.4088,-1.4173,-1.4824,-1.5228,-1.5311,-1.5966,-1.6453,-1.6486,-1.5718,-1.4985,-1.4348,-1.4405,-1.4586,-1.471,-1.5309,-1.5555,-1.5444,-1.5671,-1.5825,-1.5846,-1.6062,-1.6359,-1.6588,-1.6878,-1.7106,-1.7239,-1.7286,-1.7286,-1.7286,-1.7286,-1.7286,-1.7286,-1.7296,-1.7279,-1.7267,-1.7206,-1.7282,-1.7177,-1.7208,-1.7216,-1.7223,-1.7223,-1.7184,-1.7228,-1.7264,-1.725,-1.7336,-1.8102,-1.8334,-1.858,-1.933,-1.9733,-1.9778,-1.9869,-2.0096,-2.0557,-2.0962,-2.1507,-2.1872,-2.2413,-2.3057,-2.3101,-2.3101,-2.3101,-2.3101,-2.3144,-2.3276,-0.0056,-0.0168,-0.0336,-0.1344,-0.2962,-0.4298,-0.5639,-0.6927,-0.8322,-0.8937,-0.8937,-0.8937,-0.8937,-0.8937,-0.8937,-0.8844,-0.879,-0.879,-0.871,-0.8482,-0.8336,-0.8391,-0.8522,-0.8918,-0.948,-1.0212,-1.104,-1.1641,-1.2027,-1.2453,-1.2887,-1.3247,-1.3521,-1.3774,-1.4032,-1.429,-1.452,-1.4669,-1.4781,-1.4915,-1.5045,-1.514,-1.5048,-1.4798,-1.4608,-1.4476,-1.4342,-1.4182,-1.4088,-1.413,-1.4454,-1.4622,-1.4622,-1.4985,-1.5394,-1.5842,-1.5602,-1.5228,-1.4866,-1.4486,-1.455,-1.5218,-1.5551,-1.5592,-1.5266,-1.5943,-1.6185,-1.5522,-1.5865,-1.6272,-1.64,-1.6744,-1.7026,-1.7113,-1.7239,-1.7326,-1.7286,-1.7326,-1.7267,-1.7091,-1.7047,-1.7013,-1.6806,-1.6755,-1.6762,-1.6762,-1.6815,-1.6837,-1.6815,-1.6762,-1.6762,-1.6762,-1.6762,-1.6857,-1.7126,-1.7895,-1.8214,-1.8162,-1.9109,-2.0187,-2.0277,-2.0187,-2.0466,-2.1596,-2.1784,-2.2006,-2.2501,-2.2731,-2.3101,-2.3101,-2.3101,-2.3101,-2.3101,-2.3101,-2.3178,0.0,0.0,-0.0224,-0.0952,-0.2181,-0.3575,-0.4968,-0.6308,-0.7706,-0.8491,-0.8881,-0.8937,-0.8937,-0.8937,-0.8937,-0.8937,-0.8878,-0.8841,-0.876,-0.853,-0.8316,-0.8069,-0.7894,-0.8463,-0.891,-0.9291,-1.0619,-1.1413,-1.172,-1.2408,-1.2928,-1.3095,-1.3453,-1.3682,-1.3809,-1.4057,-1.4248,-1.437,-1.437,-1.4518,-1.4716,-1.4777,-1.4838,-1.4969,-1.4752,-1.4601,-1.4522,-1.4322,-1.4162,-1.4095,-1.4334,-1.4461,-1.4454,-1.4657,-1.511,-1.5636,-1.576,-1.576,-1.576,-1.5151,-1.5168,-1.592,-1.6222,-1.6086,-1.5884,-1.6594,-1.6801,-1.6159,-1.6281,-1.6506,-1.6397,-1.6931,-1.7346,-1.7437,-1.7613,-1.7743,-1.7819,-1.7736,-1.772,-1.7513,-1.7654,-1.7391,-1.7133,-1.6999,-1.6941,-1.7198,-1.7007,-1.6925,-1.7064,-1.7211,-1.7211,-1.7092,-1.709,-1.7072,-1.7175,-1.7951,-1.81,-1.8698,-1.9888,-2.098,-2.0962,-2.1006,-2.1096,-2.2369,-2.2236,-2.228,-2.2731,-2.3003,-2.3071,-2.3091,-2.3071,-2.3042,-2.3101,-2.3091,-2.3091,0.0,0.0,0.0,-0.0224,-0.0617,-0.1901,-0.3405,-0.5135,-0.6364,-0.7595,-0.8826,-0.8937,-0.8937,-0.8871,-0.8868,-0.8878,-0.8858,-0.8784,-0.8703,-0.8618,-0.8187,-0.7914,-0.7842,-0.8471,-0.9108,-0.9669,-1.0646,-1.1666,-1.2546,-1.2915,-1.3109,-1.3107,-1.3586,-1.3743,-1.3616,-1.3803,-1.3797,-1.3628,-1.3656,-1.3717,-1.3989,-1.414,-1.452,-1.491,-1.4956,-1.4792,-1.4532,-1.4496,-1.4355,-1.413,-1.4845,-1.5304,-1.5394,-1.609,-1.6494,-1.6576,-1.6617,-1.6617,-1.6576,-1.6453,-1.6517,-1.6647,-1.6724,-1.6954,-1.6668,-1.7242,-1.7541,-1.785,-1.7157,-1.6904,-1.664,-1.732,-1.8089,-1.8363,-1.8669,-1.8764,-1.8842,-1.8605,-1.8903,-1.868,-1.8397,-1.8218,-1.8519,-1.8146,-1.7813,-1.8064,-1.7975,-1.7648,-1.8075,-1.846,-1.8409,-1.8291,-1.8194,-1.817,-1.7849,-1.8456,-1.9471,-1.9965,-2.0612,-2.2265,-2.2722,-2.3003,-2.2994,-2.3003,-2.2872,-2.2872,-2.3047,-2.3071,-2.3023,-2.2994,-2.2916,-2.2916,-2.2779,-2.2994,-2.2955,0.0,0.0,0.0,-0.0056,-0.028,-0.1622,-0.3128,-0.4747,-0.6086,-0.754,-0.8712,-0.8881,-0.8882,-0.874,-0.8791,-0.8794,-0.8777,-0.8635,-0.8516,-0.8397,-0.8058,-0.7814,-0.7699,-0.7724,-0.8167,-0.903,-0.9971,-1.1225,-1.2577,-1.2813,-1.2952,-1.3077,-1.3302,-1.3429,-1.3513,-1.3604,-1.3604,-1.3525,-1.3656,-1.3746,-1.3689,-1.4011,-1.4288,-1.4443,-1.4603,-1.4518,-1.4262,-1.4062,-1.4109,-1.4563,-1.4924,-1.542,-1.6142,-1.6494,-1.6698,-1.6698,-1.6698,-1.6698,-1.6698,-1.6698,-1.6698,-1.6665,-1.6273,-1.6156,-1.5965,-1.5914,-1.5762,-1.5749,-1.6213,-1.617,-1.6131,-1.6841,-1.7773,-1.8316,-1.8612,-1.8587,-1.8275,-1.8181,-1.7892,-1.7212,-1.6838,-1.6683,-1.6933,-1.6438,-1.6354,-1.6599,-1.6438,-1.658,-1.6649,-1.6733,-1.7059,-1.676,-1.6632,-1.6862,-1.7937,-1.888,-1.9811,-2.0231,-2.0906,-2.1767,-2.2355,-2.2824,-2.2877,-2.2872,-2.2955,-2.2945,-2.2886,-2.2773,-2.2773,-2.2705,-2.2646,-2.2529,-2.2334,-2.251,-2.2471,0.0,0.0,0.0,0.0,0.0,-0.1064,-0.2348,-0.3799,-0.4801,-0.6345,-0.7871,-0.8142,-0.8285,-0.8592,-0.8591,-0.8567,-0.8557,-0.8459,-0.8336,-0.8177,-0.7882,-0.7668,-0.7549,-0.7531,-0.7885,-0.8632,-0.9802,-1.1182,-1.2528,-1.2705,-1.2801,-1.2976,-1.3073,-1.3157,-1.3254,-1.3344,-1.3357,-1.3323,-1.3438,-1.3432,-1.3387,-1.3654,-1.3875,-1.3976,-1.4128,-1.4256,-1.4222,-1.39,-1.3967,-1.44,-1.4382,-1.4783,-1.5557,-1.5684,-1.5894,-1.6232,-1.6247,-1.6412,-1.6698,-1.6944,-1.7139,-1.7139,-1.6903,-1.6657,-1.664,-1.6396,-1.6197,-1.6171,-1.6387,-1.6788,-1.6936,-1.731,-1.7612,-1.7904,-1.8127,-1.8127,-1.7746,-1.778,-1.7464,-1.6936,-1.6656,-1.6392,-1.6229,-1.6286,-1.6507,-1.6599,-1.6681,-1.6714,-1.6992,-1.7074,-1.7074,-1.7074,-1.7432,-1.7991,-1.8785,-1.9725,-2.0236,-2.06,-2.0759,-2.1504,-2.2045,-2.2495,-2.2707,-2.273,-2.2754,-2.2744,-2.2646,-2.2471,-2.2363,-2.2295,-2.2236,-2.2139,-2.2021,-2.1953,-2.1963,0.0,0.0,0.0,0.0,0.0,0.0,-0.0896,-0.2288,-0.2454,-0.414,-0.6374,-0.6583,-0.733,-0.8161,-0.8267,-0.8289,-0.8262,-0.8296,-0.817,-0.8018,-0.7733,-0.7526,-0.7475,-0.793,-0.8277,-0.8584,-1.0323,-1.1666,-1.2528,-1.2528,-1.2595,-1.2728,-1.2976,-1.2976,-1.2729,-1.2994,-1.2994,-1.2831,-1.2832,-1.2894,-1.3058,-1.3163,-1.331,-1.3455,-1.3642,-1.3959,-1.4369,-1.4126,-1.3848,-1.3689,-1.3467,-1.3387,-1.402,-1.4198,-1.4412,-1.5621,-1.5613,-1.5992,-1.6772,-1.7594,-1.7997,-1.8037,-1.8647,-1.8736,-1.862,-1.8894,-1.9006,-1.88,-1.87,-1.8845,-1.9018,-1.8562,-1.7929,-1.7302,-1.7833,-1.8036,-1.7872,-1.791,-1.7974,-1.7829,-1.7723,-1.7917,-1.7957,-1.7715,-1.7844,-1.8407,-1.8647,-1.8807,-1.9164,-1.9274,-2.0118,-2.0079,-1.9313,-1.8917,-1.9766,-2.0605,-2.082,-2.1003,-2.1057,-2.1407,-2.1823,-2.2236,-2.2233,-2.2256,-2.2275,-2.2266,-2.2246,-2.207,-2.1924,-2.1846,-2.1797,-2.1699,-2.1623,-2.1544,-2.1611,0.0,0.0,0.0,0.0,0.0,0.0,-0.0835,-0.2146,-0.22,-0.3317,-0.5038,-0.5882,-0.6511,-0.7041,-0.7705,-0.7999,-0.7963,-0.7953,-0.7926,-0.7834,-0.758,-0.7467,-0.7437,-0.7522,-0.7841,-0.8584,-0.971,-1.0837,-1.1623,-1.18,-1.2015,-1.2595,-1.2789,-1.2789,-1.2711,-1.2789,-1.2777,-1.2723,-1.2875,-1.2924,-1.2875,-1.3137,-1.3264,-1.3228,-1.3398,-1.3576,-1.3713,-1.3452,-1.344,-1.3751,-1.3546,-1.4091,-1.5436,-1.6203,-1.684,-1.753,-1.766,-1.7907,-1.8412,-1.8638,-1.8798,-1.8807,-1.8607,-1.8416,-1.8327,-1.7987,-1.7786,-1.7737,-1.7549,-1.754,-1.759,-1.7434,-1.7588,-1.8656,-1.9045,-1.8877,-1.8479,-1.8189,-1.8037,-1.7997,-1.7997,-1.7997,-1.7997,-1.7997,-1.8158,-1.8447,-1.8559,-1.8767,-1.8847,-1.9204,-1.8798,-1.8798,-1.8886,-1.9371,-1.9726,-2.001,-2.0222,-2.0602,-2.0896,-2.1143,-2.1504,-2.173,-2.177,-2.1789,-2.1809,-2.1768,-2.1748,-2.166,-2.1494,-2.1328,-2.1221,-2.1113,-2.1055,-2.1025,-2.1084,0.0387,0.0,0.0,0.0,0.0,0.0,-0.0495,-0.1301,-0.1407,-0.2194,-0.3584,-0.4678,-0.5514,-0.619,-0.7208,-0.7694,-0.7662,-0.7658,-0.7648,-0.7628,-0.7521,-0.7346,-0.7285,-0.7193,-0.7837,-0.8925,-0.9618,-1.0572,-1.1794,-1.1843,-1.2095,-1.2613,-1.2705,-1.2705,-1.2705,-1.2705,-1.2705,-1.2705,-1.2875,-1.2875,-1.279,-1.296,-1.3094,-1.3009,-1.3179,-1.3222,-1.3148,-1.2823,-1.2923,-1.3231,-1.3029,-1.3848,-1.5683,-1.6071,-1.6606,-1.7226,-1.7445,-1.757,-1.7874,-1.7799,-1.8118,-1.8008,-1.7719,-1.7513,-1.7432,-1.6903,-1.6698,-1.6698,-1.6755,-1.6698,-1.6747,-1.6698,-1.731,-1.8336,-1.8567,-1.8727,-1.8447,-1.8167,-1.7764,-1.7594,-1.7464,-1.7504,-1.7513,-1.7885,-1.8126,-1.8367,-1.8758,-1.8957,-1.8957,-1.9076,-1.8966,-1.8807,-1.8966,-1.9253,-1.9292,-1.945,-1.9578,-2.0046,-2.0555,-2.0829,-2.1173,-2.1212,-2.1241,-2.1212,-2.1222,-2.1202,-2.1182,-2.1094,-2.0967,-2.081,-2.0674,-2.0644,-2.0576,-2.042,-2.04,0.1119,0.0112,0.0,0.0,0.0,0.0,0.0,0.0,0.0,-0.079,-0.1969,-0.3047,-0.4245,-0.552,-0.6541,-0.7149,-0.7372,-0.7389,-0.7355,-0.7383,-0.7336,-0.7278,-0.7129,-0.7105,-0.7881,-0.9183,-0.9618,-1.0659,-1.2009,-1.2235,-1.2662,-1.2705,-1.2705,-1.2705,-1.2705,-1.2705,-1.2705,-1.2705,-1.2705,-1.2705,-1.2705,-1.2705,-1.2705,-1.2705,-1.2924,-1.2966,-1.2766,-1.2503,-1.2347,-1.245,-1.2132,-1.275,-1.397,-1.3864,-1.4388,-1.5411,-1.5473,-1.5811,-1.5806,-1.6577,-1.6711,-1.6775,-1.6989,-1.6798,-1.6992,-1.7024,-1.6943,-1.6919,-1.6903,-1.6871,-1.6936,-1.6993,-1.7082,-1.6976,-1.7553,-1.7683,-1.7853,-1.7974,-1.8006,-1.7432,-1.6984,-1.6944,-1.7342,-1.7917,-1.8567,-1.9094,-1.9814,-2.0167,-2.0245,-2.0167,-2.045,-2.0167,-1.9608,-1.9371,-1.945,-1.9292,-1.946,-1.9606,-2.0115,-2.0399,-2.0752,-2.084,-2.085,-2.0801,-2.0713,-2.0664,-2.0605,-2.0537,-2.0449,-2.0293,-2.0225,-2.0225,-2.0117,-1.9951,-1.9834,0.1612,0.1265,0.0386,0.0,0.0,0.0,0.0,0.0,0.0,0.0,-0.0765,-0.1676,-0.2932,-0.4162,-0.5268,-0.6208,-0.6957,-0.7132,-0.7121,-0.7169,-0.7204,-0.7139,-0.7102,-0.7095,-0.7356,-0.8009,-0.8711,-0.9492,-1.0616,-1.1451,-1.2057,-1.2705,-1.2705,-1.2705,-1.2705,-1.2699,-1.2705,-1.2705,-1.2699,-1.2687,-1.2681,-1.2681,-1.2705,-1.2705,-1.2778,-1.2778,-1.265,-1.2245,-1.1793,-1.1543,-1.1958,-1.2348,-1.3212,-1.3565,-1.4155,-1.4981,-1.5613,-1.613,-1.659,-1.713,-1.7456,-1.7587,-1.7367,-1.7729,-1.7729,-1.7699,-1.7737,-1.7737,-1.7737,-1.7707,-1.8004,-1.7948,-1.814,-1.8523,-1.7954,-1.8083,-1.9015,-1.9508,-1.9539,-1.9371,-1.9313,-1.8997,-1.8767,-1.9085,-1.9569,-1.9539,-2.001,-2.0615,-2.0615,-2.0615,-2.0615,-2.0615,-2.0206,-1.9854,-1.9569,-1.9371,-1.9292,-1.9341,-1.9618,-1.9913,-2.0313,-2.0635,-2.0654,-2.0644,-2.0468,-2.038,-2.0185,-2.0078,-1.9932,-1.9871,-1.9727,-1.9697,-1.959,-1.949,-1.9424,0.2248,0.1621,0.0487,0.0,0.0,0.0,0.0,0.0,0.0,0.0,0.0,-0.11,-0.1991,-0.2876,-0.4299,-0.5358,-0.618,-0.6566,-0.6825,-0.6989,-0.7058,-0.7098,-0.7095,-0.7095,-0.7316,-0.7709,-0.8237,-0.9283,-1.0409,-1.1063,-1.18,-1.2528,-1.2705,-1.2705,-1.2693,-1.2584,-1.2542,-1.2512,-1.2445,-1.2373,-1.2373,-1.2373,-1.2331,-1.2403,-1.2457,-1.2499,-1.2349,-1.2036,-1.1944,-1.2188,-1.2371,-1.2769,-1.3854,-1.407,-1.4604,-1.5356,-1.5971,-1.648,-1.6753,-1.7149,-1.7255,-1.7225,-1.7147,-1.6829,-1.6505,-1.6497,-1.6497,-1.6408,-1.6231,-1.6338,-1.6663,-1.6583,-1.696,-1.7545,-1.7351,-1.7738,-1.9511,-1.9833,-1.9833,-1.9784,-1.9775,-1.9766,-1.9213,-1.9687,-1.9893,-1.9971,-2.0255,-2.0527,-2.0615,-2.0605,-2.0518,-2.0382,-2.0159,-1.9681,-1.9266,-1.9072,-1.8942,-1.8969,-1.9351,-1.9601,-1.987,-2.0225,-2.0214,-2.0175,-2.0126,-2.0028,-1.9785,-1.9639,-1.959,-1.9473,-1.9307,-1.917,-1.9092,-1.9014,-1.8984,0.2963,0.1699,0.0638,0.0105,0.0,0.0,0.0,0.0,0.0,0.0,0.0,-0.0986,-0.1466,-0.1705,-0.3396,-0.4526,-0.4936,-0.5748,-0.6415,-0.6745,-0.6966,-0.7054,-0.7095,-0.7095,-0.7448,-0.8017,-0.8364,-0.9327,-1.0308,-1.0864,-1.1573,-1.213,-1.2348,-1.2517,-1.2464,-1.2325,-1.2282,-1.224,-1.2101,-1.2023,-1.2023,-1.1976,-1.1988,-1.2053,-1.2186,-1.2137,-1.194,-1.1881,-1.2297,-1.3617,-1.2797,-1.3229,-1.4812,-1.4617,-1.4724,-1.5141,-1.5451,-1.592,-1.6281,-1.6194,-1.6214,-1.6229,-1.591,-1.5187,-1.4881,-1.4805,-1.4805,-1.4873,-1.3744,-1.4289,-1.4679,-1.4102,-1.4857,-1.615,-1.5691,-1.6683,-1.8492,-1.9335,-1.9143,-1.8736,-1.8847,-1.8798,-1.8877,-1.9006,-1.9292,-1.9177,-1.9651,-1.9831,-1.9966,-2.0061,-1.9985,-1.988,-1.962,-1.9277,-1.8953,-1.8661,-1.8572,-1.8605,-1.9126,-1.9424,-1.9435,-1.9658,-1.96,-1.958,-1.9705,-1.9551,-1.9287,-1.9209,-1.9189,-1.9033,-1.8809,-1.874,-1.8682,-1.8613,-1.8555,0.4016,0.2913,0.1772,0.0775,0.0,0.0,0.0,0.0,0.0,0.0,0.0,0.0,-0.0815,-0.1577,-0.2145,-0.3044,-0.4501,-0.5053,-0.5633,-0.6748,-0.6836,-0.6966,-0.7048,-0.7078,-0.7217,-0.7566,-0.8189,-0.8711,-0.92,-0.9923,-1.0457,-1.1199,-1.1487,-1.1479,-1.202,-1.2036,-1.2005,-1.1952,-1.1926,-1.1838,-1.1866,-1.1872,-1.1838,-1.1862,-1.1968,-1.1826,-1.1633,-1.1579,-1.1941,-1.2384,-1.2486,-1.2482,-1.2652,-1.2908,-1.3091,-1.312,-1.3557,-1.4163,-1.4752,-1.552,-1.5882,-1.5898,-1.5832,-1.5411,-1.4642,-1.4571,-1.4564,-1.454,-1.4402,-1.446,-1.4772,-1.5126,-1.5373,-1.5806,-1.6201,-1.6626,-1.7402,-1.7629,-1.7966,-1.8218,-1.8049,-1.769,-1.7713,-1.7903,-1.8191,-1.8368,-1.8692,-1.8929,-1.9221,-1.9552,-1.9439,-1.9345,-1.9222,-1.8841,-1.8224,-1.8053,-1.8145,-1.8165,-1.864,-1.9023,-1.9072,-1.9104,-1.9102,-1.9199,-1.9336,-1.9131,-1.8818,-1.8724,-1.874,-1.8525,-1.8369,-1.835,-1.8311,-1.8223,-1.8213,0.4307,0.3219,0.2046,0.0967,0.0,0.0,0.0,0.0,0.0,0.0,0.0,0.0,0.0,-0.089,-0.1242,-0.2184,-0.3267,-0.4452,-0.5494,-0.646,-0.6734,-0.691,-0.693,-0.6937,-0.6963,-0.7067,-0.7472,-0.7868,-0.8407,-0.9085,-1.0012,-1.0805,-1.1029,-1.1554,-1.1804,-1.1766,-1.1745,-1.1657,-1.1561,-1.1501,-1.154,-1.154,-1.163,-1.1676,-1.17,-1.1621,-1.1513,-1.1495,-1.1568,-1.1789,-1.2083,-1.2335,-1.2328,-1.2696,-1.2769,-1.2732,-1.3127,-1.3709,-1.443,-1.5188,-1.5806,-1.5798,-1.6088,-1.5833,-1.5401,-1.5144,-1.518,-1.5073,-1.4892,-1.4712,-1.4908,-1.5043,-1.5383,-1.5951,-1.6051,-1.6313,-1.6796,-1.7244,-1.7631,-1.8059,-1.8015,-1.7946,-1.7856,-1.7569,-1.7882,-1.847,-1.8539,-1.8742,-1.8986,-1.9216,-1.8899,-1.8778,-1.8759,-1.8388,-1.7587,-1.739,-1.7633,-1.7766,-1.8033,-1.8327,-1.8467,-1.8555,-1.8633,-1.873,-1.8799,-1.8623,-1.8359,-1.8295,-1.8315,-1.8242,-1.8144,-1.8047,-1.8027,-1.8096,-1.8105,0.4542,0.3373,0.2311,0.1255,0.0301,0.0,0.0,0.0,0.0,0.0,0.0,0.0,0.0,0.0,-0.0815,-0.1257,-0.2284,-0.3778,-0.5401,-0.632,-0.6605,-0.6774,-0.6822,-0.681,-0.677,-0.6861,-0.6967,-0.7323,-0.7899,-0.8584,-0.9139,-1.0265,-1.0942,-1.123,-1.1546,-1.1594,-1.1467,-1.1399,-1.1292,-1.119,-1.1184,-1.1178,-1.1286,-1.1381,-1.1429,-1.1423,-1.1387,-1.1413,-1.1335,-1.1167,-1.1744,-1.2445,-1.2989,-1.3426,-1.3462,-1.3353,-1.3462,-1.3897,-1.4286,-1.5117,-1.5727,-1.5692,-1.6079,-1.5939,-1.5294,-1.4824,-1.4788,-1.4716,-1.4402,-1.4034,-1.425,-1.4147,-1.4626,-1.5223,-1.5046,-1.5383,-1.6126,-1.7075,-1.7287,-1.778,-1.7453,-1.7213,-1.7549,-1.7567,-1.809,-1.8396,-1.8396,-1.8441,-1.8606,-1.863,-1.8226,-1.8069,-1.8012,-1.8226,-1.7568,-1.6889,-1.7107,-1.745,-1.7653,-1.7841,-1.8018,-1.8193,-1.8311,-1.8184,-1.8154,-1.8086,-1.8096,-1.8135,-1.8105,-1.8008,-1.8008,-1.8008,-1.8008,-1.8008,-1.8008,0.55,0.4425,0.3367,0.2312,0.1277,0.0386,0.0,0.0,0.0,0.0,0.0,0.0,0.0,0.0,0.0,0.0,-0.2533,-0.3991,-0.5132,-0.6073,-0.6353,-0.6492,-0.6684,-0.6633,-0.6593,-0.66,-0.6654,-0.6857,-0.6932,-0.7023,-0.8064,-0.8976,-0.9378,-0.9919,-1.0956,-1.117,-1.1145,-1.12,-1.1154,-1.1117,-1.1117,-1.1123,-1.1135,-1.1226,-1.1232,-1.1226,-1.1208,-1.1196,-1.1154,-1.1117,-1.126,-1.1403,-1.1737,-1.2254,-1.2254,-1.2107,-1.2549,-1.3208,-1.3846,-1.4807,-1.5136,-1.5002,-1.5029,-1.4422,-1.3528,-1.3164,-1.3665,-1.3491,-1.3346,-1.2952,-1.2703,-1.3382,-1.2966,-1.3257,-1.3938,-1.4223,-1.4577,-1.5231,-1.6158,-1.7053,-1.6718,-1.6283,-1.6604,-1.6776,-1.6824,-1.6967,-1.7015,-1.7089,-1.727,-1.7341,-1.7228,-1.7189,-1.722,-1.7524,-1.7609,-1.6915,-1.6685,-1.7141,-1.7386,-1.7627,-1.7813,-1.7949,-1.8008,-1.8008,-1.8008,-1.8027,-1.8027,-1.8008,-1.8008,-1.8008,-1.8008,-1.7998,-1.8008,-1.8008,-1.8008,0.5753,0.4656,0.3549,0.2507,0.1443,0.0,0.0,0.0,0.0,0.0,0.0,0.0,0.0,0.0,0.0,0.0,-0.264,-0.3902,-0.4942,-0.5771,-0.6045,-0.6219,-0.6404,-0.6357,-0.6358,-0.6396,-0.648,-0.6485,-0.6548,-0.691,-0.7422,-0.8017,-0.8469,-0.9306,-1.0218,-1.046,-1.0743,-1.0968,-1.1117,-1.1117,-1.1117,-1.1117,-1.1117,-1.1117,-1.1117,-1.1117,-1.1117,-1.1117,-1.1117,-1.1117,-1.1117,-1.1117,-1.1223,-1.1372,-1.1558,-1.1409,-1.1855,-1.2335,-1.2865,-1.3614,-1.3983,-1.3954,-1.4207,-1.4207,-1.3709,-1.3673,-1.3557,-1.3991,-1.4565,-1.4673,-1.4851,-1.4458,-1.4673,-1.4744,-1.4887,-1.4958,-1.5215,-1.5498,-1.5903,-1.6319,-1.574,-1.5385,-1.5414,-1.5507,-1.541,-1.5479,-1.566,-1.5925,-1.6196,-1.6227,-1.635,-1.593,-1.5868,-1.5965,-1.6411,-1.635,-1.614,-1.6594,-1.7019,-1.7251,-1.7326,-1.7351,-1.7696,-1.7964,-1.7998,-1.7683,-1.7998,-1.7988,-1.7998,-1.7969,-1.793,-1.79,-1.7978,-1.8008,-1.791,0.5744,0.4905,0.3762,0.2694,0.165,0.0695,0.0,0.0,0.0,0.0,0.0,0.0,0.0,0.0,0.0,-0.0898,-0.2475,-0.3514,-0.4458,-0.527,-0.5739,-0.5956,-0.6,-0.5979,-0.596,-0.6175,-0.6207,-0.6257,-0.6412,-0.6786,-0.7223,-0.7765,-0.8327,-0.9117,-0.9803,-1.0293,-1.0556,-1.0893,-1.1117,-1.1117,-1.1117,-1.1117,-1.1117,-1.1117,-1.1117,-1.1117,-1.1117,-1.1117,-1.1117,-1.1117,-1.1117,-1.1117,-1.1117,-1.1117,-1.1186,-1.1329,-1.1639,-1.1824,-1.2181,-1.3011,-1.3774,-1.3629,-1.4135,-1.4394,-1.4358,-1.4286,-1.4645,-1.5507,-1.5613,-1.5824,-1.5604,-1.586,-1.5789,-1.5789,-1.5613,-1.5789,-1.5357,-1.5215,-1.4958,-1.4992,-1.4645,-1.4916,-1.5309,-1.5755,-1.5975,-1.5984,-1.6191,-1.6103,-1.6272,-1.5732,-1.5542,-1.4716,-1.4402,-1.4294,-1.4716,-1.5428,-1.5498,-1.5921,-1.6306,-1.662,-1.6591,-1.658,-1.6949,-1.7239,-1.7111,-1.6907,-1.7413,-1.7842,-1.7686,-1.7617,-1.7715,-1.7676,-1.7519,-1.75,-1.7471,0.6058,0.5808,0.4758,0.3747,0.2677,0.1635,0.0721,0.0,0.0,0.0,0.0,0.0,0.0,0.0,0.0,-0.0675,-0.1626,-0.2629,-0.3622,-0.4501,-0.5139,-0.5523,-0.5668,-0.5655,-0.575,-0.5944,-0.5941,-0.6099,-0.6257,-0.6412,-0.6834,-0.7446,-0.8169,-0.9079,-0.969,-1.0288,-1.0999,-1.1074,-1.1117,-1.1117,-1.1117,-1.1117,-1.1117,-1.1117,-1.1117,-1.1117,-1.1117,-1.1117,-1.1117,-1.1117,-1.1117,-1.1117,-1.1117,-1.1117,-1.1117,-1.1335,-1.1744,-1.2298,-1.2498,-1.3259,-1.381,-1.3593,-1.4258,-1.4553,-1.4186,-1.4158,-1.4366,-1.4645,-1.4466,-1.4573,-1.4851,-1.3846,-1.3564,-1.3781,-1.4135,-1.3709,-1.3455,-1.4744,-1.453,-1.4243,-1.4027,-1.5037,-1.5814,-1.6289,-1.6709,-1.6665,-1.6586,-1.6368,-1.5974,-1.5223,-1.5144,-1.4502,-1.4006,-1.3897,-1.4042,-1.4609,-1.4807,-1.5278,-1.566,-1.6,-1.6033,-1.6012,-1.5819,-1.599,-1.6002,-1.6314,-1.6871,-1.7158,-1.7174,-1.7217,-1.7213,-1.7048,-1.6833,-1.6872,-1.7028,0.5923,0.5877,0.4847,0.381,0.2855,0.1844,0.0891,0.0,0.0,0.0,0.0,0.0,0.0,0.0,-0.0455,-0.0941,-0.1496,-0.2199,-0.3101,-0.3778,-0.4403,-0.489,-0.5326,-0.544,-0.5553,-0.5664,-0.5712,-0.575,-0.5948,-0.6173,-0.6528,-0.6865,-0.7633,-0.8394,-0.9223,-1.0013,-1.0625,-1.0925,-1.1117,-1.1117,-1.1117,-1.1111,-1.1105,-1.1105,-1.1099,-1.1093,-1.1099,-1.1117,-1.1117,-1.1117,-1.1117,-1.1117,-1.1117,-1.1117,-1.1117,-1.1105,-1.1372,-1.1626,-1.1805,-1.2498,-1.2718,-1.2725,-1.2908,-1.2799,-1.2842,-1.339,-1.3753,-1.3781,-1.407,-1.4286,-1.4502,-1.3991,-1.3962,-1.3818,-1.3419,-1.3382,-1.3273,-1.3564,-1.4063,-1.3738,-1.3557,-1.4494,-1.5073,-1.478,-1.5037,-1.5321,-1.518,-1.4966,-1.4502,-1.3781,-1.4063,-1.4601,-1.4178,-1.3854,-1.4034,-1.4394,-1.4255,-1.4601,-1.5135,-1.542,-1.5539,-1.5485,-1.5209,-1.5492,-1.5998,-1.6287,-1.6494,-1.6606,-1.6738,-1.6721,-1.6707,-1.6558,-1.6471,-1.6648,-1.6775,0.581,0.5716,0.499,0.4107,0.3111,0.2179,0.123,0.0345,0.0,0.0,0.0,0.0,0.0,0.0,-0.0564,-0.0839,-0.1021,-0.1801,-0.2503,-0.3049,-0.3675,-0.4263,-0.4732,-0.5007,-0.5303,-0.547,-0.5449,-0.5501,-0.5632,-0.5828,-0.6018,-0.6158,-0.7003,-0.7731,-0.8463,-0.9131,-0.9737,-1.0444,-1.0742,-1.0827,-1.0833,-1.0845,-1.0845,-1.0894,-1.0918,-1.0906,-1.1003,-1.1003,-1.1003,-1.1117,-1.1117,-1.1117,-1.1117,-1.1117,-1.1117,-1.1111,-1.1223,-1.1223,-1.1335,-1.1589,-1.1446,-1.1632,-1.1885,-1.2542,-1.2542,-1.2974,-1.3448,-1.3665,-1.3854,-1.425,-1.4458,-1.4243,-1.3882,-1.3818,-1.3854,-1.3998,-1.3991,-1.3673,-1.3419,-1.3164,-1.3091,-1.3411,-1.3629,-1.2952,-1.3098,-1.3709,-1.3745,-1.3673,-1.3382,-1.2989,-1.3237,-1.3991,-1.365,-1.3433,-1.386,-1.4004,-1.3881,-1.3935,-1.4468,-1.451,-1.4487,-1.4488,-1.4277,-1.4866,-1.5541,-1.5629,-1.5472,-1.5885,-1.6263,-1.6052,-1.5938,-1.6116,-1.6185,-1.6373,-1.6395,0.5841,0.554,0.5551,0.4907,0.3909,0.3129,0.219,0.1138,0.0422,0.0,0.0,0.0,0.0,0.0,0.0,0.0,0.0,0.0,-0.1488,-0.2113,-0.293,-0.3663,-0.416,-0.4614,-0.5013,-0.5156,-0.5139,-0.5229,-0.5301,-0.5332,-0.5479,-0.565,-0.6504,-0.7216,-0.778,-0.8325,-0.8857,-0.954,-1.0001,-1.0337,-1.0366,-1.0389,-1.0418,-1.0406,-1.0429,-1.0454,-1.0731,-1.0749,-1.0816,-1.1003,-1.1039,-1.1057,-1.1039,-1.1093,-1.1105,-1.1117,-1.1117,-1.1117,-1.1186,-1.1558,-1.204,-1.2372,-1.2586,-1.2755,-1.2762,-1.3455,-1.3918,-1.373,-1.3528,-1.3781,-1.3781,-1.3564,-1.3237,-1.3273,-1.3273,-1.3098,-1.3025,-1.2879,-1.2629,-1.2519,-1.2659,-1.2952,-1.2989,-1.2519,-1.2915,-1.3637,-1.389,-1.3818,-1.3637,-1.3317,-1.2989,-1.312,-1.2771,-1.2866,-1.3461,-1.3624,-1.3742,-1.3642,-1.3857,-1.3528,-1.3099,-1.314,-1.3467,-1.3577,-1.4084,-1.4271,-1.4508,-1.476,-1.4961,-1.5068,-1.5211,-1.552,-1.5659,-1.5699,-1.5691,0.5849,0.5619,0.5533,0.4924,0.395,0.3654,0.2977,0.2101,0.1685,0.1223,0.0726,0.0,0.0,0.0,0.0,0.0,0.0,0.0,-0.0783,-0.1285,-0.2011,-0.2798,-0.3394,-0.3964,-0.4353,-0.4727,-0.4826,-0.4891,-0.4921,-0.4949,-0.4855,-0.5215,-0.6003,-0.6601,-0.7122,-0.7636,-0.8178,-0.8544,-0.919,-0.966,-0.977,-1.0159,-1.0333,-1.0333,-1.0333,-1.0334,-1.043,-1.0442,-1.0509,-1.0647,-1.0791,-1.0809,-1.0863,-1.0997,-1.1057,-1.1075,-1.1069,-1.1087,-1.1099,-1.1397,-1.1558,-1.1589,-1.1805,-1.21,-1.2321,-1.2358,-1.2505,-1.2542,-1.2732,-1.2945,-1.2915,-1.2703,-1.2519,-1.2586,-1.2556,-1.2378,-1.2305,-1.2305,-1.2305,-1.2372,-1.2378,-1.2482,-1.2452,-1.2342,-1.2959,-1.3608,-1.3818,-1.389,-1.3637,-1.3375,-1.2954,-1.2797,-1.2532,-1.2427,-1.2963,-1.3319,-1.3614,-1.3431,-1.3216,-1.2869,-1.2477,-1.2591,-1.2835,-1.2779,-1.2787,-1.3244,-1.3501,-1.357,-1.3896,-1.4485,-1.4832,-1.5096,-1.5126,-1.5147,-1.5196,0.593,0.5735,0.5564,0.5061,0.4316,0.4024,0.3524,0.2935,0.2567,0.207,0.1254,0.0628,0.0196,0.0,0.0,0.0,0.0,0.0,0.0,-0.0837,-0.1317,-0.1944,-0.2635,-0.3237,-0.3606,-0.4183,-0.4341,-0.4334,-0.4593,-0.4577,-0.4568,-0.4781,-0.5325,-0.5808,-0.6445,-0.7125,-0.7575,-0.7605,-0.8093,-0.8584,-0.8632,-0.9003,-0.948,-0.9542,-0.9598,-0.9911,-1.0067,-1.0184,-1.0244,-1.0358,-1.0472,-1.0557,-1.0665,-1.0755,-1.0821,-1.0906,-1.0954,-1.0954,-1.0966,-1.1044,-1.1105,-1.1223,-1.1186,-1.1223,-1.1155,-1.1298,-1.1737,-1.1737,-1.1848,-1.2003,-1.2194,-1.2194,-1.2261,-1.2402,-1.2445,-1.2305,-1.2305,-1.2305,-1.2305,-1.2305,-1.2298,-1.2258,-1.2064,-1.2044,-1.2378,-1.2898,-1.3062,-1.3157,-1.3142,-1.2897,-1.264,-1.2571,-1.2544,-1.2501,-1.2506,-1.2679,-1.279,-1.2707,-1.2523,-1.2477,-1.227,-1.2274,-1.2205,-1.2197,-1.2267,-1.2436,-1.2697,-1.2983,-1.3584,-1.4249,-1.4517,-1.4725,-1.4941,-1.4961,-1.5059,0.6084,0.5799,0.5792,0.5511,0.5025,0.4257,0.3882,0.3698,0.2945,0.2237,0.1566,0.1291,0.0742,0.0,0.0,0.0,0.0,0.0,0.0,0.0,-0.0806,-0.1278,-0.1672,-0.2201,-0.2769,-0.3299,-0.3561,-0.3873,-0.424,-0.4371,-0.4338,-0.4333,-0.4661,-0.4959,-0.5641,-0.6457,-0.6552,-0.6189,-0.6779,-0.7164,-0.7475,-0.7815,-0.8324,-0.8663,-0.8865,-0.929,-0.9699,-0.9874,-0.9946,-1.0136,-1.0238,-1.0298,-1.0322,-1.0376,-1.0418,-1.0447,-1.0593,-1.0677,-1.0737,-1.096,-1.1039,-1.1099,-1.1117,-1.1117,-1.1149,-1.126,-1.1409,-1.1484,-1.1595,-1.1781,-1.1935,-1.2009,-1.2114,-1.215,-1.2194,-1.2141,-1.2098,-1.2131,-1.2105,-1.1985,-1.2144,-1.2171,-1.1891,-1.1744,-1.187,-1.2119,-1.2254,-1.2368,-1.2492,-1.2375,-1.2175,-1.2122,-1.2144,-1.195,-1.1859,-1.1921,-1.1971,-1.1891,-1.1811,-1.175,-1.167,-1.1582,-1.1545,-1.1577,-1.1725,-1.188,-1.2212,-1.2551,-1.3282,-1.3932,-1.4172,-1.438,-1.4627,-1.4745,-1.4725,0.6104,0.5855,0.5737,0.5583,0.5384,0.5027,0.4802,0.4618,0.383,0.3205,0.2727,0.1889,0.1185,0.0759,0.0,0.0,0.0,0.0,0.0,0.0,0.0,-0.0747,-0.1133,-0.1434,-0.193,-0.2525,-0.292,-0.3227,-0.3563,-0.3961,-0.4267,-0.4303,-0.4334,-0.4431,-0.4764,-0.5253,-0.5352,-0.5782,-0.6474,-0.7158,-0.7587,-0.7972,-0.8296,-0.8522,-0.8587,-0.8939,-0.9426,-0.9438,-0.964,-0.982,-0.9904,-1.0033,-1.0042,-1.013,-1.0256,-1.0274,-1.0412,-1.0418,-1.043,-1.0545,-1.0731,-1.0948,-1.1087,-1.1081,-1.1105,-1.1149,-1.126,-1.1335,-1.1446,-1.1595,-1.175,-1.1774,-1.1848,-1.1855,-1.1829,-1.1707,-1.1691,-1.1765,-1.1729,-1.1596,-1.1598,-1.1666,-1.1535,-1.1369,-1.1449,-1.1536,-1.169,-1.1784,-1.1871,-1.1782,-1.1639,-1.1552,-1.1492,-1.129,-1.1201,-1.1332,-1.1311,-1.1255,-1.111,-1.0971,-1.0915,-1.0996,-1.0989,-1.1052,-1.1178,-1.1327,-1.1725,-1.2182,-1.2986,-1.3601,-1.3532,-1.3803,-1.4181,-1.424,-1.4172,0.6577,0.6444,0.6328,0.6064,0.5831,0.5556,0.5339,0.5145,0.4514,0.4076,0.3459,0.2435,0.1677,0.1222,0.0692,0.0144,0.0,0.0,0.0,0.0,0.0,0.0,-0.0584,0.0,-0.1152,-0.1745,-0.2179,-0.2514,-0.2848,-0.3556,-0.3997,-0.4233,-0.4303,-0.4334,-0.4431,-0.4595,-0.4758,-0.5156,-0.5617,-0.5976,-0.6437,-0.6924,-0.7377,-0.7674,-0.7972,-0.8409,-0.8786,-0.9043,-0.921,-0.9338,-0.9492,-0.9676,-0.9735,-0.984,-0.9994,-1.0027,-1.0124,-1.0184,-1.028,-1.0316,-1.0521,-1.0749,-1.09,-1.0972,-1.0972,-1.1045,-1.1136,-1.126,-1.1273,-1.1385,-1.1527,-1.1551,-1.1487,-1.1487,-1.1409,-1.1325,-1.1278,-1.1307,-1.1326,-1.1153,-1.1109,-1.1158,-1.1134,-1.1035,-1.0969,-1.1062,-1.1129,-1.1196,-1.1302,-1.1269,-1.1235,-1.1202,-1.1082,-1.0942,-1.0828,-1.0825,-1.0755,-1.0631,-1.0586,-1.0586,-1.0618,-1.0776,-1.0649,-1.0586,-1.0839,-1.1052,-1.1264,-1.1756,-1.2282,-1.2436,-1.2336,-1.2834,-1.361,-1.3881,-1.3932,0.7522,0.7518,0.7476,0.6973,0.6286,0.5755,0.5416,0.5084,0.5047,0.4464,0.3461,0.3388,0.2542,0.1375,0.1097,0.063,0.0,0.0,0.0,0.0,0.0,0.0,0.0,0.0,0.0,-0.0908,-0.131,-0.1812,-0.2146,-0.3017,-0.3692,-0.4064,-0.4233,-0.4267,-0.4334,-0.4367,-0.4498,-0.4791,-0.4957,-0.5286,-0.5679,-0.5382,-0.5972,-0.6433,-0.6892,-0.7447,-0.7902,-0.8323,-0.8624,-0.8835,-0.8975,-0.9098,-0.9227,-0.935,-0.9388,-0.953,-0.9661,-0.9979,-1.0124,-1.0142,-1.0178,-1.0292,-1.0497,-1.0605,-1.0713,-1.0809,-1.0888,-1.0961,-1.0949,-1.1126,-1.1236,-1.1149,-1.103,-1.102,-1.0978,-1.0918,-1.0842,-1.0826,-1.0835,-1.0799,-1.0802,-1.0758,-1.0665,-1.0588,-1.0588,-1.0601,-1.0686,-1.0784,-1.0863,-1.1015,-1.0982,-1.0949,-1.0822,-1.0687,-1.06,-1.062,-1.0613,-1.0586,-1.0586,-1.0586,-1.0586,-1.0586,-1.0586,-1.0618,-1.0649,-1.087,-1.124,-1.124,-1.1209,-1.1358,-1.1903,-1.2366,-1.3329,-1.389,-1.407,0.8016,0.7506,0.7338,0.6802,0.6115,0.5831,0.5429,0.5,0.4961,0.4678,0.4285,0.3668,0.2863,0.194,0.1343,0.0683,0.0,0.0,0.0,0.0,0.0,0.0,0.0,0.0,0.0,-0.0438,-0.0807,-0.1143,-0.1611,-0.2449,-0.3117,-0.3487,-0.3894,-0.41,-0.4233,-0.4303,-0.4528,-0.4755,-0.4824,-0.5054,-0.5382,-0.5514,-0.5778,-0.6009,-0.6235,-0.6756,-0.7079,-0.7312,-0.7512,-0.7609,-0.7609,-0.7609,-0.7614,-0.7679,-0.7814,-0.8603,-0.9108,-0.9634,-0.9727,-0.9712,-0.9676,-0.9675,-0.988,-1.0226,-1.0358,-1.0378,-1.045,-1.0515,-1.0527,-1.0587,-1.0713,-1.0698,-1.06,-1.059,-1.0513,-1.0449,-1.0341,-1.0211,-1.0214,-1.0128,-1.0137,-1.0343,-1.0218,-1.0251,-1.0251,-1.0213,-1.0257,-1.0361,-1.0516,-1.0646,-1.0736,-1.0709,-1.0727,-1.0606,-1.0586,-1.06,-1.0593,-1.0586,-1.0586,-1.0586,-1.0586,-1.0586,-1.0586,-1.0649,-1.0744,-1.0989,-1.1303,-1.124,-1.1108,-1.1748,-1.2297,-1.2581,-1.2948,-1.342,-1.389,0.8652,0.7928,0.7773,0.6984,0.5919,0.5759,0.5409,0.5052,0.5021,0.4918,0.4606,0.4118,0.3402,0.2609,0.1863,0.1144,0.0,0.0,0.0,0.0,0.0,0.0,0.0,0.0,0.0,0.0,0.0,-0.0605,-0.1008,-0.1678,-0.2414,-0.2783,-0.3288,-0.3591,-0.3725,-0.3825,-0.4225,-0.4592,-0.4888,-0.5183,-0.5448,-0.5646,-0.5583,-0.5679,-0.5807,-0.6067,-0.6195,-0.6297,-0.6593,-0.6724,-0.6761,-0.6822,-0.6859,-0.6924,-0.7022,-0.7777,-0.8112,-0.8425,-0.8479,-0.8565,-0.8641,-0.8727,-0.8865,-0.8887,-0.9259,-0.9449,-0.9689,-0.9915,-0.9921,-0.9997,-1.0124,-1.0214,-1.0178,-1.017,-1.0055,-0.994,-0.9763,-0.9586,-0.9498,-0.9365,-0.9508,-0.9809,-0.9874,-0.9894,-0.9958,-1.0053,-1.0085,-1.0117,-1.0258,-1.0386,-1.0482,-1.0469,-1.0576,-1.0586,-1.0586,-1.0555,-1.0555,-1.0555,-1.0586,-1.0586,-1.0586,-1.0586,-1.0586,-1.0713,-1.0832,-1.1021,-1.1083,-1.1264,-1.1351,-1.1841,-1.2058,-1.212,-1.2305,-1.2704,-1.3139,0.9373,0.8395,0.834,0.717,0.5797,0.5641,0.546,0.5209,0.5272,0.5049,0.4654,0.4597,0.4002,0.3135,0.245,0.1812,0.1143,0.0,0.0,0.0,0.0,0.0,0.0,0.0,0.0,0.0,0.0,0.0,0.0,-0.0975,-0.1745,-0.2013,-0.2248,-0.2616,-0.305,-0.3084,-0.3387,-0.3756,-0.3959,-0.4125,-0.4398,-0.44,-0.43,-0.4495,-0.4888,-0.5276,-0.5411,-0.5738,-0.6231,-0.6297,-0.633,-0.6359,-0.6363,-0.6597,-0.6695,-0.6924,-0.7251,-0.7447,-0.7544,-0.7609,-0.7549,-0.7517,-0.7391,-0.7667,-0.8146,-0.8581,-0.8851,-0.8951,-0.8924,-0.9026,-0.9163,-0.9175,-0.9136,-0.9109,-0.9036,-0.8969,-0.8865,-0.8723,-0.8592,-0.8528,-0.8689,-0.8947,-0.9011,-0.8979,-0.9139,-0.9562,-0.9728,-0.9696,-0.9926,-1.0047,-1.0142,-1.0206,-1.0333,-1.0396,-1.0434,-1.0403,-1.0491,-1.0523,-1.0523,-1.0586,-1.0586,-1.0586,-1.0586,-1.0681,-1.0744,-1.0681,-1.0744,-1.0926,-1.1045,-1.1052,-1.1233,-1.1389,-1.167,-1.2004,-1.2489,0.961,0.8106,0.6832,0.623,0.6148,0.5644,0.5726,0.6009,0.5556,0.5165,0.4764,0.4592,0.4223,0.3518,0.3117,0.2515,0.1879,0.1244,0.0908,0.0,0.0,0.0,0.0,0.0,0.0,0.0,0.0,0.0,0.0,-0.0673,-0.1143,-0.1377,-0.1712,-0.2214,-0.248,-0.2514,-0.2783,-0.3186,-0.3188,-0.3661,-0.4233,-0.4303,-0.4334,-0.4334,-0.4595,-0.4628,-0.4694,-0.4728,-0.4858,-0.4824,-0.4824,-0.4858,-0.4858,-0.555,-0.5881,-0.6009,-0.6465,-0.6691,-0.6789,-0.6793,-0.6826,-0.6957,-0.7022,-0.7186,-0.7424,-0.7697,-0.7845,-0.7893,-0.7998,-0.8102,-0.8192,-0.8174,-0.8134,-0.8108,-0.805,-0.803,-0.8009,-0.7879,-0.7712,-0.7777,-0.7874,-0.8004,-0.8102,-0.8231,-0.8361,-0.8554,-0.8753,-0.8914,-0.9344,-0.9568,-0.969,-0.9786,-1.0015,-1.011,-1.018,-1.0244,-1.0308,-1.0364,-1.0364,-1.046,-1.0555,-1.0555,-1.0523,-1.0555,-1.0618,-1.0586,-1.0586,-1.0649,-1.0681,-1.0649,-1.0713,-1.0989,-1.0958,-1.1202,-1.1748,0.9717,0.8329,0.6971,0.6564,0.6675,0.6141,0.6075,0.6235,0.5686,0.5296,0.506,0.4858,0.4522,0.399,0.3654,0.3353,0.2716,0.2048,0.151,0.1074,0.0807,0.0337,0.0,0.0,0.0,0.0,0.0,0.0,0.0,-0.0269,-0.0606,-0.0774,-0.1277,-0.178,-0.2013,-0.2347,-0.2616,-0.3119,-0.2852,-0.3357,-0.41,-0.403,-0.4097,-0.4131,-0.4303,-0.4303,-0.4303,-0.4303,-0.43,-0.4334,-0.44,-0.44,-0.45,-0.4831,-0.4994,-0.5153,-0.5481,-0.5873,-0.5943,-0.6009,-0.6042,-0.6104,-0.6071,-0.5976,-0.5943,-0.6228,-0.6957,-0.7065,-0.756,-0.7729,-0.7724,-0.769,-0.7718,-0.7671,-0.7601,-0.7559,-0.7484,-0.7386,-0.7153,-0.7022,-0.7251,-0.7614,-0.7712,-0.7712,-0.7842,-0.7842,-0.8004,-0.8069,-0.8495,-0.8926,-0.9113,-0.93,-0.9466,-0.9856,-1.0085,-1.0117,-1.0117,-1.0149,-1.0142,-1.0206,-1.0269,-1.0396,-1.0466,-1.046,-1.0491,-1.0586,-1.0586,-1.0523,-1.0586,-1.0618,-1.0618,-1.0649,-1.0586,-1.0586,-1.1076,0.9707,0.8775,0.779,0.7456,0.7414,0.6695,0.6461,0.64,0.5719,0.5395,0.5359,0.519,0.5024,0.4658,0.4259,0.4059,0.3656,0.2952,0.2246,0.1844,0.151,0.1042,0.0605,0.0,0.0,0.0,0.0,0.0,0.0,0.0,0.0,0.0,-0.0606,-0.1244,-0.1879,-0.2347,-0.2582,-0.2751,-0.2854,-0.3357,-0.3558,-0.3589,-0.3894,-0.4133,-0.4303,-0.4303,-0.4303,-0.4303,-0.4303,-0.4303,-0.4303,-0.4303,-0.4303,-0.4434,-0.44,-0.4597,-0.4691,-0.4824,-0.4791,-0.4891,-0.4894,-0.4827,-0.4761,-0.4827,-0.4894,-0.5352,-0.6046,-0.6437,-0.6929,-0.7027,-0.6994,-0.7027,-0.7027,-0.706,-0.6994,-0.6961,-0.6863,-0.6761,-0.6564,-0.6301,-0.6634,-0.706,-0.7092,-0.7125,-0.719,-0.7223,-0.7288,-0.7354,-0.7517,-0.7907,-0.8231,-0.8458,-0.8683,-0.9139,-0.9626,-0.9824,-0.9766,-0.9754,-0.9716,-0.9881,-1.0015,-1.0174,-1.0269,-1.0269,-1.0333,-1.0364,-1.0428,-1.0396,-1.046,-1.0523,-1.0523,-1.0491,-1.0586,-1.0586,-1.0586,0.9446,0.8517,0.7722,0.7744,0.8032,0.6985,0.6695,0.6961,0.5918,0.5395,0.5395,0.5359,0.5226,0.5024,0.4761,0.4595,0.4428,0.3789,0.3589,0.3288,0.2547,0.1911,0.1376,0.0941,0.0572,0.0,0.0,0.0,0.0,0.0,0.0,0.0,-0.0034,-0.0337,-0.0438,-0.0908,-0.1276,-0.1613,-0.1647,-0.1747,-0.2484,-0.2954,-0.4064,-0.4303,-0.4303,-0.4303,-0.4303,-0.4303,-0.4303,-0.4303,-0.4303,-0.4303,-0.4303,-0.4303,-0.4303,-0.4303,-0.4398,-0.4398,-0.4431,-0.4431,-0.45,-0.4498,-0.4595,-0.4824,-0.5024,-0.5385,-0.5778,-0.5745,-0.5972,-0.5716,-0.5683,-0.5745,-0.5778,-0.5914,-0.5918,-0.5951,-0.5918,-0.5885,-0.5785,-0.5719,-0.5818,-0.6017,-0.6017,-0.6115,-0.6276,-0.6375,-0.6568,-0.6666,-0.6994,-0.719,-0.7354,-0.7642,-0.7902,-0.8231,-0.8619,-0.9177,-0.9274,-0.9268,-0.9262,-0.9268,-0.9498,-0.9951,-1.0047,-0.9881,-0.9945,-1.0047,-1.011,-1.0238,-1.0269,-1.0301,-1.0333,-1.0396,-1.0491,-1.0555,-1.053]}]]